<?xml version='1.0' encoding='UTF-8'?><gpx version="1.1" creator="JPX - https://github.com/jenetics/jpx" xmlns="http://www.topografix.com/GPX/1/1"><trk><trkseg><trkpt lat="45.112595895165136" lon="8.609948880822921"><ele>95.0</ele><time>2026-05-03T17:34:32Z</time></trkpt><trkpt lat="45.11261415338683" lon="8.609790080786519"><ele>95.0</ele><time>2026-05-03T17:34:34Z</time></trkpt><trkpt lat="45.11261670113531" lon="8.609654893822741"><ele>95.0</ele><time>2026-05-03T17:34:35.999Z</time></trkpt><trkpt lat="45.112595211104384" lon="8.609484335954741"><ele>95.0</ele><time>2026-05-03T17:34:37.999Z</time></trkpt><trkpt lat="45.11258928243722" lon="8.60938361287257"><ele>95.0</ele><time>2026-05-03T17:34:38.999Z</time></trkpt><trkpt lat="45.112567694318166" lon="8.60927600222819"><ele>95.0</ele><time>2026-05-03T17:34:39.999Z</time></trkpt><trkpt lat="45.112545781347755" lon="8.609154770789036"><ele>95.0</ele><time>2026-05-03T17:34:40.999Z</time></trkpt><trkpt lat="45.11252524307513" lon="8.609030449985255"><ele>95.0</ele><time>2026-05-03T17:34:41.999Z</time></trkpt><trkpt lat="45.11250659070508" lon="8.608913871777112"><ele>95.0</ele><time>2026-05-03T17:34:42.999Z</time></trkpt><trkpt lat="45.11248587285047" lon="8.608802080333707"><ele>95.0</ele><time>2026-05-03T17:34:43.999Z</time></trkpt><trkpt lat="45.112469968583284" lon="8.608696412564854"><ele>95.0</ele><time>2026-05-03T17:34:44.999Z</time></trkpt><trkpt lat="45.112451421650185" lon="8.608584380035936"><ele>95.0</ele><time>2026-05-03T17:34:45.999Z</time></trkpt><trkpt lat="45.11244792825653" lon="8.60847812543317"><ele>95.0</ele><time>2026-05-03T17:34:46.999Z</time></trkpt><trkpt lat="45.11244494040569" lon="8.608380552650663"><ele>95.0</ele><time>2026-05-03T17:34:47.999Z</time></trkpt><trkpt lat="45.11248753638761" lon="8.608217218731799"><ele>95.0</ele><time>2026-05-03T17:34:49.999Z</time></trkpt><trkpt lat="45.11251982810071" lon="8.608134588664134"><ele>95.0</ele><time>2026-05-03T17:34:50.999Z</time></trkpt><trkpt lat="45.112567850576106" lon="8.608037711571948"><ele>95.0</ele><time>2026-05-03T17:34:51.999Z</time></trkpt><trkpt lat="45.112647879901864" lon="8.607943120505421"><ele>95.33333333333334</ele><time>2026-05-03T17:34:52.999Z</time></trkpt><trkpt lat="45.11269697739778" lon="8.607819871513763"><ele>95.66666666666667</ele><time>2026-05-03T17:34:53.999Z</time></trkpt><trkpt lat="45.11273592446213" lon="8.607711793379565"><ele>96.0</ele><time>2026-05-03T17:34:54.999Z</time></trkpt><trkpt lat="45.11276577917667" lon="8.607625462282751"><ele>96.33333333333334</ele><time>2026-05-03T17:34:55.999Z</time></trkpt><trkpt lat="45.11281179904301" lon="8.607530938832673"><ele>96.66666666666667</ele><time>2026-05-03T17:34:56.999Z</time></trkpt><trkpt lat="45.11285437381607" lon="8.607414747548104"><ele>97.0</ele><time>2026-05-03T17:34:58.999Z</time></trkpt><trkpt lat="45.11288508845003" lon="8.607327248494418"><ele>97.00000000000001</ele><time>2026-05-03T17:35:01.999Z</time></trkpt><trkpt lat="45.11290577178746" lon="8.607224659520233"><ele>97.0</ele><time>2026-05-03T17:35:04.999Z</time></trkpt><trkpt lat="45.11293472566188" lon="8.607106643523787"><ele>97.0</ele><time>2026-05-03T17:35:06.999Z</time></trkpt><trkpt lat="45.11297517241727" lon="8.606994197472297"><ele>97.0</ele><time>2026-05-03T17:35:08.999Z</time></trkpt><trkpt lat="45.112985740152496" lon="8.60688170019169"><ele>97.00000000000001</ele><time>2026-05-03T17:35:10.998Z</time></trkpt><trkpt lat="45.11300906511867" lon="8.606743978499038"><ele>97.0</ele><time>2026-05-03T17:35:12.998Z</time></trkpt><trkpt lat="45.11305349111121" lon="8.606659995549391"><ele>96.8</ele><time>2026-05-03T17:35:14.998Z</time></trkpt><trkpt lat="45.11315788309706" lon="8.60669931797539"><ele>96.6</ele><time>2026-05-03T17:35:16.998Z</time></trkpt><trkpt lat="45.11323446444496" lon="8.606753987401452"><ele>96.39999999999999</ele><time>2026-05-03T17:35:17.998Z</time></trkpt><trkpt lat="45.11332029151468" lon="8.606814558462803"><ele>96.19999999999999</ele><time>2026-05-03T17:35:18.998Z</time></trkpt><trkpt lat="45.113409688426884" lon="8.606856951862031"><ele>96.0</ele><time>2026-05-03T17:35:19.998Z</time></trkpt><trkpt lat="45.113483920419704" lon="8.606898253105026"><ele>96.0</ele><time>2026-05-03T17:35:20.998Z</time></trkpt><trkpt lat="45.11358427665212" lon="8.60698935584607"><ele>96.0</ele><time>2026-05-03T17:35:22.998Z</time></trkpt><trkpt lat="45.11365291077997" lon="8.607103389786861"><ele>96.0</ele><time>2026-05-03T17:35:23.998Z</time></trkpt><trkpt lat="45.11374571709188" lon="8.607251341143623"><ele>96.0</ele><time>2026-05-03T17:35:24.998Z</time></trkpt><trkpt lat="45.11383812559334" lon="8.607385551757378"><ele>96.0</ele><time>2026-05-03T17:35:25.998Z</time></trkpt><trkpt lat="45.113938805147676" lon="8.607515318647936"><ele>96.0</ele><time>2026-05-03T17:35:26.998Z</time></trkpt><trkpt lat="45.11403309374167" lon="8.607645530189666"><ele>96.0</ele><time>2026-05-03T17:35:27.998Z</time></trkpt><trkpt lat="45.11411166354358" lon="8.60775750259069"><ele>96.0</ele><time>2026-05-03T17:35:28.998Z</time></trkpt><trkpt lat="45.11417664264369" lon="8.607863247605444"><ele>96.0</ele><time>2026-05-03T17:35:29.998Z</time></trkpt><trkpt lat="45.11424765888016" lon="8.607962130727959"><ele>96.0</ele><time>2026-05-03T17:35:30.998Z</time></trkpt><trkpt lat="45.11431618426725" lon="8.608037273445781"><ele>96.0</ele><time>2026-05-03T17:35:31.998Z</time></trkpt><trkpt lat="45.114363819657235" lon="8.608102177686701"><ele>96.0</ele><time>2026-05-03T17:35:32.998Z</time></trkpt><trkpt lat="45.11438614354284" lon="8.608195783065039"><ele>96.0</ele><time>2026-05-03T17:35:34.998Z</time></trkpt><trkpt lat="45.114343071104166" lon="8.608291310750436"><ele>96.0</ele><time>2026-05-03T17:35:36.998Z</time></trkpt><trkpt lat="45.114269445146945" lon="8.608401537656235"><ele>96.0</ele><time>2026-05-03T17:35:38.998Z</time></trkpt><trkpt lat="45.114215009514666" lon="8.608488169237809"><ele>96.0</ele><time>2026-05-03T17:35:39.998Z</time></trkpt><trkpt lat="45.11416080262002" lon="8.608586066072007"><ele>96.0</ele><time>2026-05-03T17:35:40.998Z</time></trkpt><trkpt lat="45.114095418774305" lon="8.6086988990486"><ele>96.0</ele><time>2026-05-03T17:35:41.998Z</time></trkpt><trkpt lat="45.11403974074012" lon="8.608800617788003"><ele>96.0</ele><time>2026-05-03T17:35:42.998Z</time></trkpt><trkpt lat="45.11399142193407" lon="8.608894228058304"><ele>96.0</ele><time>2026-05-03T17:35:43.998Z</time></trkpt><trkpt lat="45.113945744946754" lon="8.609019904775177"><ele>96.0</ele><time>2026-05-03T17:35:44.997Z</time></trkpt><trkpt lat="45.11391102550156" lon="8.609145654640479"><ele>96.0</ele><time>2026-05-03T17:35:45.997Z</time></trkpt><trkpt lat="45.11386880994937" lon="8.609261543636165"><ele>96.0</ele><time>2026-05-03T17:35:46.997Z</time></trkpt><trkpt lat="45.11383341777533" lon="8.609381627377076"><ele>96.0</ele><time>2026-05-03T17:35:47.997Z</time></trkpt><trkpt lat="45.113782036889056" lon="8.609495982734167"><ele>96.0</ele><time>2026-05-03T17:35:48.997Z</time></trkpt><trkpt lat="45.11372776526329" lon="8.609628185828672"><ele>95.8</ele><time>2026-05-03T17:35:49.997Z</time></trkpt><trkpt lat="45.11368529065778" lon="8.609747391665836"><ele>95.6</ele><time>2026-05-03T17:35:50.997Z</time></trkpt><trkpt lat="45.11364737411155" lon="8.609882314268491"><ele>95.4</ele><time>2026-05-03T17:35:51.997Z</time></trkpt><trkpt lat="45.11361236355039" lon="8.610033701799907"><ele>95.2</ele><time>2026-05-03T17:35:52.997Z</time></trkpt><trkpt lat="45.113564726288004" lon="8.610169233408953"><ele>95.0</ele><time>2026-05-03T17:35:53.997Z</time></trkpt><trkpt lat="45.11351049884883" lon="8.61029817238251"><ele>95.0</ele><time>2026-05-03T17:35:54.997Z</time></trkpt><trkpt lat="45.11346914128505" lon="8.61041783913726"><ele>95.0</ele><time>2026-05-03T17:35:55.997Z</time></trkpt><trkpt lat="45.11339818846686" lon="8.610546125595194"><ele>95.0</ele><time>2026-05-03T17:35:56.997Z</time></trkpt><trkpt lat="45.11331270013338" lon="8.61068802658691"><ele>95.0</ele><time>2026-05-03T17:35:57.997Z</time></trkpt><trkpt lat="45.11325221960212" lon="8.610798475602273"><ele>95.0</ele><time>2026-05-03T17:35:58.997Z</time></trkpt><trkpt lat="45.113200460404094" lon="8.61089661973719"><ele>95.16666666666667</ele><time>2026-05-03T17:35:59.997Z</time></trkpt><trkpt lat="45.11314900158439" lon="8.61099887860798"><ele>95.33333333333334</ele><time>2026-05-03T17:36:00.997Z</time></trkpt><trkpt lat="45.11310548466803" lon="8.611063692041734"><ele>95.5</ele><time>2026-05-03T17:36:01.997Z</time></trkpt><trkpt lat="45.1130697623782" lon="8.611219019074785"><ele>95.66666666666667</ele><time>2026-05-03T17:36:03.997Z</time></trkpt><trkpt lat="45.11310151497606" lon="8.611309687786854"><ele>95.83333333333333</ele><time>2026-05-03T17:36:04.997Z</time></trkpt><trkpt lat="45.113149832638484" lon="8.611421652428149"><ele>96.0</ele><time>2026-05-03T17:36:05.997Z</time></trkpt><trkpt lat="45.113215900228575" lon="8.611513968939182"><ele>95.5</ele><time>2026-05-03T17:36:06.997Z</time></trkpt><trkpt lat="45.11332008439072" lon="8.611590759174112"><ele>95.0</ele><time>2026-05-03T17:36:07.997Z</time></trkpt><trkpt lat="45.11344986087217" lon="8.611664673928493"><ele>94.5</ele><time>2026-05-03T17:36:08.997Z</time></trkpt><trkpt lat="45.11355789404702" lon="8.611739248711368"><ele>94.0</ele><time>2026-05-03T17:36:09.997Z</time></trkpt><trkpt lat="45.113641615847236" lon="8.611807203533434"><ele>94.0</ele><time>2026-05-03T17:36:10.997Z</time></trkpt><trkpt lat="45.11370003138124" lon="8.611885632004816"><ele>94.0</ele><time>2026-05-03T17:36:12Z</time></trkpt><trkpt lat="45.11376182106084" lon="8.611963898782015"><ele>94.0</ele><time>2026-05-03T17:36:14Z</time></trkpt><trkpt lat="45.11383013071596" lon="8.612035886131839"><ele>94.0</ele><time>2026-05-03T17:36:17Z</time></trkpt><trkpt lat="45.1138819563007" lon="8.612091787728906"><ele>94.0</ele><time>2026-05-03T17:36:20Z</time></trkpt><trkpt lat="45.113945836732086" lon="8.61214321114647"><ele>94.0</ele><time>2026-05-03T17:36:37Z</time></trkpt><trkpt lat="45.11400330518871" lon="8.61221703052112"><ele>93.75</ele><time>2026-05-03T17:36:39.999Z</time></trkpt><trkpt lat="45.114185626443486" lon="8.612299249494031"><ele>93.5</ele><time>2026-05-03T17:36:44.999Z</time></trkpt><trkpt lat="45.11424522991757" lon="8.612357583463599"><ele>93.25</ele><time>2026-05-03T17:36:45.999Z</time></trkpt><trkpt lat="45.11432884846806" lon="8.612430557923288"><ele>93.0</ele><time>2026-05-03T17:36:46.999Z</time></trkpt><trkpt lat="45.11441545045383" lon="8.612513920650912"><ele>93.0</ele><time>2026-05-03T17:36:47.999Z</time></trkpt><trkpt lat="45.114500251497184" lon="8.612592012228022"><ele>93.0</ele><time>2026-05-03T17:36:48.999Z</time></trkpt><trkpt lat="45.11456541989154" lon="8.612658070844343"><ele>93.0</ele><time>2026-05-03T17:36:49.999Z</time></trkpt><trkpt lat="45.11462801111175" lon="8.612722542895769"><ele>93.0</ele><time>2026-05-03T17:36:50.999Z</time></trkpt><trkpt lat="45.11468885197461" lon="8.612771326057784"><ele>93.0</ele><time>2026-05-03T17:36:51.999Z</time></trkpt><trkpt lat="45.11474152577672" lon="8.612826623179528"><ele>93.0</ele><time>2026-05-03T17:36:52.999Z</time></trkpt><trkpt lat="45.1148178031832" lon="8.612933829502097"><ele>93.0</ele><time>2026-05-03T17:36:54.999Z</time></trkpt><trkpt lat="45.11483529571378" lon="8.613082261320685"><ele>93.0</ele><time>2026-05-03T17:36:56.999Z</time></trkpt><trkpt lat="45.11479591216376" lon="8.613209860726842"><ele>93.0</ele><time>2026-05-03T17:36:57.999Z</time></trkpt><trkpt lat="45.11471036075328" lon="8.613343351984923"><ele>93.0</ele><time>2026-05-03T17:36:58.999Z</time></trkpt><trkpt lat="45.11461701401079" lon="8.613488245475336"><ele>93.0</ele><time>2026-05-03T17:36:59.999Z</time></trkpt><trkpt lat="45.11451523138156" lon="8.613668170536192"><ele>93.0</ele><time>2026-05-03T17:37:00.999Z</time></trkpt><trkpt lat="45.114424591020885" lon="8.613857701580628"><ele>93.0</ele><time>2026-05-03T17:37:01.999Z</time></trkpt><trkpt lat="45.11434472409523" lon="8.614016517152425"><ele>93.0</ele><time>2026-05-03T17:37:02.999Z</time></trkpt><trkpt lat="45.114268293763644" lon="8.614159509716385"><ele>93.0</ele><time>2026-05-03T17:37:03.999Z</time></trkpt><trkpt lat="45.11419388205557" lon="8.614321557724923"><ele>93.0</ele><time>2026-05-03T17:37:04.999Z</time></trkpt><trkpt lat="45.11410625933248" lon="8.614514893241656"><ele>93.0</ele><time>2026-05-03T17:37:05.999Z</time></trkpt><trkpt lat="45.11401862508025" lon="8.614685361716854"><ele>94.25</ele><time>2026-05-03T17:37:06.999Z</time></trkpt><trkpt lat="45.11394882332012" lon="8.61483036500979"><ele>95.5</ele><time>2026-05-03T17:37:07.999Z</time></trkpt><trkpt lat="45.11389185873405" lon="8.614953528774405"><ele>96.75</ele><time>2026-05-03T17:37:08.999Z</time></trkpt><trkpt lat="45.11382211452069" lon="8.615087275825754"><ele>98.0</ele><time>2026-05-03T17:37:09.999Z</time></trkpt><trkpt lat="45.113749860276606" lon="8.61523629465726"><ele>98.0</ele><time>2026-05-03T17:37:10.999Z</time></trkpt><trkpt lat="45.11368339470553" lon="8.615370313102733"><ele>98.0</ele><time>2026-05-03T17:37:11.999Z</time></trkpt><trkpt lat="45.11361820390338" lon="8.615502514326309"><ele>98.0</ele><time>2026-05-03T17:37:12.998Z</time></trkpt><trkpt lat="45.11356773700602" lon="8.615610049243147"><ele>98.0</ele><time>2026-05-03T17:37:13.998Z</time></trkpt><trkpt lat="45.113530477318506" lon="8.61568781232232"><ele>98.0</ele><time>2026-05-03T17:37:14.998Z</time></trkpt><trkpt lat="45.11352265645556" lon="8.61579239987815"><ele>98.0</ele><time>2026-05-03T17:37:16.998Z</time></trkpt><trkpt lat="45.11365798031673" lon="8.615910953740292"><ele>98.0</ele><time>2026-05-03T17:37:18.998Z</time></trkpt><trkpt lat="45.11376121449579" lon="8.61595593828685"><ele>98.0</ele><time>2026-05-03T17:37:19.998Z</time></trkpt><trkpt lat="45.11382703386165" lon="8.616038582356145"><ele>98.0</ele><time>2026-05-03T17:37:20.998Z</time></trkpt><trkpt lat="45.11386837297278" lon="8.61613477945465"><ele>98.0</ele><time>2026-05-03T17:37:21.998Z</time></trkpt><trkpt lat="45.11388570323301" lon="8.61624229695897"><ele>97.49999999999999</ele><time>2026-05-03T17:37:22.998Z</time></trkpt><trkpt lat="45.11389802227008" lon="8.616361201215854"><ele>97.0</ele><time>2026-05-03T17:37:23.998Z</time></trkpt><trkpt lat="45.11390242434027" lon="8.616498327674774"><ele>96.5</ele><time>2026-05-03T17:37:24.998Z</time></trkpt><trkpt lat="45.11389297191693" lon="8.616595647175663"><ele>96.0</ele><time>2026-05-03T17:37:25.998Z</time></trkpt><trkpt lat="45.113885026439775" lon="8.61674439928943"><ele>95.5</ele><time>2026-05-03T17:37:27.998Z</time></trkpt><trkpt lat="45.11383459118425" lon="8.616815105963836"><ele>95.0</ele><time>2026-05-03T17:37:28.998Z</time></trkpt><trkpt lat="45.11376488804874" lon="8.616901886123252"><ele>95.0</ele><time>2026-05-03T17:37:29.998Z</time></trkpt><trkpt lat="45.113710628721414" lon="8.616964665250721"><ele>95.0</ele><time>2026-05-03T17:37:30.998Z</time></trkpt><trkpt lat="45.11366638705267" lon="8.61703001758885"><ele>95.0</ele><time>2026-05-03T17:37:31.998Z</time></trkpt><trkpt lat="45.113637766654136" lon="8.61711748270801"><ele>95.0</ele><time>2026-05-03T17:37:34.998Z</time></trkpt><trkpt lat="45.11366467354969" lon="8.61722153780641"><ele>95.0</ele><time>2026-05-03T17:37:37.998Z</time></trkpt><trkpt lat="45.1137198424288" lon="8.617280447320462"><ele>95.0</ele><time>2026-05-03T17:37:38.998Z</time></trkpt><trkpt lat="45.1137806152045" lon="8.617348023644052"><ele>95.0</ele><time>2026-05-03T17:37:39.998Z</time></trkpt><trkpt lat="45.11383313389884" lon="8.617454468634962"><ele>95.0</ele><time>2026-05-03T17:37:40.998Z</time></trkpt><trkpt lat="45.11391507769618" lon="8.617540256272916"><ele>95.0</ele><time>2026-05-03T17:37:41.998Z</time></trkpt><trkpt lat="45.113991603382374" lon="8.617648186015446"><ele>95.0</ele><time>2026-05-03T17:37:42.998Z</time></trkpt><trkpt lat="45.11407580223108" lon="8.61775567089007"><ele>95.0</ele><time>2026-05-03T17:37:43.998Z</time></trkpt><trkpt lat="45.114170387163306" lon="8.617864366024214"><ele>95.0</ele><time>2026-05-03T17:37:44.998Z</time></trkpt><trkpt lat="45.11425763719007" lon="8.618002118480401"><ele>96.0</ele><time>2026-05-03T17:37:45.998Z</time></trkpt><trkpt lat="45.11435395029901" lon="8.61812199374123"><ele>97.0</ele><time>2026-05-03T17:37:46.997Z</time></trkpt><trkpt lat="45.11446171046521" lon="8.618225806489129"><ele>98.0</ele><time>2026-05-03T17:37:47.997Z</time></trkpt><trkpt lat="45.11456029245342" lon="8.618354651950014"><ele>99.0</ele><time>2026-05-03T17:37:48.997Z</time></trkpt><trkpt lat="45.11466338572121" lon="8.618480438076961"><ele>99.0</ele><time>2026-05-03T17:37:49.997Z</time></trkpt><trkpt lat="45.1147680236337" lon="8.61860718677594"><ele>99.0</ele><time>2026-05-03T17:37:50.997Z</time></trkpt><trkpt lat="45.11486129417026" lon="8.618723556690906"><ele>99.0</ele><time>2026-05-03T17:37:51.997Z</time></trkpt><trkpt lat="45.11494839070964" lon="8.618831818864312"><ele>99.0</ele><time>2026-05-03T17:37:52.997Z</time></trkpt><trkpt lat="45.115035854105436" lon="8.618931907521949"><ele>99.25</ele><time>2026-05-03T17:37:53.997Z</time></trkpt><trkpt lat="45.11513799330463" lon="8.61902421412472"><ele>99.5</ele><time>2026-05-03T17:37:54.997Z</time></trkpt><trkpt lat="45.11524289644327" lon="8.619108687810389"><ele>99.75</ele><time>2026-05-03T17:37:55.997Z</time></trkpt><trkpt lat="45.115356061273744" lon="8.619180754964754"><ele>100.0</ele><time>2026-05-03T17:37:56.997Z</time></trkpt><trkpt lat="45.11546656442125" lon="8.619232054651127"><ele>100.0</ele><time>2026-05-03T17:37:57.997Z</time></trkpt><trkpt lat="45.11558327580158" lon="8.61924795282365"><ele>100.0</ele><time>2026-05-03T17:37:58.997Z</time></trkpt><trkpt lat="45.115707561667726" lon="8.619245611028578"><ele>100.0</ele><time>2026-05-03T17:37:59.997Z</time></trkpt><trkpt lat="45.11583319596385" lon="8.619240537151118"><ele>100.0</ele><time>2026-05-03T17:38:00.997Z</time></trkpt><trkpt lat="45.115959820025374" lon="8.619217232244866"><ele>99.5</ele><time>2026-05-03T17:38:01.997Z</time></trkpt><trkpt lat="45.116085581268" lon="8.619162826684427"><ele>99.0</ele><time>2026-05-03T17:38:02.997Z</time></trkpt><trkpt lat="45.1162135672701" lon="8.619074250031824"><ele>98.5</ele><time>2026-05-03T17:38:03.997Z</time></trkpt><trkpt lat="45.11634074455359" lon="8.619010387179358"><ele>98.0</ele><time>2026-05-03T17:38:04.997Z</time></trkpt><trkpt lat="45.1164700467786" lon="8.61894672896709"><ele>97.5</ele><time>2026-05-03T17:38:05.997Z</time></trkpt><trkpt lat="45.11660123766194" lon="8.618879593470801"><ele>97.0</ele><time>2026-05-03T17:38:06.997Z</time></trkpt><trkpt lat="45.11673483391359" lon="8.618806904114154"><ele>96.5</ele><time>2026-05-03T17:38:07.997Z</time></trkpt><trkpt lat="45.11686812319717" lon="8.618739760308285"><ele>96.0</ele><time>2026-05-03T17:38:08.997Z</time></trkpt><trkpt lat="45.116997414318" lon="8.618674182751176"><ele>96.0</ele><time>2026-05-03T17:38:09.997Z</time></trkpt><trkpt lat="45.117122421615804" lon="8.618610625623717"><ele>96.0</ele><time>2026-05-03T17:38:10.997Z</time></trkpt><trkpt lat="45.11724711561037" lon="8.618549649376064"><ele>96.0</ele><time>2026-05-03T17:38:11.997Z</time></trkpt><trkpt lat="45.117367832112514" lon="8.61849089550254"><ele>96.0</ele><time>2026-05-03T17:38:12.997Z</time></trkpt><trkpt lat="45.11748114916826" lon="8.618443140438176"><ele>96.0</ele><time>2026-05-03T17:38:13.997Z</time></trkpt><trkpt lat="45.11759452514786" lon="8.618411589085683"><ele>96.0</ele><time>2026-05-03T17:38:14.997Z</time></trkpt><trkpt lat="45.1177169796173" lon="8.618402532818271"><ele>96.0</ele><time>2026-05-03T17:38:15.997Z</time></trkpt><trkpt lat="45.117844459837116" lon="8.618418254546174"><ele>96.0</ele><time>2026-05-03T17:38:16.997Z</time></trkpt><trkpt lat="45.11796886877696" lon="8.618450327744183"><ele>96.0</ele><time>2026-05-03T17:38:18Z</time></trkpt><trkpt lat="45.118095888675825" lon="8.618488963052124"><ele>96.0</ele><time>2026-05-03T17:38:19Z</time></trkpt><trkpt lat="45.11822478010862" lon="8.61853320336798"><ele>96.0</ele><time>2026-05-03T17:38:20Z</time></trkpt><trkpt lat="45.11835856465745" lon="8.6185729686321"><ele>96.0</ele><time>2026-05-03T17:38:21Z</time></trkpt><trkpt lat="45.11849282605634" lon="8.618616836131837"><ele>96.5</ele><time>2026-05-03T17:38:22Z</time></trkpt><trkpt lat="45.11862558429209" lon="8.618661264990411"><ele>97.0</ele><time>2026-05-03T17:38:23Z</time></trkpt><trkpt lat="45.118755991424806" lon="8.618699433100879"><ele>97.5</ele><time>2026-05-03T17:38:24Z</time></trkpt><trkpt lat="45.118885764174884" lon="8.618740035048045"><ele>98.0</ele><time>2026-05-03T17:38:25Z</time></trkpt><trkpt lat="45.11901589616567" lon="8.618777224134146"><ele>97.5</ele><time>2026-05-03T17:38:26Z</time></trkpt><trkpt lat="45.119147855689505" lon="8.618803739930874"><ele>97.0</ele><time>2026-05-03T17:38:27Z</time></trkpt><trkpt lat="45.11928142278485" lon="8.618818357793625"><ele>96.5</ele><time>2026-05-03T17:38:28Z</time></trkpt><trkpt lat="45.119418475912745" lon="8.61882896588689"><ele>96.0</ele><time>2026-05-03T17:38:29Z</time></trkpt><trkpt lat="45.11954909992995" lon="8.618836987496234"><ele>96.0</ele><time>2026-05-03T17:38:30Z</time></trkpt><trkpt lat="45.11967903465319" lon="8.618843673528422"><ele>96.0</ele><time>2026-05-03T17:38:31Z</time></trkpt><trkpt lat="45.119806420359" lon="8.618848754098133"><ele>96.0</ele><time>2026-05-03T17:38:32Z</time></trkpt><trkpt lat="45.11992311392433" lon="8.618850537093165"><ele>96.0</ele><time>2026-05-03T17:38:33Z</time></trkpt><trkpt lat="45.12003436733809" lon="8.618844090627258"><ele>95.75</ele><time>2026-05-03T17:38:34Z</time></trkpt><trkpt lat="45.12014740805404" lon="8.618827354423535"><ele>95.5</ele><time>2026-05-03T17:38:35Z</time></trkpt><trkpt lat="45.12026171851161" lon="8.618796963261532"><ele>95.25</ele><time>2026-05-03T17:38:36Z</time></trkpt><trkpt lat="45.12037672683291" lon="8.618755666575709"><ele>95.0</ele><time>2026-05-03T17:38:37Z</time></trkpt><trkpt lat="45.12049607086449" lon="8.618706829139272"><ele>95.0</ele><time>2026-05-03T17:38:38Z</time></trkpt><trkpt lat="45.120617053647024" lon="8.61865316199034"><ele>95.0</ele><time>2026-05-03T17:38:39Z</time></trkpt><trkpt lat="45.12072677197783" lon="8.618593401803793"><ele>95.0</ele><time>2026-05-03T17:38:40Z</time></trkpt><trkpt lat="45.120830945801764" lon="8.618538093419032"><ele>95.0</ele><time>2026-05-03T17:38:41Z</time></trkpt><trkpt lat="45.12092914141631" lon="8.618479331217728"><ele>95.5</ele><time>2026-05-03T17:38:42Z</time></trkpt><trkpt lat="45.12101822552657" lon="8.618420561543076"><ele>96.0</ele><time>2026-05-03T17:38:43Z</time></trkpt><trkpt lat="45.12109928416517" lon="8.618359409287764"><ele>96.5</ele><time>2026-05-03T17:38:44Z</time></trkpt><trkpt lat="45.12117096848325" lon="8.61830439518933"><ele>97.0</ele><time>2026-05-03T17:38:45Z</time></trkpt><trkpt lat="45.12123583093671" lon="8.618267460428166"><ele>97.49999999999999</ele><time>2026-05-03T17:38:46Z</time></trkpt><trkpt lat="45.12133049461688" lon="8.618202791139666"><ele>98.0</ele><time>2026-05-03T17:38:48Z</time></trkpt><trkpt lat="45.121437477849966" lon="8.618298713858987"><ele>98.0</ele><time>2026-05-03T17:38:48.999Z</time></trkpt><trkpt lat="45.12152961361132" lon="8.618354900100867"><ele>98.0</ele><time>2026-05-03T17:38:49.999Z</time></trkpt><trkpt lat="45.121627732738006" lon="8.618409207989036"><ele>98.0</ele><time>2026-05-03T17:38:50.999Z</time></trkpt><trkpt lat="45.12173190608795" lon="8.618465692327877"><ele>98.0</ele><time>2026-05-03T17:38:51.999Z</time></trkpt><trkpt lat="45.121841989533685" lon="8.618532444150754"><ele>98.0</ele><time>2026-05-03T17:38:52.999Z</time></trkpt><trkpt lat="45.12194904578741" lon="8.618609395926043"><ele>97.0</ele><time>2026-05-03T17:38:53.999Z</time></trkpt><trkpt lat="45.12205501968474" lon="8.618688244992454"><ele>96.0</ele><time>2026-05-03T17:38:54.999Z</time></trkpt><trkpt lat="45.12215926182925" lon="8.618774219651275"><ele>95.0</ele><time>2026-05-03T17:38:55.999Z</time></trkpt><trkpt lat="45.12225182309779" lon="8.618859711645326"><ele>94.0</ele><time>2026-05-03T17:38:56.999Z</time></trkpt><trkpt lat="45.12235369800079" lon="8.618949295456616"><ele>93.75</ele><time>2026-05-03T17:38:57.999Z</time></trkpt><trkpt lat="45.122454997609175" lon="8.619032715915756"><ele>93.5</ele><time>2026-05-03T17:38:58.999Z</time></trkpt><trkpt lat="45.1225592938181" lon="8.619120821406145"><ele>93.25</ele><time>2026-05-03T17:38:59.999Z</time></trkpt><trkpt lat="45.12265981720997" lon="8.619217496435725"><ele>93.0</ele><time>2026-05-03T17:39:00.999Z</time></trkpt><trkpt lat="45.12276143021358" lon="8.61930885796167"><ele>93.0</ele><time>2026-05-03T17:39:01.999Z</time></trkpt><trkpt lat="45.12286101133852" lon="8.619405900264677"><ele>93.0</ele><time>2026-05-03T17:39:02.999Z</time></trkpt><trkpt lat="45.12295609855581" lon="8.619507849270835"><ele>93.0</ele><time>2026-05-03T17:39:03.999Z</time></trkpt><trkpt lat="45.123054650455764" lon="8.619607536174865"><ele>93.0</ele><time>2026-05-03T17:39:04.999Z</time></trkpt><trkpt lat="45.12315124353196" lon="8.619700466432326"><ele>93.2</ele><time>2026-05-03T17:39:05.999Z</time></trkpt><trkpt lat="45.12324301796375" lon="8.619785095873853"><ele>93.4</ele><time>2026-05-03T17:39:06.999Z</time></trkpt><trkpt lat="45.12332413310968" lon="8.619863571976847"><ele>93.60000000000001</ele><time>2026-05-03T17:39:07.999Z</time></trkpt><trkpt lat="45.12341376895309" lon="8.619940382030471"><ele>93.80000000000001</ele><time>2026-05-03T17:39:08.999Z</time></trkpt><trkpt lat="45.12351598308525" lon="8.620011569628602"><ele>94.0</ele><time>2026-05-03T17:39:09.999Z</time></trkpt><trkpt lat="45.12362002028433" lon="8.620089330091451"><ele>94.0</ele><time>2026-05-03T17:39:10.999Z</time></trkpt><trkpt lat="45.12372955112375" lon="8.62016984127228"><ele>94.0</ele><time>2026-05-03T17:39:11.999Z</time></trkpt><trkpt lat="45.12383719280279" lon="8.620248169602872"><ele>94.0</ele><time>2026-05-03T17:39:12.999Z</time></trkpt><trkpt lat="45.123939560526495" lon="8.620331045034883"><ele>94.0</ele><time>2026-05-03T17:39:13.999Z</time></trkpt><trkpt lat="45.12404561445271" lon="8.620413555477116"><ele>94.5</ele><time>2026-05-03T17:39:14.999Z</time></trkpt><trkpt lat="45.12415007690067" lon="8.620494570985475"><ele>95.0</ele><time>2026-05-03T17:39:15.999Z</time></trkpt><trkpt lat="45.124256267354994" lon="8.620577823965238"><ele>95.5</ele><time>2026-05-03T17:39:16.999Z</time></trkpt><trkpt lat="45.124352161331025" lon="8.620662174034209"><ele>96.0</ele><time>2026-05-03T17:39:17.999Z</time></trkpt><trkpt lat="45.12445176899216" lon="8.620750699374168"><ele>96.0</ele><time>2026-05-03T17:39:18.999Z</time></trkpt><trkpt lat="45.12454745663681" lon="8.62083519534008"><ele>96.0</ele><time>2026-05-03T17:39:19.999Z</time></trkpt><trkpt lat="45.1246339461322" lon="8.620924069768282"><ele>96.0</ele><time>2026-05-03T17:39:20.999Z</time></trkpt><trkpt lat="45.12471468680055" lon="8.62101659469713"><ele>96.0</ele><time>2026-05-03T17:39:21.999Z</time></trkpt><trkpt lat="45.12480169329604" lon="8.621104447391565"><ele>96.0</ele><time>2026-05-03T17:39:22.999Z</time></trkpt><trkpt lat="45.12489373170662" lon="8.621191652950895"><ele>96.0</ele><time>2026-05-03T17:39:23.998Z</time></trkpt><trkpt lat="45.12498792498045" lon="8.621281814385538"><ele>96.0</ele><time>2026-05-03T17:39:24.998Z</time></trkpt><trkpt lat="45.125078483307405" lon="8.621374941645378"><ele>96.0</ele><time>2026-05-03T17:39:25.998Z</time></trkpt><trkpt lat="45.12516582598944" lon="8.621460079115645"><ele>96.0</ele><time>2026-05-03T17:39:26.998Z</time></trkpt><trkpt lat="45.1252452443813" lon="8.621541601921049"><ele>96.0</ele><time>2026-05-03T17:39:27.998Z</time></trkpt><trkpt lat="45.12531554518887" lon="8.621623986687393"><ele>96.0</ele><time>2026-05-03T17:39:28.998Z</time></trkpt><trkpt lat="45.1253856240109" lon="8.621692852111273"><ele>96.0</ele><time>2026-05-03T17:39:29.998Z</time></trkpt><trkpt lat="45.12546314938056" lon="8.62176434014325"><ele>96.0</ele><time>2026-05-03T17:39:30.998Z</time></trkpt><trkpt lat="45.1255443003655" lon="8.621843321392376"><ele>96.0</ele><time>2026-05-03T17:39:31.998Z</time></trkpt><trkpt lat="45.12563100372088" lon="8.621931064331628"><ele>96.0</ele><time>2026-05-03T17:39:32.998Z</time></trkpt><trkpt lat="45.125725430569275" lon="8.622020074584066"><ele>96.6</ele><time>2026-05-03T17:39:33.998Z</time></trkpt><trkpt lat="45.12581502223794" lon="8.622116486788816"><ele>97.19999999999999</ele><time>2026-05-03T17:39:34.998Z</time></trkpt><trkpt lat="45.12589929797315" lon="8.622205855052028"><ele>97.80000000000001</ele><time>2026-05-03T17:39:35.998Z</time></trkpt><trkpt lat="45.125978096810755" lon="8.62230998361678"><ele>98.4</ele><time>2026-05-03T17:39:36.998Z</time></trkpt><trkpt lat="45.12606459645712" lon="8.622399231581472"><ele>99.0</ele><time>2026-05-03T17:39:37.998Z</time></trkpt><trkpt lat="45.126147365169906" lon="8.622484630064305"><ele>99.0</ele><time>2026-05-03T17:39:38.998Z</time></trkpt><trkpt lat="45.126230254318614" lon="8.622570152816634"><ele>99.0</ele><time>2026-05-03T17:39:39.998Z</time></trkpt><trkpt lat="45.126320335351316" lon="8.622645515031614"><ele>99.0</ele><time>2026-05-03T17:39:40.998Z</time></trkpt><trkpt lat="45.126395343227514" lon="8.622735865641047"><ele>99.0</ele><time>2026-05-03T17:39:41.998Z</time></trkpt><trkpt lat="45.12647043505456" lon="8.622823262113162"><ele>99.0</ele><time>2026-05-03T17:39:42.998Z</time></trkpt><trkpt lat="45.12654679833579" lon="8.622908657697574"><ele>99.66666666666667</ele><time>2026-05-03T17:39:43.998Z</time></trkpt><trkpt lat="45.12661589940008" lon="8.622981915818205"><ele>100.33333333333334</ele><time>2026-05-03T17:39:44.998Z</time></trkpt><trkpt lat="45.12667560227691" lon="8.623052115545788"><ele>101.0</ele><time>2026-05-03T17:39:45.998Z</time></trkpt><trkpt lat="45.126728097114835" lon="8.623119018428664"><ele>101.66666666666667</ele><time>2026-05-03T17:39:46.998Z</time></trkpt><trkpt lat="45.12682118287873" lon="8.623211136830342"><ele>102.33333333333334</ele><time>2026-05-03T17:39:48.998Z</time></trkpt><trkpt lat="45.12687017665286" lon="8.62328877609798"><ele>103.0</ele><time>2026-05-03T17:39:50.998Z</time></trkpt><trkpt lat="45.12706504049808" lon="8.623159971222812"><ele>103.0</ele><time>2026-05-03T17:39:53.998Z</time></trkpt><trkpt lat="45.12714204664396" lon="8.623125970577071"><ele>103.0</ele><time>2026-05-03T17:39:55.998Z</time></trkpt><trkpt lat="45.127066490014954" lon="8.622770700348337"><ele>103.0</ele><time>2026-05-03T17:40:00.997Z</time></trkpt><trkpt lat="45.12701219553841" lon="8.623226565799957"><ele>103.0</ele><time>2026-05-03T17:40:01.997Z</time></trkpt><trkpt lat="45.12702766421568" lon="8.623315731056934"><ele>103.0</ele><time>2026-05-03T17:40:03.997Z</time></trkpt><trkpt lat="45.126914988086185" lon="8.623377753982155"><ele>103.0</ele><time>2026-05-03T17:40:04.997Z</time></trkpt><trkpt lat="45.12702343705029" lon="8.623556635121288"><ele>103.0</ele><time>2026-05-03T17:40:06.997Z</time></trkpt><trkpt lat="45.1270740640542" lon="8.623657832901598"><ele>103.0</ele><time>2026-05-03T17:40:07.997Z</time></trkpt><trkpt lat="45.12712137969529" lon="8.623776232281793"><ele>103.4</ele><time>2026-05-03T17:40:08.997Z</time></trkpt><trkpt lat="45.12716021298185" lon="8.623901871164756"><ele>103.80000000000001</ele><time>2026-05-03T17:40:09.997Z</time></trkpt><trkpt lat="45.12719948566529" lon="8.624042218581014"><ele>104.2</ele><time>2026-05-03T17:40:10.997Z</time></trkpt><trkpt lat="45.12723530859231" lon="8.624181041375754"><ele>104.6</ele><time>2026-05-03T17:40:11.997Z</time></trkpt><trkpt lat="45.12726848140568" lon="8.624322985794498"><ele>105.0</ele><time>2026-05-03T17:40:12.997Z</time></trkpt><trkpt lat="45.127304418154296" lon="8.624471154601428"><ele>104.75</ele><time>2026-05-03T17:40:13.997Z</time></trkpt><trkpt lat="45.12733780314069" lon="8.624623196375591"><ele>104.5</ele><time>2026-05-03T17:40:14.997Z</time></trkpt><trkpt lat="45.12736598642628" lon="8.624780003935454"><ele>104.25</ele><time>2026-05-03T17:40:15.997Z</time></trkpt><trkpt lat="45.127389678553506" lon="8.624935702675417"><ele>104.0</ele><time>2026-05-03T17:40:16.997Z</time></trkpt><trkpt lat="45.12740813540111" lon="8.625090495602056"><ele>104.0</ele><time>2026-05-03T17:40:17.997Z</time></trkpt><trkpt lat="45.12742688128817" lon="8.625239901113762"><ele>104.0</ele><time>2026-05-03T17:40:18.997Z</time></trkpt><trkpt lat="45.12745136378881" lon="8.625381292148846"><ele>104.0</ele><time>2026-05-03T17:40:19.997Z</time></trkpt><trkpt lat="45.127471679523566" lon="8.625529167039044"><ele>104.0</ele><time>2026-05-03T17:40:20.997Z</time></trkpt><trkpt lat="45.12748542205194" lon="8.625682735279453"><ele>104.0</ele><time>2026-05-03T17:40:21.997Z</time></trkpt><trkpt lat="45.12750286615784" lon="8.625834961618937"><ele>104.0</ele><time>2026-05-03T17:40:22.997Z</time></trkpt><trkpt lat="45.12752541055621" lon="8.625991884246153"><ele>104.0</ele><time>2026-05-03T17:40:24Z</time></trkpt><trkpt lat="45.1275463398356" lon="8.626149648233087"><ele>104.0</ele><time>2026-05-03T17:40:25Z</time></trkpt><trkpt lat="45.127568488549734" lon="8.62630404794328"><ele>104.0</ele><time>2026-05-03T17:40:26Z</time></trkpt><trkpt lat="45.12759303622628" lon="8.626457615155987"><ele>104.0</ele><time>2026-05-03T17:40:27Z</time></trkpt><trkpt lat="45.12761138927477" lon="8.6265973259936"><ele>104.0</ele><time>2026-05-03T17:40:28Z</time></trkpt><trkpt lat="45.127626584595454" lon="8.626728700360784"><ele>104.0</ele><time>2026-05-03T17:40:29Z</time></trkpt><trkpt lat="45.1276477650472" lon="8.626866547842022"><ele>104.0</ele><time>2026-05-03T17:40:30Z</time></trkpt><trkpt lat="45.127685470293265" lon="8.627000442501005"><ele>104.0</ele><time>2026-05-03T17:40:31Z</time></trkpt><trkpt lat="45.12773101936022" lon="8.627136811894164"><ele>104.0</ele><time>2026-05-03T17:40:32Z</time></trkpt><trkpt lat="45.12779462426515" lon="8.627272250061052"><ele>104.0</ele><time>2026-05-03T17:40:33Z</time></trkpt><trkpt lat="45.12786091144431" lon="8.627406573733028"><ele>104.0</ele><time>2026-05-03T17:40:34Z</time></trkpt><trkpt lat="45.127922465577946" lon="8.627547109557316"><ele>104.0</ele><time>2026-05-03T17:40:35Z</time></trkpt><trkpt lat="45.12797443183152" lon="8.627699931116808"><ele>104.0</ele><time>2026-05-03T17:40:36Z</time></trkpt><trkpt lat="45.128023490026045" lon="8.627841059319735"><ele>103.80000000000001</ele><time>2026-05-03T17:40:37Z</time></trkpt><trkpt lat="45.128072439605674" lon="8.627973193542735"><ele>103.60000000000001</ele><time>2026-05-03T17:40:38Z</time></trkpt><trkpt lat="45.12812102184751" lon="8.628099983746703"><ele>103.4</ele><time>2026-05-03T17:40:39Z</time></trkpt><trkpt lat="45.12817393235098" lon="8.62821441515079"><ele>103.2</ele><time>2026-05-03T17:40:40Z</time></trkpt><trkpt lat="45.12824284282567" lon="8.628316039771331"><ele>103.0</ele><time>2026-05-03T17:40:41Z</time></trkpt><trkpt lat="45.12832904994692" lon="8.628408769670848"><ele>103.0</ele><time>2026-05-03T17:40:42Z</time></trkpt><trkpt lat="45.12842638774516" lon="8.62848324030857"><ele>103.0</ele><time>2026-05-03T17:40:43Z</time></trkpt><trkpt lat="45.12853436726188" lon="8.628540803827544"><ele>103.0</ele><time>2026-05-03T17:40:44Z</time></trkpt><trkpt lat="45.12864499073471" lon="8.62859076511267"><ele>103.0</ele><time>2026-05-03T17:40:45Z</time></trkpt><trkpt lat="45.128753359191414" lon="8.628653058233276"><ele>103.0</ele><time>2026-05-03T17:40:46Z</time></trkpt><trkpt lat="45.12885794874684" lon="8.628734728777006"><ele>103.0</ele><time>2026-05-03T17:40:47Z</time></trkpt><trkpt lat="45.128955804050705" lon="8.628829959651364"><ele>103.0</ele><time>2026-05-03T17:40:48Z</time></trkpt><trkpt lat="45.12904978340379" lon="8.62893542533009"><ele>103.0</ele><time>2026-05-03T17:40:49Z</time></trkpt><trkpt lat="45.12913259641229" lon="8.62905503031406"><ele>103.0</ele><time>2026-05-03T17:40:50Z</time></trkpt><trkpt lat="45.12921642657425" lon="8.629178942155665"><ele>103.0</ele><time>2026-05-03T17:40:51Z</time></trkpt><trkpt lat="45.129303941941615" lon="8.629301399151268"><ele>103.0</ele><time>2026-05-03T17:40:52Z</time></trkpt><trkpt lat="45.12939325418863" lon="8.629424096486337"><ele>103.0</ele><time>2026-05-03T17:40:53Z</time></trkpt><trkpt lat="45.12947916061432" lon="8.62954703649891"><ele>102.75</ele><time>2026-05-03T17:40:53.999Z</time></trkpt><trkpt lat="45.129568381559565" lon="8.62967074965257"><ele>102.5</ele><time>2026-05-03T17:40:54.999Z</time></trkpt><trkpt lat="45.1296526151158" lon="8.62979942015705"><ele>102.25</ele><time>2026-05-03T17:40:55.999Z</time></trkpt><trkpt lat="45.129737045541496" lon="8.629926109410475"><ele>102.0</ele><time>2026-05-03T17:40:56.999Z</time></trkpt><trkpt lat="45.12981615589574" lon="8.630052577211474"><ele>102.0</ele><time>2026-05-03T17:40:57.999Z</time></trkpt><trkpt lat="45.12988703086708" lon="8.630172763493047"><ele>102.0</ele><time>2026-05-03T17:40:58.999Z</time></trkpt><trkpt lat="45.129969083479715" lon="8.630282564604816"><ele>102.0</ele><time>2026-05-03T17:40:59.999Z</time></trkpt><trkpt lat="45.13006011187882" lon="8.63039512843653"><ele>102.0</ele><time>2026-05-03T17:41:00.999Z</time></trkpt><trkpt lat="45.13014533439711" lon="8.630512183094112"><ele>102.0</ele><time>2026-05-03T17:41:01.999Z</time></trkpt><trkpt lat="45.13022509795235" lon="8.63063184552733"><ele>102.0</ele><time>2026-05-03T17:41:02.999Z</time></trkpt><trkpt lat="45.130308373661975" lon="8.630746169427935"><ele>102.0</ele><time>2026-05-03T17:41:03.999Z</time></trkpt><trkpt lat="45.130397526057536" lon="8.630862493016116"><ele>102.0</ele><time>2026-05-03T17:41:04.999Z</time></trkpt><trkpt lat="45.13048292057543" lon="8.630979963084123"><ele>102.0</ele><time>2026-05-03T17:41:05.999Z</time></trkpt><trkpt lat="45.130567094439996" lon="8.631090608877582"><ele>102.0</ele><time>2026-05-03T17:41:06.999Z</time></trkpt><trkpt lat="45.13065401176937" lon="8.631194492015581"><ele>102.0</ele><time>2026-05-03T17:41:07.999Z</time></trkpt><trkpt lat="45.130739075286414" lon="8.631297875937214"><ele>102.0</ele><time>2026-05-03T17:41:08.999Z</time></trkpt><trkpt lat="45.13082097326533" lon="8.63139491883855"><ele>102.0</ele><time>2026-05-03T17:41:09.999Z</time></trkpt><trkpt lat="45.13089837907085" lon="8.6314843763064"><ele>102.16666666666667</ele><time>2026-05-03T17:41:10.999Z</time></trkpt><trkpt lat="45.13097071231327" lon="8.631570571052867"><ele>102.33333333333334</ele><time>2026-05-03T17:41:11.999Z</time></trkpt><trkpt lat="45.131036744462605" lon="8.631652121036751"><ele>102.5</ele><time>2026-05-03T17:41:12.999Z</time></trkpt><trkpt lat="45.13110333221692" lon="8.63173597084673"><ele>102.66666666666667</ele><time>2026-05-03T17:41:13.999Z</time></trkpt><trkpt lat="45.131160789345486" lon="8.631828749296261"><ele>102.83333333333334</ele><time>2026-05-03T17:41:14.999Z</time></trkpt><trkpt lat="45.131218024904214" lon="8.631902702767169"><ele>103.0</ele><time>2026-05-03T17:41:15.999Z</time></trkpt><trkpt lat="45.131221714731865" lon="8.632037003355519"><ele>102.66666666666667</ele><time>2026-05-03T17:41:16.999Z</time></trkpt><trkpt lat="45.13123073592923" lon="8.632134646026358"><ele>102.33333333333334</ele><time>2026-05-03T17:41:17.999Z</time></trkpt><trkpt lat="45.13126679271561" lon="8.632277685462897"><ele>102.0</ele><time>2026-05-03T17:41:19.999Z</time></trkpt><trkpt lat="45.13132851788866" lon="8.632259219379867"><ele>101.66666666666666</ele><time>2026-05-03T17:41:22.999Z</time></trkpt><trkpt lat="45.131435009749374" lon="8.632260757365046"><ele>101.33333333333333</ele><time>2026-05-03T17:41:32.998Z</time></trkpt><trkpt lat="45.131500750313535" lon="8.632238080058364"><ele>101.0</ele><time>2026-05-03T17:41:33.998Z</time></trkpt><trkpt lat="45.13158392709289" lon="8.632309590085828"><ele>101.0</ele><time>2026-05-03T17:41:34.998Z</time></trkpt><trkpt lat="45.1316599874312" lon="8.632382792504991"><ele>101.0</ele><time>2026-05-03T17:41:35.998Z</time></trkpt><trkpt lat="45.13175306098613" lon="8.63242510786695"><ele>101.0</ele><time>2026-05-03T17:41:36.998Z</time></trkpt><trkpt lat="45.13180991236915" lon="8.632608321617756"><ele>101.0</ele><time>2026-05-03T17:41:37.998Z</time></trkpt><trkpt lat="45.13188543602656" lon="8.632739679006253"><ele>100.5</ele><time>2026-05-03T17:41:38.998Z</time></trkpt><trkpt lat="45.13196482977923" lon="8.63288231375788"><ele>100.0</ele><time>2026-05-03T17:41:39.998Z</time></trkpt><trkpt lat="45.13204412188755" lon="8.633030604518435"><ele>99.5</ele><time>2026-05-03T17:41:40.998Z</time></trkpt><trkpt lat="45.13212013035807" lon="8.63317648800154"><ele>99.0</ele><time>2026-05-03T17:41:41.998Z</time></trkpt><trkpt lat="45.132200746995665" lon="8.633329350071188"><ele>99.0</ele><time>2026-05-03T17:41:42.998Z</time></trkpt><trkpt lat="45.132280939508604" lon="8.63348371776112"><ele>99.0</ele><time>2026-05-03T17:41:43.998Z</time></trkpt><trkpt lat="45.1323591417994" lon="8.6336460038002"><ele>99.0</ele><time>2026-05-03T17:41:44.998Z</time></trkpt><trkpt lat="45.132437939868346" lon="8.633806436558427"><ele>99.0</ele><time>2026-05-03T17:41:45.998Z</time></trkpt><trkpt lat="45.13252818230096" lon="8.633968395386862"><ele>99.66666666666666</ele><time>2026-05-03T17:41:46.998Z</time></trkpt><trkpt lat="45.13262945223688" lon="8.634130107860056"><ele>100.33333333333333</ele><time>2026-05-03T17:41:47.998Z</time></trkpt><trkpt lat="45.13273453508131" lon="8.634292797952323"><ele>101.0</ele><time>2026-05-03T17:41:48.998Z</time></trkpt><trkpt lat="45.13284278217516" lon="8.634458736296377"><ele>100.66666666666666</ele><time>2026-05-03T17:41:49.998Z</time></trkpt><trkpt lat="45.13294652552907" lon="8.634624859036876"><ele>100.33333333333334</ele><time>2026-05-03T17:41:50.998Z</time></trkpt><trkpt lat="45.13304677062339" lon="8.634791210183083"><ele>100.0</ele><time>2026-05-03T17:41:51.998Z</time></trkpt><trkpt lat="45.13314355918336" lon="8.634955226511911"><ele>100.0</ele><time>2026-05-03T17:41:52.998Z</time></trkpt><trkpt lat="45.13323897984073" lon="8.635120903259958"><ele>100.0</ele><time>2026-05-03T17:41:53.998Z</time></trkpt><trkpt lat="45.13333227031754" lon="8.635286559163077"><ele>100.0</ele><time>2026-05-03T17:41:54.998Z</time></trkpt><trkpt lat="45.13341942456686" lon="8.635460209537746"><ele>100.0</ele><time>2026-05-03T17:41:55.998Z</time></trkpt><trkpt lat="45.13350482802562" lon="8.635635554333026"><ele>100.0</ele><time>2026-05-03T17:41:56.998Z</time></trkpt><trkpt lat="45.13358670824257" lon="8.63581595626482"><ele>100.0</ele><time>2026-05-03T17:41:57.998Z</time></trkpt><trkpt lat="45.13366815241484" lon="8.636001695380882"><ele>100.33333333333334</ele><time>2026-05-03T17:41:58.998Z</time></trkpt><trkpt lat="45.13374808500881" lon="8.636186553443231"><ele>100.66666666666666</ele><time>2026-05-03T17:41:59.998Z</time></trkpt><trkpt lat="45.13382993749316" lon="8.636368339278143"><ele>101.0</ele><time>2026-05-03T17:42:00.997Z</time></trkpt><trkpt lat="45.13391462340465" lon="8.636542788375536"><ele>101.0</ele><time>2026-05-03T17:42:01.997Z</time></trkpt><trkpt lat="45.13399688704071" lon="8.636714450520078"><ele>101.0</ele><time>2026-05-03T17:42:02.997Z</time></trkpt><trkpt lat="45.13408079714253" lon="8.636887081181689"><ele>101.0</ele><time>2026-05-03T17:42:03.997Z</time></trkpt><trkpt lat="45.13416154329618" lon="8.637050975697994"><ele>101.0</ele><time>2026-05-03T17:42:04.997Z</time></trkpt><trkpt lat="45.13423513947033" lon="8.637204253777924"><ele>100.5</ele><time>2026-05-03T17:42:05.997Z</time></trkpt><trkpt lat="45.1343129389327" lon="8.637351241999498"><ele>100.0</ele><time>2026-05-03T17:42:06.997Z</time></trkpt><trkpt lat="45.134408771067356" lon="8.637486693642298"><ele>99.5</ele><time>2026-05-03T17:42:07.997Z</time></trkpt><trkpt lat="45.13451595642404" lon="8.637611101771439"><ele>99.0</ele><time>2026-05-03T17:42:08.997Z</time></trkpt><trkpt lat="45.13462727879255" lon="8.637729470059803"><ele>99.0</ele><time>2026-05-03T17:42:09.997Z</time></trkpt><trkpt lat="45.13474281327431" lon="8.637847504635298"><ele>99.0</ele><time>2026-05-03T17:42:10.997Z</time></trkpt><trkpt lat="45.13486203236573" lon="8.637954398513369"><ele>99.0</ele><time>2026-05-03T17:42:11.997Z</time></trkpt><trkpt lat="45.1349881758405" lon="8.638047281708799"><ele>99.0</ele><time>2026-05-03T17:42:12.997Z</time></trkpt><trkpt lat="45.13511528820387" lon="8.63813251419985"><ele>99.0</ele><time>2026-05-03T17:42:13.997Z</time></trkpt><trkpt lat="45.13524665989349" lon="8.63820905158611"><ele>99.0</ele><time>2026-05-03T17:42:14.997Z</time></trkpt><trkpt lat="45.13537774165702" lon="8.638281002872075"><ele>99.0</ele><time>2026-05-03T17:42:15.997Z</time></trkpt><trkpt lat="45.13551090830472" lon="8.638345651118653"><ele>99.0</ele><time>2026-05-03T17:42:16.997Z</time></trkpt><trkpt lat="45.1356469020042" lon="8.638412123154808"><ele>99.0</ele><time>2026-05-03T17:42:17.997Z</time></trkpt><trkpt lat="45.13578314799905" lon="8.638479731953595"><ele>99.0</ele><time>2026-05-03T17:42:18.997Z</time></trkpt><trkpt lat="45.13591925050109" lon="8.638551185889188"><ele>99.0</ele><time>2026-05-03T17:42:19.997Z</time></trkpt><trkpt lat="45.13605426054814" lon="8.638619779217919"><ele>99.0</ele><time>2026-05-03T17:42:20.997Z</time></trkpt><trkpt lat="45.13618942827062" lon="8.63868840279146"><ele>99.0</ele><time>2026-05-03T17:42:21.997Z</time></trkpt><trkpt lat="45.13632586165215" lon="8.638753793270492"><ele>99.0</ele><time>2026-05-03T17:42:22.997Z</time></trkpt><trkpt lat="45.13646009127989" lon="8.638817132518039"><ele>99.0</ele><time>2026-05-03T17:42:23.997Z</time></trkpt><trkpt lat="45.13659221113243" lon="8.638880407252273"><ele>99.0</ele><time>2026-05-03T17:42:24.997Z</time></trkpt><trkpt lat="45.136726574883234" lon="8.638945824360047"><ele>98.75</ele><time>2026-05-03T17:42:25.997Z</time></trkpt><trkpt lat="45.13686110655115" lon="8.639008958215918"><ele>98.5</ele><time>2026-05-03T17:42:26.997Z</time></trkpt><trkpt lat="45.13699826549021" lon="8.639073346118584"><ele>98.25</ele><time>2026-05-03T17:42:27.997Z</time></trkpt><trkpt lat="45.1371356967033" lon="8.639137345459446"><ele>98.0</ele><time>2026-05-03T17:42:28.997Z</time></trkpt><trkpt lat="45.13727023548696" lon="8.639202211253089"><ele>98.5</ele><time>2026-05-03T17:42:30Z</time></trkpt><trkpt lat="45.13740298870209" lon="8.639266177027187"><ele>99.0</ele><time>2026-05-03T17:42:31Z</time></trkpt><trkpt lat="45.137535620533484" lon="8.63932792869664"><ele>99.5</ele><time>2026-05-03T17:42:32Z</time></trkpt><trkpt lat="45.13766352383503" lon="8.63939322305558"><ele>100.0</ele><time>2026-05-03T17:42:33Z</time></trkpt><trkpt lat="45.1377858932107" lon="8.639460395662246"><ele>99.75</ele><time>2026-05-03T17:42:34Z</time></trkpt><trkpt lat="45.13790463666201" lon="8.639535924016867"><ele>99.5</ele><time>2026-05-03T17:42:35Z</time></trkpt><trkpt lat="45.13801541650601" lon="8.639633240195463"><ele>99.25</ele><time>2026-05-03T17:42:36Z</time></trkpt><trkpt lat="45.13811679306474" lon="8.63975247324564"><ele>99.0</ele><time>2026-05-03T17:42:37Z</time></trkpt><trkpt lat="45.13820806665847" lon="8.639897953567454"><ele>99.0</ele><time>2026-05-03T17:42:38Z</time></trkpt><trkpt lat="45.138289898061444" lon="8.640058290124058"><ele>99.0</ele><time>2026-05-03T17:42:39Z</time></trkpt><trkpt lat="45.13836550616863" lon="8.640228440373992"><ele>99.0</ele><time>2026-05-03T17:42:40Z</time></trkpt><trkpt lat="45.138443645227696" lon="8.6404024772548"><ele>99.0</ele><time>2026-05-03T17:42:41Z</time></trkpt><trkpt lat="45.13852431117925" lon="8.640577994898678"><ele>99.0</ele><time>2026-05-03T17:42:42Z</time></trkpt><trkpt lat="45.138606624596804" lon="8.640752435095347"><ele>99.0</ele><time>2026-05-03T17:42:43Z</time></trkpt><trkpt lat="45.138689847110086" lon="8.640928330603156"><ele>99.0</ele><time>2026-05-03T17:42:44Z</time></trkpt><trkpt lat="45.13878036480698" lon="8.641097722410077"><ele>99.0</ele><time>2026-05-03T17:42:45Z</time></trkpt><trkpt lat="45.13888144297317" lon="8.641260069693983"><ele>99.0</ele><time>2026-05-03T17:42:46Z</time></trkpt><trkpt lat="45.138990755152456" lon="8.641419184793811"><ele>99.0</ele><time>2026-05-03T17:42:47Z</time></trkpt><trkpt lat="45.13910653917497" lon="8.64157337010022"><ele>99.0</ele><time>2026-05-03T17:42:48Z</time></trkpt><trkpt lat="45.13922653158408" lon="8.641717552189982"><ele>99.33333333333334</ele><time>2026-05-03T17:42:49Z</time></trkpt><trkpt lat="45.139353785804985" lon="8.641847009890004"><ele>99.66666666666667</ele><time>2026-05-03T17:42:50Z</time></trkpt><trkpt lat="45.139483760720324" lon="8.64197850630378"><ele>100.0</ele><time>2026-05-03T17:42:51Z</time></trkpt><trkpt lat="45.13960651297891" lon="8.642115233597998"><ele>100.0</ele><time>2026-05-03T17:42:52Z</time></trkpt><trkpt lat="45.139728168003266" lon="8.642250993281705"><ele>100.0</ele><time>2026-05-03T17:42:53Z</time></trkpt><trkpt lat="45.13985077979034" lon="8.642386353224492"><ele>100.0</ele><time>2026-05-03T17:42:54Z</time></trkpt><trkpt lat="45.13997283023233" lon="8.64252054560585"><ele>100.0</ele><time>2026-05-03T17:42:55Z</time></trkpt><trkpt lat="45.140095509755575" lon="8.642655466021953"><ele>100.0</ele><time>2026-05-03T17:42:56Z</time></trkpt><trkpt lat="45.14021561837453" lon="8.642784969315581"><ele>100.0</ele><time>2026-05-03T17:42:57Z</time></trkpt><trkpt lat="45.140336838156266" lon="8.642914495250778"><ele>100.0</ele><time>2026-05-03T17:42:58Z</time></trkpt><trkpt lat="45.140459020329295" lon="8.643045152965032"><ele>100.0</ele><time>2026-05-03T17:42:59Z</time></trkpt><trkpt lat="45.140579237344355" lon="8.643177835368892"><ele>100.0</ele><time>2026-05-03T17:43:00Z</time></trkpt><trkpt lat="45.14069943072521" lon="8.643311659857456"><ele>100.0</ele><time>2026-05-03T17:43:00.999Z</time></trkpt><trkpt lat="45.14081888615757" lon="8.643447312960316"><ele>100.0</ele><time>2026-05-03T17:43:01.999Z</time></trkpt><trkpt lat="45.1409323393383" lon="8.643589484154823"><ele>100.0</ele><time>2026-05-03T17:43:02.999Z</time></trkpt><trkpt lat="45.14104509336975" lon="8.643738745379471"><ele>100.0</ele><time>2026-05-03T17:43:03.999Z</time></trkpt><trkpt lat="45.14115075680294" lon="8.643897613225805"><ele>100.0</ele><time>2026-05-03T17:43:04.999Z</time></trkpt><trkpt lat="45.141253089091066" lon="8.644061470670172"><ele>100.0</ele><time>2026-05-03T17:43:05.999Z</time></trkpt><trkpt lat="45.14135373748165" lon="8.644227667514972"><ele>100.0</ele><time>2026-05-03T17:43:06.999Z</time></trkpt><trkpt lat="45.141456338549794" lon="8.644393516586144"><ele>100.0</ele><time>2026-05-03T17:43:07.999Z</time></trkpt><trkpt lat="45.141559714577866" lon="8.644554707149503"><ele>100.0</ele><time>2026-05-03T17:43:08.999Z</time></trkpt><trkpt lat="45.14166234795201" lon="8.644714640733026"><ele>99.75</ele><time>2026-05-03T17:43:09.999Z</time></trkpt><trkpt lat="45.14176307811232" lon="8.64487240158666"><ele>99.5</ele><time>2026-05-03T17:43:10.999Z</time></trkpt><trkpt lat="45.14186144713358" lon="8.645028108454579"><ele>99.25</ele><time>2026-05-03T17:43:11.999Z</time></trkpt><trkpt lat="45.14196109684283" lon="8.645181773622694"><ele>99.0</ele><time>2026-05-03T17:43:12.999Z</time></trkpt><trkpt lat="45.14206133661127" lon="8.64533170499708"><ele>99.0</ele><time>2026-05-03T17:43:13.999Z</time></trkpt><trkpt lat="45.14216118446017" lon="8.645485684497102"><ele>99.0</ele><time>2026-05-03T17:43:14.999Z</time></trkpt><trkpt lat="45.142259594984154" lon="8.64563999286859"><ele>99.0</ele><time>2026-05-03T17:43:15.999Z</time></trkpt><trkpt lat="45.14235691561817" lon="8.645791592269607"><ele>99.0</ele><time>2026-05-03T17:43:16.999Z</time></trkpt><trkpt lat="45.14245715775664" lon="8.64594145441607"><ele>99.25</ele><time>2026-05-03T17:43:17.999Z</time></trkpt><trkpt lat="45.142555745263486" lon="8.646090269071047"><ele>99.5</ele><time>2026-05-03T17:43:18.999Z</time></trkpt><trkpt lat="45.14265245008664" lon="8.64624121638689"><ele>99.75</ele><time>2026-05-03T17:43:19.999Z</time></trkpt><trkpt lat="45.142750330584" lon="8.646391651121775"><ele>100.0</ele><time>2026-05-03T17:43:20.999Z</time></trkpt><trkpt lat="45.14284589357958" lon="8.646541595720004"><ele>100.0</ele><time>2026-05-03T17:43:21.999Z</time></trkpt><trkpt lat="45.14294186818884" lon="8.646685306349257"><ele>100.0</ele><time>2026-05-03T17:43:22.999Z</time></trkpt><trkpt lat="45.143038589330445" lon="8.646828687904282"><ele>100.0</ele><time>2026-05-03T17:43:23.999Z</time></trkpt><trkpt lat="45.14313682743818" lon="8.646970483078615"><ele>100.0</ele><time>2026-05-03T17:43:24.999Z</time></trkpt><trkpt lat="45.143228261243266" lon="8.647110430564718"><ele>99.75</ele><time>2026-05-03T17:43:25.999Z</time></trkpt><trkpt lat="45.14332664661019" lon="8.647254426940929"><ele>99.5</ele><time>2026-05-03T17:43:26.999Z</time></trkpt><trkpt lat="45.14342871859037" lon="8.647399195011117"><ele>99.25</ele><time>2026-05-03T17:43:27.999Z</time></trkpt><trkpt lat="45.14353544602513" lon="8.647543475083088"><ele>99.0</ele><time>2026-05-03T17:43:28.999Z</time></trkpt><trkpt lat="45.14363991697602" lon="8.647684412724455"><ele>99.25</ele><time>2026-05-03T17:43:29.999Z</time></trkpt><trkpt lat="45.14374292618995" lon="8.647834963415624"><ele>99.5</ele><time>2026-05-03T17:43:30.999Z</time></trkpt><trkpt lat="45.1438382398028" lon="8.647989741934705"><ele>99.75</ele><time>2026-05-03T17:43:31.999Z</time></trkpt><trkpt lat="45.143926985252314" lon="8.648152109305359"><ele>100.0</ele><time>2026-05-03T17:43:32.999Z</time></trkpt><trkpt lat="45.14400720485217" lon="8.648324802010215"><ele>100.0</ele><time>2026-05-03T17:43:33.999Z</time></trkpt><trkpt lat="45.14408796603688" lon="8.648502805031752"><ele>100.0</ele><time>2026-05-03T17:43:34.999Z</time></trkpt><trkpt lat="45.14416583755395" lon="8.64867971450756"><ele>100.0</ele><time>2026-05-03T17:43:35.998Z</time></trkpt><trkpt lat="45.14424862533654" lon="8.648856044911824"><ele>100.0</ele><time>2026-05-03T17:43:36.998Z</time></trkpt><trkpt lat="45.144333880256376" lon="8.649026747832105"><ele>100.0</ele><time>2026-05-03T17:43:37.998Z</time></trkpt><trkpt lat="45.14442523858712" lon="8.649195521298834"><ele>100.0</ele><time>2026-05-03T17:43:38.998Z</time></trkpt><trkpt lat="45.144517779656994" lon="8.649364082137671"><ele>100.0</ele><time>2026-05-03T17:43:39.998Z</time></trkpt><trkpt lat="45.14460854471967" lon="8.649531781739073"><ele>99.75</ele><time>2026-05-03T17:43:40.998Z</time></trkpt><trkpt lat="45.144697974378516" lon="8.649694086331046"><ele>99.5</ele><time>2026-05-03T17:43:41.998Z</time></trkpt><trkpt lat="45.14478484658813" lon="8.649853619156668"><ele>99.25</ele><time>2026-05-03T17:43:42.998Z</time></trkpt><trkpt lat="45.14487752410608" lon="8.650018000575512"><ele>99.0</ele><time>2026-05-03T17:43:43.998Z</time></trkpt><trkpt lat="45.14497216859235" lon="8.650184641062111"><ele>99.0</ele><time>2026-05-03T17:43:44.998Z</time></trkpt><trkpt lat="45.14507097635053" lon="8.650355115734229"><ele>99.0</ele><time>2026-05-03T17:43:45.998Z</time></trkpt><trkpt lat="45.14516711058094" lon="8.650525680862849"><ele>99.0</ele><time>2026-05-03T17:43:46.998Z</time></trkpt><trkpt lat="45.14526249791779" lon="8.650696581217426"><ele>99.0</ele><time>2026-05-03T17:43:47.998Z</time></trkpt><trkpt lat="45.14535923470788" lon="8.650863477864254"><ele>99.0</ele><time>2026-05-03T17:43:48.998Z</time></trkpt><trkpt lat="45.14545754615176" lon="8.651034289331982"><ele>99.0</ele><time>2026-05-03T17:43:49.998Z</time></trkpt><trkpt lat="45.14555389414456" lon="8.651203356360261"><ele>99.33333333333334</ele><time>2026-05-03T17:43:50.998Z</time></trkpt><trkpt lat="45.14565006483445" lon="8.651373578076024"><ele>99.66666666666667</ele><time>2026-05-03T17:43:51.998Z</time></trkpt><trkpt lat="45.14574445530078" lon="8.651540212888982"><ele>100.0</ele><time>2026-05-03T17:43:52.998Z</time></trkpt><trkpt lat="45.14583689484301" lon="8.651706454353103"><ele>100.0</ele><time>2026-05-03T17:43:53.998Z</time></trkpt><trkpt lat="45.145931251637386" lon="8.651876023623606"><ele>100.0</ele><time>2026-05-03T17:43:54.998Z</time></trkpt><trkpt lat="45.14602493809995" lon="8.65204474386969"><ele>100.0</ele><time>2026-05-03T17:43:55.998Z</time></trkpt><trkpt lat="45.14612002507677" lon="8.652211925600952"><ele>100.0</ele><time>2026-05-03T17:43:56.998Z</time></trkpt><trkpt lat="45.14621323492594" lon="8.652380075883455"><ele>100.0</ele><time>2026-05-03T17:43:57.998Z</time></trkpt><trkpt lat="45.14630778552462" lon="8.652553238119067"><ele>100.0</ele><time>2026-05-03T17:43:58.998Z</time></trkpt><trkpt lat="45.14639979421696" lon="8.652730071535302"><ele>100.0</ele><time>2026-05-03T17:43:59.998Z</time></trkpt><trkpt lat="45.1464883043994" lon="8.652904430838033"><ele>100.0</ele><time>2026-05-03T17:44:00.998Z</time></trkpt><trkpt lat="45.146573040689304" lon="8.653085262066615"><ele>100.0</ele><time>2026-05-03T17:44:01.998Z</time></trkpt><trkpt lat="45.14665388995572" lon="8.653270240530782"><ele>100.0</ele><time>2026-05-03T17:44:02.998Z</time></trkpt><trkpt lat="45.14672964869247" lon="8.653458190393971"><ele>100.0</ele><time>2026-05-03T17:44:03.998Z</time></trkpt><trkpt lat="45.14680340759222" lon="8.653647856000758"><ele>100.0</ele><time>2026-05-03T17:44:04.998Z</time></trkpt><trkpt lat="45.14687407377345" lon="8.653840107749847"><ele>100.0</ele><time>2026-05-03T17:44:05.998Z</time></trkpt><trkpt lat="45.146937633122555" lon="8.654030523917662"><ele>100.0</ele><time>2026-05-03T17:44:06.998Z</time></trkpt><trkpt lat="45.146997365417356" lon="8.654216138235364"><ele>100.0</ele><time>2026-05-03T17:44:07.998Z</time></trkpt><trkpt lat="45.14705412061677" lon="8.65440424494409"><ele>100.0</ele><time>2026-05-03T17:44:08.998Z</time></trkpt><trkpt lat="45.1471052991341" lon="8.654593777810886"><ele>100.0</ele><time>2026-05-03T17:44:09.997Z</time></trkpt><trkpt lat="45.147161447017915" lon="8.654783413137732"><ele>100.0</ele><time>2026-05-03T17:44:10.997Z</time></trkpt><trkpt lat="45.14721448917341" lon="8.654972545962014"><ele>100.0</ele><time>2026-05-03T17:44:11.997Z</time></trkpt><trkpt lat="45.147260085650515" lon="8.655152188684212"><ele>100.0</ele><time>2026-05-03T17:44:12.997Z</time></trkpt><trkpt lat="45.14730263720619" lon="8.655330850196314"><ele>100.0</ele><time>2026-05-03T17:44:13.997Z</time></trkpt><trkpt lat="45.14734347754579" lon="8.655503769142275"><ele>100.0</ele><time>2026-05-03T17:44:14.997Z</time></trkpt><trkpt lat="45.14738835164976" lon="8.655672796713434"><ele>100.0</ele><time>2026-05-03T17:44:15.997Z</time></trkpt><trkpt lat="45.147446455355606" lon="8.655838961790694"><ele>100.0</ele><time>2026-05-03T17:44:16.997Z</time></trkpt><trkpt lat="45.14751553365423" lon="8.655995613408862"><ele>99.75</ele><time>2026-05-03T17:44:17.997Z</time></trkpt><trkpt lat="45.14758616726928" lon="8.656139851800962"><ele>99.5</ele><time>2026-05-03T17:44:18.997Z</time></trkpt><trkpt lat="45.14766323372055" lon="8.656279917890645"><ele>99.25</ele><time>2026-05-03T17:44:19.997Z</time></trkpt><trkpt lat="45.147739472008084" lon="8.656424114239265"><ele>99.0</ele><time>2026-05-03T17:44:20.997Z</time></trkpt><trkpt lat="45.14781644102186" lon="8.656568448657849"><ele>99.0</ele><time>2026-05-03T17:44:21.997Z</time></trkpt><trkpt lat="45.1478944042845" lon="8.656714458137191"><ele>99.0</ele><time>2026-05-03T17:44:22.997Z</time></trkpt><trkpt lat="45.14797118421082" lon="8.656862356453054"><ele>99.0</ele><time>2026-05-03T17:44:23.997Z</time></trkpt><trkpt lat="45.14804344213198" lon="8.657012039943357"><ele>99.0</ele><time>2026-05-03T17:44:24.997Z</time></trkpt><trkpt lat="45.1481121217415" lon="8.65716406895154"><ele>99.0</ele><time>2026-05-03T17:44:25.997Z</time></trkpt><trkpt lat="45.14818276730807" lon="8.657314203184201"><ele>99.0</ele><time>2026-05-03T17:44:26.997Z</time></trkpt><trkpt lat="45.14825353150919" lon="8.657466256701827"><ele>99.0</ele><time>2026-05-03T17:44:27.997Z</time></trkpt><trkpt lat="45.148322662609644" lon="8.657621894405256"><ele>99.0</ele><time>2026-05-03T17:44:28.997Z</time></trkpt><trkpt lat="45.14839293807099" lon="8.657782655079117"><ele>99.5</ele><time>2026-05-03T17:44:29.997Z</time></trkpt><trkpt lat="45.14846655450126" lon="8.657941032441979"><ele>100.0</ele><time>2026-05-03T17:44:30.997Z</time></trkpt><trkpt lat="45.14853952432847" lon="8.658099754004022"><ele>100.5</ele><time>2026-05-03T17:44:31.997Z</time></trkpt><trkpt lat="45.14861209705108" lon="8.658259003740815"><ele>101.0</ele><time>2026-05-03T17:44:32.997Z</time></trkpt><trkpt lat="45.14868315278978" lon="8.65841997543028"><ele>101.0</ele><time>2026-05-03T17:44:33.997Z</time></trkpt><trkpt lat="45.14875460010823" lon="8.658581890866495"><ele>101.0</ele><time>2026-05-03T17:44:34.997Z</time></trkpt><trkpt lat="45.14882330935638" lon="8.658747458388035"><ele>101.0</ele><time>2026-05-03T17:44:36Z</time></trkpt><trkpt lat="45.1488905114967" lon="8.658918724569261"><ele>101.0</ele><time>2026-05-03T17:44:37Z</time></trkpt><trkpt lat="45.148953641903354" lon="8.659094597117205"><ele>101.0</ele><time>2026-05-03T17:44:38Z</time></trkpt><trkpt lat="45.14901571676685" lon="8.659269330318041"><ele>101.0</ele><time>2026-05-03T17:44:39Z</time></trkpt><trkpt lat="45.149072588290984" lon="8.659438119963243"><ele>101.0</ele><time>2026-05-03T17:44:40Z</time></trkpt><trkpt lat="45.14912373241198" lon="8.659606294438962"><ele>101.0</ele><time>2026-05-03T17:44:41Z</time></trkpt><trkpt lat="45.1491735313945" lon="8.659771876037595"><ele>101.0</ele><time>2026-05-03T17:44:42Z</time></trkpt><trkpt lat="45.14922751946507" lon="8.659930203269202"><ele>101.0</ele><time>2026-05-03T17:44:43Z</time></trkpt><trkpt lat="45.14928252929485" lon="8.660077143482509"><ele>101.0</ele><time>2026-05-03T17:44:44Z</time></trkpt><trkpt lat="45.1493435887896" lon="8.66021933810919"><ele>101.0</ele><time>2026-05-03T17:44:45Z</time></trkpt><trkpt lat="45.1494043022909" lon="8.660363560220073"><ele>101.0</ele><time>2026-05-03T17:44:46Z</time></trkpt><trkpt lat="45.149458304771834" lon="8.660497557805764"><ele>101.0</ele><time>2026-05-03T17:44:47Z</time></trkpt><trkpt lat="45.149506104069935" lon="8.660614344242664"><ele>101.0</ele><time>2026-05-03T17:44:48Z</time></trkpt><trkpt lat="45.149546141941116" lon="8.660704556759427"><ele>101.0</ele><time>2026-05-03T17:44:49Z</time></trkpt><trkpt lat="45.149585286209415" lon="8.66081747626834"><ele>101.0</ele><time>2026-05-03T17:44:51Z</time></trkpt><trkpt lat="45.14962984107443" lon="8.660937760877442"><ele>100.99999999999999</ele><time>2026-05-03T17:44:53Z</time></trkpt><trkpt lat="45.149657106800696" lon="8.66103539945679"><ele>101.0</ele><time>2026-05-03T17:44:54Z</time></trkpt><trkpt lat="45.149676548458054" lon="8.661147648794193"><ele>101.0</ele><time>2026-05-03T17:44:55Z</time></trkpt><trkpt lat="45.14969662608502" lon="8.661272772691541"><ele>101.0</ele><time>2026-05-03T17:44:56Z</time></trkpt><trkpt lat="45.149719754239705" lon="8.661402947074976"><ele>100.99999999999999</ele><time>2026-05-03T17:44:57Z</time></trkpt><trkpt lat="45.14974069983588" lon="8.66154107682251"><ele>101.0</ele><time>2026-05-03T17:44:58Z</time></trkpt><trkpt lat="45.14976342823684" lon="8.661693572106513"><ele>101.25</ele><time>2026-05-03T17:44:59Z</time></trkpt><trkpt lat="45.1497896291941" lon="8.661852769528792"><ele>101.5</ele><time>2026-05-03T17:45:00Z</time></trkpt><trkpt lat="45.14981484205656" lon="8.66201081595795"><ele>101.75</ele><time>2026-05-03T17:45:01Z</time></trkpt><trkpt lat="45.14984279887865" lon="8.66217144236226"><ele>102.0</ele><time>2026-05-03T17:45:02Z</time></trkpt><trkpt lat="45.14987354355399" lon="8.66231943136245"><ele>102.19999999999999</ele><time>2026-05-03T17:45:03Z</time></trkpt><trkpt lat="45.14989548812497" lon="8.662463005062506"><ele>102.4</ele><time>2026-05-03T17:45:04Z</time></trkpt><trkpt lat="45.14992629403986" lon="8.662589061006127"><ele>102.6</ele><time>2026-05-03T17:45:05Z</time></trkpt><trkpt lat="45.149956140947" lon="8.662708391232544"><ele>102.80000000000001</ele><time>2026-05-03T17:45:06Z</time></trkpt><trkpt lat="45.14998408245199" lon="8.662820103425581"><ele>103.0</ele><time>2026-05-03T17:45:06.999Z</time></trkpt><trkpt lat="45.15002784378763" lon="8.662936585391984"><ele>103.00000000000001</ele><time>2026-05-03T17:45:07.999Z</time></trkpt><trkpt lat="45.15005737201475" lon="8.6630629194478"><ele>103.0</ele><time>2026-05-03T17:45:08.999Z</time></trkpt><trkpt lat="45.15006998661812" lon="8.663186445593489"><ele>103.0</ele><time>2026-05-03T17:45:09.999Z</time></trkpt><trkpt lat="45.15009621734321" lon="8.66329887711075"><ele>103.0</ele><time>2026-05-03T17:45:10.999Z</time></trkpt><trkpt lat="45.15012572093444" lon="8.663400856548067"><ele>103.00000000000001</ele><time>2026-05-03T17:45:11.999Z</time></trkpt><trkpt lat="45.15015484903081" lon="8.663490786034112"><ele>103.0</ele><time>2026-05-03T17:45:12.999Z</time></trkpt><trkpt lat="45.15020623303325" lon="8.6636445654165"><ele>103.0</ele><time>2026-05-03T17:45:14.999Z</time></trkpt><trkpt lat="45.150274478211536" lon="8.663748531033443"><ele>103.0</ele><time>2026-05-03T17:45:16.999Z</time></trkpt><trkpt lat="45.150391015180084" lon="8.663764999020982"><ele>103.0</ele><time>2026-05-03T17:45:18.999Z</time></trkpt><trkpt lat="45.15045579515222" lon="8.663713111421716"><ele>103.0</ele><time>2026-05-03T17:45:19.999Z</time></trkpt><trkpt lat="45.15052417424653" lon="8.663629464401225"><ele>103.0</ele><time>2026-05-03T17:45:20.999Z</time></trkpt><trkpt lat="45.150585573556256" lon="8.663569020987701"><ele>103.00000000000001</ele><time>2026-05-03T17:45:21.999Z</time></trkpt><trkpt lat="45.15066127120529" lon="8.663520199573341"><ele>103.0</ele><time>2026-05-03T17:45:22.999Z</time></trkpt><trkpt lat="45.15074475718209" lon="8.66347344618278"><ele>103.0</ele><time>2026-05-03T17:45:23.999Z</time></trkpt><trkpt lat="45.15083523958082" lon="8.663443238514647"><ele>103.0</ele><time>2026-05-03T17:45:24.999Z</time></trkpt><trkpt lat="45.150919080744806" lon="8.663441988552119"><ele>103.00000000000001</ele><time>2026-05-03T17:45:25.999Z</time></trkpt><trkpt lat="45.15100584869393" lon="8.663457380719596"><ele>103.0</ele><time>2026-05-03T17:45:26.999Z</time></trkpt><trkpt lat="45.15107214350854" lon="8.663503489318996"><ele>103.00000000000001</ele><time>2026-05-03T17:45:27.999Z</time></trkpt><trkpt lat="45.15114409914386" lon="8.663548332280294"><ele>103.0</ele><time>2026-05-03T17:45:28.999Z</time></trkpt><trkpt lat="45.15120482469229" lon="8.663608063182666"><ele>103.0</ele><time>2026-05-03T17:45:29.999Z</time></trkpt><trkpt lat="45.151255697338684" lon="8.663689997108555"><ele>103.0</ele><time>2026-05-03T17:45:30.999Z</time></trkpt><trkpt lat="45.15130568654107" lon="8.663801369797167"><ele>103.00000000000001</ele><time>2026-05-03T17:45:31.999Z</time></trkpt><trkpt lat="45.15134792386308" lon="8.663933405474651"><ele>103.0</ele><time>2026-05-03T17:45:32.999Z</time></trkpt><trkpt lat="45.151392358990016" lon="8.664068171095051"><ele>103.16666666666667</ele><time>2026-05-03T17:45:33.999Z</time></trkpt><trkpt lat="45.15143197845021" lon="8.66418595918777"><ele>103.33333333333334</ele><time>2026-05-03T17:45:34.999Z</time></trkpt><trkpt lat="45.15147138882962" lon="8.664292044428917"><ele>103.5</ele><time>2026-05-03T17:45:35.999Z</time></trkpt><trkpt lat="45.151498945899746" lon="8.66437298694951"><ele>103.66666666666666</ele><time>2026-05-03T17:45:36.999Z</time></trkpt><trkpt lat="45.15153290622522" lon="8.664449378104159"><ele>103.83333333333333</ele><time>2026-05-03T17:45:38.999Z</time></trkpt><trkpt lat="45.151613402080265" lon="8.66460540312052"><ele>104.0</ele><time>2026-05-03T17:45:40.998Z</time></trkpt><trkpt lat="45.151667909098684" lon="8.664699857691769"><ele>103.80000000000001</ele><time>2026-05-03T17:45:41.998Z</time></trkpt><trkpt lat="45.15172535121006" lon="8.664805619403765"><ele>103.60000000000001</ele><time>2026-05-03T17:45:42.998Z</time></trkpt><trkpt lat="45.15178202328802" lon="8.66492382878168"><ele>103.4</ele><time>2026-05-03T17:45:43.998Z</time></trkpt><trkpt lat="45.15183795136931" lon="8.66504124483777"><ele>103.2</ele><time>2026-05-03T17:45:44.998Z</time></trkpt><trkpt lat="45.15190312679176" lon="8.665164627631812"><ele>103.0</ele><time>2026-05-03T17:45:45.998Z</time></trkpt><trkpt lat="45.151973600222654" lon="8.665284240491355"><ele>103.00000000000001</ele><time>2026-05-03T17:45:46.998Z</time></trkpt><trkpt lat="45.15202947003205" lon="8.6653925840808"><ele>103.0</ele><time>2026-05-03T17:45:47.998Z</time></trkpt><trkpt lat="45.15207887125672" lon="8.665490399368077"><ele>103.0</ele><time>2026-05-03T17:45:48.998Z</time></trkpt><trkpt lat="45.15212434110316" lon="8.66557492656845"><ele>103.0</ele><time>2026-05-03T17:45:49.998Z</time></trkpt><trkpt lat="45.15219647593552" lon="8.665650079337405"><ele>103.00000000000001</ele><time>2026-05-03T17:45:50.998Z</time></trkpt><trkpt lat="45.15227689259772" lon="8.665721923060998"><ele>103.0</ele><time>2026-05-03T17:45:51.998Z</time></trkpt><trkpt lat="45.152366667643165" lon="8.665782031552068"><ele>102.83333333333334</ele><time>2026-05-03T17:45:52.998Z</time></trkpt><trkpt lat="45.152442332947096" lon="8.665837366832813"><ele>102.66666666666667</ele><time>2026-05-03T17:45:53.998Z</time></trkpt><trkpt lat="45.152511917030985" lon="8.665900867123138"><ele>102.5</ele><time>2026-05-03T17:45:54.998Z</time></trkpt><trkpt lat="45.15258348049315" lon="8.665957290246713"><ele>102.33333333333334</ele><time>2026-05-03T17:45:55.998Z</time></trkpt><trkpt lat="45.1526577319063" lon="8.665983804895363"><ele>102.16666666666667</ele><time>2026-05-03T17:45:56.998Z</time></trkpt><trkpt lat="45.15274868713355" lon="8.665983549865823"><ele>102.0</ele><time>2026-05-03T17:45:57.998Z</time></trkpt><trkpt lat="45.152843454892825" lon="8.66596943887652"><ele>102.0</ele><time>2026-05-03T17:45:58.998Z</time></trkpt><trkpt lat="45.15294867618673" lon="8.665947766273593"><ele>102.0</ele><time>2026-05-03T17:45:59.998Z</time></trkpt><trkpt lat="45.15305170085763" lon="8.665941382300344"><ele>102.0</ele><time>2026-05-03T17:46:00.998Z</time></trkpt><trkpt lat="45.15315292943012" lon="8.66594318899766"><ele>102.0</ele><time>2026-05-03T17:46:01.998Z</time></trkpt><trkpt lat="45.1532601476114" lon="8.665941080407563"><ele>102.0</ele><time>2026-05-03T17:46:02.998Z</time></trkpt><trkpt lat="45.153373190557794" lon="8.665940156272049"><ele>102.0</ele><time>2026-05-03T17:46:03.998Z</time></trkpt><trkpt lat="45.15348229418493" lon="8.665935698025292"><ele>102.0</ele><time>2026-05-03T17:46:04.998Z</time></trkpt><trkpt lat="45.15359529799612" lon="8.665931042885031"><ele>102.0</ele><time>2026-05-03T17:46:05.998Z</time></trkpt><trkpt lat="45.15371483224062" lon="8.665928425258556"><ele>102.0</ele><time>2026-05-03T17:46:06.998Z</time></trkpt><trkpt lat="45.15383685091638" lon="8.665929578512744"><ele>102.0</ele><time>2026-05-03T17:46:07.998Z</time></trkpt><trkpt lat="45.153962026360034" lon="8.665933366386469"><ele>102.0</ele><time>2026-05-03T17:46:08.998Z</time></trkpt><trkpt lat="45.154075628615324" lon="8.665931553893229"><ele>102.0</ele><time>2026-05-03T17:46:09.998Z</time></trkpt><trkpt lat="45.15419017084869" lon="8.665911597556262"><ele>102.0</ele><time>2026-05-03T17:46:10.998Z</time></trkpt><trkpt lat="45.154296949024825" lon="8.66590288020075"><ele>102.0</ele><time>2026-05-03T17:46:11.998Z</time></trkpt><trkpt lat="45.15439765027797" lon="8.665898411774346"><ele>102.0</ele><time>2026-05-03T17:46:12.998Z</time></trkpt><trkpt lat="45.15449108780885" lon="8.66589386350694"><ele>102.0</ele><time>2026-05-03T17:46:13.997Z</time></trkpt><trkpt lat="45.15457218671914" lon="8.665894374830936"><ele>102.0</ele><time>2026-05-03T17:46:14.997Z</time></trkpt><trkpt lat="45.15467359968436" lon="8.665915124243353"><ele>102.0</ele><time>2026-05-03T17:46:16.997Z</time></trkpt><trkpt lat="45.15473827231619" lon="8.665956613730128"><ele>102.0</ele><time>2026-05-03T17:46:17.997Z</time></trkpt><trkpt lat="45.1547773226617" lon="8.6660316137283"><ele>102.0</ele><time>2026-05-03T17:46:18.997Z</time></trkpt><trkpt lat="45.15488300363178" lon="8.66598248170912"><ele>102.0</ele><time>2026-05-03T17:46:19.997Z</time></trkpt><trkpt lat="45.154966728718136" lon="8.665951713905427"><ele>102.0</ele><time>2026-05-03T17:46:20.997Z</time></trkpt><trkpt lat="45.15505931047132" lon="8.665912582474059"><ele>102.0</ele><time>2026-05-03T17:46:21.997Z</time></trkpt><trkpt lat="45.15516262862475" lon="8.665885973447102"><ele>102.0</ele><time>2026-05-03T17:46:22.997Z</time></trkpt><trkpt lat="45.15527365080417" lon="8.66587601769479"><ele>102.0</ele><time>2026-05-03T17:46:23.997Z</time></trkpt><trkpt lat="45.155395537383924" lon="8.665871593148376"><ele>102.0</ele><time>2026-05-03T17:46:24.997Z</time></trkpt><trkpt lat="45.15551932641909" lon="8.665873950988205"><ele>102.0</ele><time>2026-05-03T17:46:25.997Z</time></trkpt><trkpt lat="45.15564660848495" lon="8.665868093476195"><ele>102.0</ele><time>2026-05-03T17:46:26.997Z</time></trkpt><trkpt lat="45.15577665183095" lon="8.66586030935278"><ele>101.5</ele><time>2026-05-03T17:46:27.997Z</time></trkpt><trkpt lat="45.15591064515733" lon="8.665854692837135"><ele>101.0</ele><time>2026-05-03T17:46:28.997Z</time></trkpt><trkpt lat="45.15605140435461" lon="8.665851389686946"><ele>100.5</ele><time>2026-05-03T17:46:29.997Z</time></trkpt><trkpt lat="45.15619092340318" lon="8.665848190715757"><ele>100.0</ele><time>2026-05-03T17:46:30.997Z</time></trkpt><trkpt lat="45.156327382152696" lon="8.665847991842003"><ele>100.0</ele><time>2026-05-03T17:46:31.997Z</time></trkpt><trkpt lat="45.15646460650793" lon="8.665845028385089"><ele>100.0</ele><time>2026-05-03T17:46:32.997Z</time></trkpt><trkpt lat="45.156604324204" lon="8.665838568946203"><ele>100.0</ele><time>2026-05-03T17:46:33.997Z</time></trkpt><trkpt lat="45.15674014607724" lon="8.665836153025898"><ele>100.0</ele><time>2026-05-03T17:46:34.997Z</time></trkpt><trkpt lat="45.15687814934308" lon="8.665836541517509"><ele>100.0</ele><time>2026-05-03T17:46:35.997Z</time></trkpt><trkpt lat="45.15701333189213" lon="8.66583041249587"><ele>100.0</ele><time>2026-05-03T17:46:36.997Z</time></trkpt><trkpt lat="45.15715336811229" lon="8.665825520051786"><ele>100.0</ele><time>2026-05-03T17:46:37.997Z</time></trkpt><trkpt lat="45.15729562838144" lon="8.66582056896038"><ele>100.0</ele><time>2026-05-03T17:46:38.997Z</time></trkpt><trkpt lat="45.15743716660487" lon="8.665817189085812"><ele>100.25</ele><time>2026-05-03T17:46:39.997Z</time></trkpt><trkpt lat="45.157578152361275" lon="8.665809192973594"><ele>100.5</ele><time>2026-05-03T17:46:40.997Z</time></trkpt><trkpt lat="45.15771876175043" lon="8.665803304650622"><ele>100.75</ele><time>2026-05-03T17:46:42Z</time></trkpt><trkpt lat="45.15785314897861" lon="8.665800315772499"><ele>101.0</ele><time>2026-05-03T17:46:43Z</time></trkpt><trkpt lat="45.1579829871098" lon="8.665800215219374"><ele>101.0</ele><time>2026-05-03T17:46:44Z</time></trkpt><trkpt lat="45.158121372704706" lon="8.665794972243042"><ele>101.0</ele><time>2026-05-03T17:46:45Z</time></trkpt><trkpt lat="45.158260065556796" lon="8.665792066123501"><ele>101.0</ele><time>2026-05-03T17:46:46Z</time></trkpt><trkpt lat="45.15840024079726" lon="8.665786082129323"><ele>101.0</ele><time>2026-05-03T17:46:47Z</time></trkpt><trkpt lat="45.15854291961705" lon="8.665783422995418"><ele>101.0</ele><time>2026-05-03T17:46:48Z</time></trkpt><trkpt lat="45.158684340089295" lon="8.665778412699723"><ele>101.0</ele><time>2026-05-03T17:46:49Z</time></trkpt><trkpt lat="45.15882258297414" lon="8.665773197361684"><ele>101.0</ele><time>2026-05-03T17:46:50Z</time></trkpt><trkpt lat="45.15896037638562" lon="8.66576968501824"><ele>101.0</ele><time>2026-05-03T17:46:51Z</time></trkpt><trkpt lat="45.159097643812736" lon="8.66576517071397"><ele>101.5</ele><time>2026-05-03T17:46:52Z</time></trkpt><trkpt lat="45.15923443850952" lon="8.665758668022027"><ele>102.0</ele><time>2026-05-03T17:46:53Z</time></trkpt><trkpt lat="45.159368945181605" lon="8.665753106143379"><ele>102.5</ele><time>2026-05-03T17:46:54Z</time></trkpt><trkpt lat="45.15950580764317" lon="8.665746931374935"><ele>103.0</ele><time>2026-05-03T17:46:55Z</time></trkpt><trkpt lat="45.15964380237978" lon="8.66573870093473"><ele>103.0</ele><time>2026-05-03T17:46:56Z</time></trkpt><trkpt lat="45.159776919053606" lon="8.665734136368643"><ele>103.0</ele><time>2026-05-03T17:46:57Z</time></trkpt><trkpt lat="45.15991133321458" lon="8.66573333530188"><ele>103.0</ele><time>2026-05-03T17:46:58Z</time></trkpt><trkpt lat="45.16004862660554" lon="8.665728618579921"><ele>103.0</ele><time>2026-05-03T17:46:59Z</time></trkpt><trkpt lat="45.160187158673324" lon="8.665722357746933"><ele>102.75</ele><time>2026-05-03T17:47:00Z</time></trkpt><trkpt lat="45.16032609502659" lon="8.665718037587334"><ele>102.5</ele><time>2026-05-03T17:47:01Z</time></trkpt><trkpt lat="45.16046527472223" lon="8.665713312837834"><ele>102.25</ele><time>2026-05-03T17:47:02Z</time></trkpt><trkpt lat="45.16060507167755" lon="8.665711138439352"><ele>102.0</ele><time>2026-05-03T17:47:03Z</time></trkpt><trkpt lat="45.16073703736749" lon="8.665707775479666"><ele>102.0</ele><time>2026-05-03T17:47:04Z</time></trkpt><trkpt lat="45.16086285518842" lon="8.665703344807323"><ele>102.0</ele><time>2026-05-03T17:47:05Z</time></trkpt><trkpt lat="45.160987509452426" lon="8.66569798914396"><ele>102.0</ele><time>2026-05-03T17:47:06Z</time></trkpt><trkpt lat="45.16111992220425" lon="8.665694079871809"><ele>102.0</ele><time>2026-05-03T17:47:07Z</time></trkpt><trkpt lat="45.161250581183" lon="8.665688359086408"><ele>102.0</ele><time>2026-05-03T17:47:08Z</time></trkpt><trkpt lat="45.16138442884766" lon="8.665687312830425"><ele>102.0</ele><time>2026-05-03T17:47:09Z</time></trkpt><trkpt lat="45.16152101809946" lon="8.665686661287003"><ele>102.0</ele><time>2026-05-03T17:47:10Z</time></trkpt><trkpt lat="45.16165778715889" lon="8.665680964757906"><ele>102.0</ele><time>2026-05-03T17:47:11Z</time></trkpt><trkpt lat="45.1617929857542" lon="8.665677471509012"><ele>102.25</ele><time>2026-05-03T17:47:12Z</time></trkpt><trkpt lat="45.16192204601092" lon="8.665671685105757"><ele>102.5</ele><time>2026-05-03T17:47:12.999Z</time></trkpt><trkpt lat="45.162058532798376" lon="8.665667594310447"><ele>102.75</ele><time>2026-05-03T17:47:13.999Z</time></trkpt><trkpt lat="45.162196229106186" lon="8.665662015961134"><ele>103.0</ele><time>2026-05-03T17:47:14.999Z</time></trkpt><trkpt lat="45.16233500550775" lon="8.66565686252354"><ele>102.5</ele><time>2026-05-03T17:47:15.999Z</time></trkpt><trkpt lat="45.16247336033714" lon="8.665652703466105"><ele>102.0</ele><time>2026-05-03T17:47:16.999Z</time></trkpt><trkpt lat="45.16260923922464" lon="8.665646825124545"><ele>101.5</ele><time>2026-05-03T17:47:17.999Z</time></trkpt><trkpt lat="45.16274444446722" lon="8.665641157118102"><ele>101.0</ele><time>2026-05-03T17:47:18.999Z</time></trkpt><trkpt lat="45.16288354345256" lon="8.665638112869141"><ele>101.0</ele><time>2026-05-03T17:47:19.999Z</time></trkpt><trkpt lat="45.16302087668446" lon="8.66563226246764"><ele>101.0</ele><time>2026-05-03T17:47:20.999Z</time></trkpt><trkpt lat="45.16315778679931" lon="8.665627121465565"><ele>101.0</ele><time>2026-05-03T17:47:21.999Z</time></trkpt><trkpt lat="45.163297521079635" lon="8.665623891630382"><ele>101.0</ele><time>2026-05-03T17:47:22.999Z</time></trkpt><trkpt lat="45.163439207689855" lon="8.665620544452665"><ele>100.75</ele><time>2026-05-03T17:47:23.999Z</time></trkpt><trkpt lat="45.1635848183697" lon="8.66561409515336"><ele>100.5</ele><time>2026-05-03T17:47:24.999Z</time></trkpt><trkpt lat="45.163735590589944" lon="8.665607666625213"><ele>100.25</ele><time>2026-05-03T17:47:25.999Z</time></trkpt><trkpt lat="45.163886718707396" lon="8.665605248911918"><ele>100.0</ele><time>2026-05-03T17:47:26.999Z</time></trkpt><trkpt lat="45.16404381566226" lon="8.665597696640912"><ele>100.0</ele><time>2026-05-03T17:47:27.999Z</time></trkpt><trkpt lat="45.16420153745162" lon="8.665592991265655"><ele>100.0</ele><time>2026-05-03T17:47:28.999Z</time></trkpt><trkpt lat="45.164362079786386" lon="8.665587955698038"><ele>100.0</ele><time>2026-05-03T17:47:29.999Z</time></trkpt><trkpt lat="45.16452767573783" lon="8.665582786197922"><ele>100.0</ele><time>2026-05-03T17:47:30.999Z</time></trkpt><trkpt lat="45.16469239372956" lon="8.665574645167935"><ele>100.0</ele><time>2026-05-03T17:47:31.999Z</time></trkpt><trkpt lat="45.16485720253402" lon="8.665570297939968"><ele>100.0</ele><time>2026-05-03T17:47:32.999Z</time></trkpt><trkpt lat="45.16502179381614" lon="8.66556541156638"><ele>100.0</ele><time>2026-05-03T17:47:33.999Z</time></trkpt><trkpt lat="45.16518500392211" lon="8.665560858350263"><ele>100.0</ele><time>2026-05-03T17:47:34.999Z</time></trkpt><trkpt lat="45.165346525673115" lon="8.665554748886096"><ele>100.0</ele><time>2026-05-03T17:47:35.999Z</time></trkpt><trkpt lat="45.165508166380626" lon="8.665548513598159"><ele>100.0</ele><time>2026-05-03T17:47:36.999Z</time></trkpt><trkpt lat="45.16566930754699" lon="8.665545793859371"><ele>100.0</ele><time>2026-05-03T17:47:37.999Z</time></trkpt><trkpt lat="45.16583225055019" lon="8.665537676503314"><ele>100.0</ele><time>2026-05-03T17:47:38.999Z</time></trkpt><trkpt lat="45.16599629925463" lon="8.6655306960128"><ele>100.0</ele><time>2026-05-03T17:47:39.999Z</time></trkpt><trkpt lat="45.16616313587171" lon="8.665525240503095"><ele>100.0</ele><time>2026-05-03T17:47:40.999Z</time></trkpt><trkpt lat="45.166328806566014" lon="8.66552421245983"><ele>100.0</ele><time>2026-05-03T17:47:41.999Z</time></trkpt><trkpt lat="45.1664920234966" lon="8.665522280251817"><ele>100.0</ele><time>2026-05-03T17:47:42.999Z</time></trkpt><trkpt lat="45.16665634002406" lon="8.665517572529886"><ele>100.0</ele><time>2026-05-03T17:47:43.999Z</time></trkpt><trkpt lat="45.166813422087095" lon="8.66550859473856"><ele>100.0</ele><time>2026-05-03T17:47:44.999Z</time></trkpt><trkpt lat="45.16697710010426" lon="8.665501254034417"><ele>100.0</ele><time>2026-05-03T17:47:45.999Z</time></trkpt><trkpt lat="45.16714262932065" lon="8.665497113274744"><ele>100.0</ele><time>2026-05-03T17:47:46.998Z</time></trkpt><trkpt lat="45.167307273330756" lon="8.665492615177692"><ele>100.0</ele><time>2026-05-03T17:47:47.998Z</time></trkpt><trkpt lat="45.167467876651926" lon="8.665489133101975"><ele>100.0</ele><time>2026-05-03T17:47:48.998Z</time></trkpt><trkpt lat="45.167630030547166" lon="8.665483460175532"><ele>100.0</ele><time>2026-05-03T17:47:49.998Z</time></trkpt><trkpt lat="45.1677916060891" lon="8.665477268673614"><ele>100.0</ele><time>2026-05-03T17:47:50.998Z</time></trkpt><trkpt lat="45.16795714714245" lon="8.665471254275884"><ele>100.0</ele><time>2026-05-03T17:47:51.998Z</time></trkpt><trkpt lat="45.16811834925429" lon="8.6654646948766"><ele>100.0</ele><time>2026-05-03T17:47:52.998Z</time></trkpt><trkpt lat="45.168281242188804" lon="8.665460930218522"><ele>100.0</ele><time>2026-05-03T17:47:53.998Z</time></trkpt><trkpt lat="45.16843982639741" lon="8.665458760088871"><ele>99.66666666666667</ele><time>2026-05-03T17:47:54.998Z</time></trkpt><trkpt lat="45.16859627471561" lon="8.665455869734108"><ele>99.33333333333334</ele><time>2026-05-03T17:47:55.998Z</time></trkpt><trkpt lat="45.16875468349358" lon="8.66544868460904"><ele>99.0</ele><time>2026-05-03T17:47:56.998Z</time></trkpt><trkpt lat="45.16891306483725" lon="8.665440464786412"><ele>99.33333333333334</ele><time>2026-05-03T17:47:57.998Z</time></trkpt><trkpt lat="45.16907432720338" lon="8.665433683874529"><ele>99.66666666666667</ele><time>2026-05-03T17:47:58.998Z</time></trkpt><trkpt lat="45.16923036840611" lon="8.665421900474874"><ele>100.0</ele><time>2026-05-03T17:47:59.998Z</time></trkpt><trkpt lat="45.1693913578224" lon="8.665414787726045"><ele>100.0</ele><time>2026-05-03T17:48:00.998Z</time></trkpt><trkpt lat="45.169555025411526" lon="8.665414425535323"><ele>100.0</ele><time>2026-05-03T17:48:01.998Z</time></trkpt><trkpt lat="45.16971710000159" lon="8.665411639790426"><ele>100.0</ele><time>2026-05-03T17:48:02.998Z</time></trkpt><trkpt lat="45.16987798486661" lon="8.66540778399643"><ele>100.0</ele><time>2026-05-03T17:48:03.998Z</time></trkpt><trkpt lat="45.17003968310345" lon="8.665402185128436"><ele>100.0</ele><time>2026-05-03T17:48:04.998Z</time></trkpt><trkpt lat="45.17020302221169" lon="8.665396468337738"><ele>100.0</ele><time>2026-05-03T17:48:05.998Z</time></trkpt><trkpt lat="45.170362528312275" lon="8.665395427944441"><ele>100.0</ele><time>2026-05-03T17:48:06.998Z</time></trkpt><trkpt lat="45.17052348301751" lon="8.665390574651155"><ele>100.0</ele><time>2026-05-03T17:48:07.998Z</time></trkpt><trkpt lat="45.1706839317908" lon="8.665385150072037"><ele>100.0</ele><time>2026-05-03T17:48:08.998Z</time></trkpt><trkpt lat="45.17084320027315" lon="8.665379922933028"><ele>99.66666666666667</ele><time>2026-05-03T17:48:09.998Z</time></trkpt><trkpt lat="45.171004356140415" lon="8.665373275185887"><ele>99.33333333333334</ele><time>2026-05-03T17:48:10.998Z</time></trkpt><trkpt lat="45.171162285699886" lon="8.66537101056307"><ele>99.0</ele><time>2026-05-03T17:48:11.998Z</time></trkpt><trkpt lat="45.17132009304586" lon="8.66536455289074"><ele>99.0</ele><time>2026-05-03T17:48:12.998Z</time></trkpt><trkpt lat="45.171479516473084" lon="8.66535434955091"><ele>99.0</ele><time>2026-05-03T17:48:13.998Z</time></trkpt><trkpt lat="45.17163725258611" lon="8.665348971543917"><ele>99.0</ele><time>2026-05-03T17:48:14.998Z</time></trkpt><trkpt lat="45.17179659332312" lon="8.665343229347613"><ele>99.33333333333334</ele><time>2026-05-03T17:48:15.998Z</time></trkpt><trkpt lat="45.1719535498747" lon="8.665341067544174"><ele>99.66666666666667</ele><time>2026-05-03T17:48:16.998Z</time></trkpt><trkpt lat="45.172109462355046" lon="8.665338008475088"><ele>100.0</ele><time>2026-05-03T17:48:17.998Z</time></trkpt><trkpt lat="45.1722631998465" lon="8.665332564855433"><ele>100.33333333333334</ele><time>2026-05-03T17:48:18.998Z</time></trkpt><trkpt lat="45.17241507964726" lon="8.665327942703264"><ele>100.66666666666666</ele><time>2026-05-03T17:48:19.998Z</time></trkpt><trkpt lat="45.17256774699656" lon="8.665321782906622"><ele>101.0</ele><time>2026-05-03T17:48:20.997Z</time></trkpt><trkpt lat="45.17272021469769" lon="8.665318002197148"><ele>101.0</ele><time>2026-05-03T17:48:21.997Z</time></trkpt><trkpt lat="45.17287266936407" lon="8.665311746193517"><ele>101.0</ele><time>2026-05-03T17:48:22.997Z</time></trkpt><trkpt lat="45.17302391715291" lon="8.665306891640407"><ele>101.0</ele><time>2026-05-03T17:48:23.997Z</time></trkpt><trkpt lat="45.17317591556224" lon="8.665302899519844"><ele>101.33333333333333</ele><time>2026-05-03T17:48:24.997Z</time></trkpt><trkpt lat="45.17332600335654" lon="8.66529877688655"><ele>101.66666666666666</ele><time>2026-05-03T17:48:25.997Z</time></trkpt><trkpt lat="45.17347657508468" lon="8.665293794943596"><ele>102.0</ele><time>2026-05-03T17:48:26.997Z</time></trkpt><trkpt lat="45.17362734464744" lon="8.665287368691189"><ele>102.0</ele><time>2026-05-03T17:48:27.997Z</time></trkpt><trkpt lat="45.173776871092606" lon="8.665283469946598"><ele>102.0</ele><time>2026-05-03T17:48:28.997Z</time></trkpt><trkpt lat="45.17392592845033" lon="8.665279940229286"><ele>102.0</ele><time>2026-05-03T17:48:29.997Z</time></trkpt><trkpt lat="45.174074947049455" lon="8.665275757485285"><ele>102.0</ele><time>2026-05-03T17:48:30.997Z</time></trkpt><trkpt lat="45.174225465843904" lon="8.665270550700956"><ele>101.75</ele><time>2026-05-03T17:48:31.997Z</time></trkpt><trkpt lat="45.174375463790966" lon="8.665265997857013"><ele>101.5</ele><time>2026-05-03T17:48:32.997Z</time></trkpt><trkpt lat="45.174524814194115" lon="8.665260044841144"><ele>101.25</ele><time>2026-05-03T17:48:33.997Z</time></trkpt><trkpt lat="45.17467418722412" lon="8.66525529398552"><ele>101.0</ele><time>2026-05-03T17:48:34.997Z</time></trkpt><trkpt lat="45.174822759932425" lon="8.665253364872925"><ele>101.0</ele><time>2026-05-03T17:48:35.997Z</time></trkpt><trkpt lat="45.174971345404316" lon="8.665249915258704"><ele>101.0</ele><time>2026-05-03T17:48:36.997Z</time></trkpt><trkpt lat="45.17512165581861" lon="8.66524707312932"><ele>101.0</ele><time>2026-05-03T17:48:37.997Z</time></trkpt><trkpt lat="45.17527212409724" lon="8.665242031242977"><ele>101.0</ele><time>2026-05-03T17:48:38.997Z</time></trkpt><trkpt lat="45.17542260593543" lon="8.665239258267317"><ele>101.0</ele><time>2026-05-03T17:48:39.997Z</time></trkpt><trkpt lat="45.17557282078637" lon="8.665234931863738"><ele>101.0</ele><time>2026-05-03T17:48:40.997Z</time></trkpt><trkpt lat="45.17572220808384" lon="8.66523117071023"><ele>101.0</ele><time>2026-05-03T17:48:41.997Z</time></trkpt><trkpt lat="45.175873542612294" lon="8.665224946466028"><ele>101.0</ele><time>2026-05-03T17:48:42.997Z</time></trkpt><trkpt lat="45.1760236927382" lon="8.665219533640382"><ele>101.0</ele><time>2026-05-03T17:48:43.997Z</time></trkpt><trkpt lat="45.17617518735151" lon="8.66521260866391"><ele>101.0</ele><time>2026-05-03T17:48:44.997Z</time></trkpt><trkpt lat="45.17632737468304" lon="8.665205684502789"><ele>101.0</ele><time>2026-05-03T17:48:45.997Z</time></trkpt><trkpt lat="45.17647936916588" lon="8.66520119242229"><ele>101.0</ele><time>2026-05-03T17:48:46.997Z</time></trkpt><trkpt lat="45.17663466093775" lon="8.665194553854134"><ele>101.0</ele><time>2026-05-03T17:48:48Z</time></trkpt><trkpt lat="45.17678829148834" lon="8.665191191858423"><ele>101.33333333333333</ele><time>2026-05-03T17:48:49Z</time></trkpt><trkpt lat="45.17694492664376" lon="8.665186233286573"><ele>101.66666666666666</ele><time>2026-05-03T17:48:50Z</time></trkpt><trkpt lat="45.17710166344076" lon="8.66518093777632"><ele>102.0</ele><time>2026-05-03T17:48:51Z</time></trkpt><trkpt lat="45.177261359760394" lon="8.665176247188684"><ele>102.33333333333334</ele><time>2026-05-03T17:48:52Z</time></trkpt><trkpt lat="45.1774198909221" lon="8.6651728463096"><ele>102.66666666666667</ele><time>2026-05-03T17:48:53Z</time></trkpt><trkpt lat="45.17757829982691" lon="8.665172000251552"><ele>103.0</ele><time>2026-05-03T17:48:54Z</time></trkpt><trkpt lat="45.17774138799203" lon="8.665165414009916"><ele>103.0</ele><time>2026-05-03T17:48:55Z</time></trkpt><trkpt lat="45.17790355718607" lon="8.665157559940349"><ele>103.0</ele><time>2026-05-03T17:48:56Z</time></trkpt><trkpt lat="45.17806950313297" lon="8.66514968657481"><ele>103.0</ele><time>2026-05-03T17:48:57Z</time></trkpt><trkpt lat="45.17823368655002" lon="8.66514657066442"><ele>103.0</ele><time>2026-05-03T17:48:58Z</time></trkpt><trkpt lat="45.17839754040525" lon="8.66514354542244"><ele>103.0</ele><time>2026-05-03T17:48:59Z</time></trkpt><trkpt lat="45.17855867586683" lon="8.665141410909278"><ele>103.0</ele><time>2026-05-03T17:49:00Z</time></trkpt><trkpt lat="45.178720011110606" lon="8.665134957272658"><ele>103.0</ele><time>2026-05-03T17:49:01Z</time></trkpt><trkpt lat="45.17887803060218" lon="8.665130429167101"><ele>103.0</ele><time>2026-05-03T17:49:02Z</time></trkpt><trkpt lat="45.17903397907119" lon="8.665123202612799"><ele>103.0</ele><time>2026-05-03T17:49:03Z</time></trkpt><trkpt lat="45.179187586208286" lon="8.665119822899669"><ele>102.33333333333334</ele><time>2026-05-03T17:49:04Z</time></trkpt><trkpt lat="45.17934475555637" lon="8.665113509496974"><ele>101.66666666666666</ele><time>2026-05-03T17:49:05Z</time></trkpt><trkpt lat="45.17950816138459" lon="8.66510625022145"><ele>101.0</ele><time>2026-05-03T17:49:06Z</time></trkpt><trkpt lat="45.17966481696672" lon="8.665102474208018"><ele>101.0</ele><time>2026-05-03T17:49:07Z</time></trkpt><trkpt lat="45.17981740448265" lon="8.665095497490386"><ele>101.0</ele><time>2026-05-03T17:49:08Z</time></trkpt><trkpt lat="45.179968419186565" lon="8.66508846616251"><ele>101.0</ele><time>2026-05-03T17:49:09Z</time></trkpt><trkpt lat="45.18012151792121" lon="8.665083568041895"><ele>101.0</ele><time>2026-05-03T17:49:10Z</time></trkpt><trkpt lat="45.18027439690396" lon="8.665079450465191"><ele>101.0</ele><time>2026-05-03T17:49:11Z</time></trkpt><trkpt lat="45.18042089709383" lon="8.665077572345202"><ele>101.0</ele><time>2026-05-03T17:49:12Z</time></trkpt><trkpt lat="45.18056520241091" lon="8.66507362618979"><ele>101.0</ele><time>2026-05-03T17:49:13Z</time></trkpt><trkpt lat="45.18071024451351" lon="8.665068211422607"><ele>100.75</ele><time>2026-05-03T17:49:14Z</time></trkpt><trkpt lat="45.18085546517708" lon="8.665063881234868"><ele>100.5</ele><time>2026-05-03T17:49:15Z</time></trkpt><trkpt lat="45.1810038396421" lon="8.665058745587718"><ele>100.25</ele><time>2026-05-03T17:49:16Z</time></trkpt><trkpt lat="45.18115437735327" lon="8.665055984086056"><ele>100.0</ele><time>2026-05-03T17:49:16.999Z</time></trkpt><trkpt lat="45.18130670467099" lon="8.665055093068437"><ele>100.0</ele><time>2026-05-03T17:49:17.999Z</time></trkpt><trkpt lat="45.181465050689134" lon="8.665049915361365"><ele>100.0</ele><time>2026-05-03T17:49:18.999Z</time></trkpt><trkpt lat="45.18162266751594" lon="8.66504490237158"><ele>100.0</ele><time>2026-05-03T17:49:19.999Z</time></trkpt><trkpt lat="45.1817847514707" lon="8.665040886293312"><ele>100.0</ele><time>2026-05-03T17:49:20.999Z</time></trkpt><trkpt lat="45.18194652332257" lon="8.665035700442115"><ele>100.0</ele><time>2026-05-03T17:49:21.999Z</time></trkpt><trkpt lat="45.18209898215994" lon="8.66503035082752"><ele>100.0</ele><time>2026-05-03T17:49:22.999Z</time></trkpt><trkpt lat="45.18225582597011" lon="8.665025742360479"><ele>99.66666666666667</ele><time>2026-05-03T17:49:23.999Z</time></trkpt><trkpt lat="45.18240806403924" lon="8.665018559038435"><ele>99.33333333333334</ele><time>2026-05-03T17:49:24.999Z</time></trkpt><trkpt lat="45.18256591265392" lon="8.665010407390968"><ele>99.0</ele><time>2026-05-03T17:49:25.999Z</time></trkpt><trkpt lat="45.18272401141865" lon="8.66500277565808"><ele>99.0</ele><time>2026-05-03T17:49:26.999Z</time></trkpt><trkpt lat="45.18287684973562" lon="8.664995196295232"><ele>99.0</ele><time>2026-05-03T17:49:27.999Z</time></trkpt><trkpt lat="45.18303319883733" lon="8.664991478193503"><ele>99.0</ele><time>2026-05-03T17:49:28.999Z</time></trkpt><trkpt lat="45.183182576537526" lon="8.664987760563786"><ele>98.66666666666666</ele><time>2026-05-03T17:49:29.999Z</time></trkpt><trkpt lat="45.183329103220494" lon="8.664983239601163"><ele>98.33333333333333</ele><time>2026-05-03T17:49:30.999Z</time></trkpt><trkpt lat="45.18348165964088" lon="8.664981112703837"><ele>98.0</ele><time>2026-05-03T17:49:31.999Z</time></trkpt><trkpt lat="45.183635806317284" lon="8.664976748629957"><ele>98.0</ele><time>2026-05-03T17:49:32.999Z</time></trkpt><trkpt lat="45.18378400284487" lon="8.664968411721532"><ele>98.0</ele><time>2026-05-03T17:49:33.999Z</time></trkpt><trkpt lat="45.18392521652227" lon="8.664963092772135"><ele>98.0</ele><time>2026-05-03T17:49:34.999Z</time></trkpt><trkpt lat="45.18407278322986" lon="8.664957661012105"><ele>98.0</ele><time>2026-05-03T17:49:35.999Z</time></trkpt><trkpt lat="45.18422374523127" lon="8.664946841007858"><ele>98.25</ele><time>2026-05-03T17:49:36.999Z</time></trkpt><trkpt lat="45.18437127121827" lon="8.664942410610534"><ele>98.5</ele><time>2026-05-03T17:49:37.999Z</time></trkpt><trkpt lat="45.18451942729618" lon="8.664940571087724"><ele>98.75</ele><time>2026-05-03T17:49:38.999Z</time></trkpt><trkpt lat="45.18467259801089" lon="8.664934268606311"><ele>99.0</ele><time>2026-05-03T17:49:39.999Z</time></trkpt><trkpt lat="45.18482486000988" lon="8.664927013594559"><ele>99.0</ele><time>2026-05-03T17:49:40.999Z</time></trkpt><trkpt lat="45.18497918059782" lon="8.6649249632692"><ele>99.0</ele><time>2026-05-03T17:49:41.999Z</time></trkpt><trkpt lat="45.185127893771465" lon="8.664921340721088"><ele>99.0</ele><time>2026-05-03T17:49:42.999Z</time></trkpt><trkpt lat="45.18527880584834" lon="8.66491459011973"><ele>99.0</ele><time>2026-05-03T17:49:43.999Z</time></trkpt><trkpt lat="45.18542595872083" lon="8.66490970336374"><ele>99.0</ele><time>2026-05-03T17:49:44.999Z</time></trkpt><trkpt lat="45.1855769454577" lon="8.664904787795058"><ele>99.0</ele><time>2026-05-03T17:49:45.999Z</time></trkpt><trkpt lat="45.18572810199885" lon="8.664901053420932"><ele>99.0</ele><time>2026-05-03T17:49:46.999Z</time></trkpt><trkpt lat="45.18587881643487" lon="8.66489611251733"><ele>99.0</ele><time>2026-05-03T17:49:47.999Z</time></trkpt><trkpt lat="45.18602741031842" lon="8.664890849521921"><ele>99.0</ele><time>2026-05-03T17:49:48.999Z</time></trkpt><trkpt lat="45.18617584240198" lon="8.664887104119373"><ele>99.0</ele><time>2026-05-03T17:49:49.998Z</time></trkpt><trkpt lat="45.18632338405966" lon="8.664880161141612"><ele>99.0</ele><time>2026-05-03T17:49:50.998Z</time></trkpt><trkpt lat="45.18647206687607" lon="8.664875141980888"><ele>98.75</ele><time>2026-05-03T17:49:51.998Z</time></trkpt><trkpt lat="45.1866201796909" lon="8.66487024408142"><ele>98.5</ele><time>2026-05-03T17:49:52.998Z</time></trkpt><trkpt lat="45.18676714351684" lon="8.664865613365723"><ele>98.25</ele><time>2026-05-03T17:49:53.998Z</time></trkpt><trkpt lat="45.186914681247735" lon="8.664864242797272"><ele>98.0</ele><time>2026-05-03T17:49:54.998Z</time></trkpt><trkpt lat="45.187060586635795" lon="8.66485773501297"><ele>98.0</ele><time>2026-05-03T17:49:55.998Z</time></trkpt><trkpt lat="45.18720956063691" lon="8.664851265589094"><ele>98.0</ele><time>2026-05-03T17:49:56.998Z</time></trkpt><trkpt lat="45.1873589694721" lon="8.664846820496122"><ele>98.0</ele><time>2026-05-03T17:49:57.998Z</time></trkpt><trkpt lat="45.18750698988409" lon="8.664840988767867"><ele>98.0</ele><time>2026-05-03T17:49:58.998Z</time></trkpt><trkpt lat="45.18765774270942" lon="8.664835521913359"><ele>98.33333333333333</ele><time>2026-05-03T17:49:59.998Z</time></trkpt><trkpt lat="45.18781051834478" lon="8.664832037496717"><ele>98.66666666666666</ele><time>2026-05-03T17:50:00.998Z</time></trkpt><trkpt lat="45.187962972760126" lon="8.664829134018929"><ele>99.0</ele><time>2026-05-03T17:50:01.998Z</time></trkpt><trkpt lat="45.18811396212545" lon="8.664827694418776"><ele>99.33333333333334</ele><time>2026-05-03T17:50:02.998Z</time></trkpt><trkpt lat="45.18826634448615" lon="8.664824277812912"><ele>99.66666666666667</ele><time>2026-05-03T17:50:03.998Z</time></trkpt><trkpt lat="45.18841662794049" lon="8.664818971066676"><ele>100.0</ele><time>2026-05-03T17:50:04.998Z</time></trkpt><trkpt lat="45.1885645948231" lon="8.664811509795822"><ele>100.0</ele><time>2026-05-03T17:50:05.998Z</time></trkpt><trkpt lat="45.18871611519507" lon="8.664802852643605"><ele>100.0</ele><time>2026-05-03T17:50:06.998Z</time></trkpt><trkpt lat="45.1888682245757" lon="8.664797034949485"><ele>100.0</ele><time>2026-05-03T17:50:07.998Z</time></trkpt><trkpt lat="45.189019834935856" lon="8.664795679012423"><ele>99.66666666666667</ele><time>2026-05-03T17:50:08.998Z</time></trkpt><trkpt lat="45.18916893630563" lon="8.6647936691736"><ele>99.33333333333334</ele><time>2026-05-03T17:50:09.998Z</time></trkpt><trkpt lat="45.18931915950312" lon="8.66479035778373"><ele>99.0</ele><time>2026-05-03T17:50:10.998Z</time></trkpt><trkpt lat="45.18947083607488" lon="8.664784510136885"><ele>99.0</ele><time>2026-05-03T17:50:11.998Z</time></trkpt><trkpt lat="45.189626360033984" lon="8.664776918061065"><ele>99.0</ele><time>2026-05-03T17:50:12.998Z</time></trkpt><trkpt lat="45.189782375085066" lon="8.664771583062873"><ele>99.0</ele><time>2026-05-03T17:50:13.998Z</time></trkpt><trkpt lat="45.1899353685655" lon="8.66477047526012"><ele>99.0</ele><time>2026-05-03T17:50:14.998Z</time></trkpt><trkpt lat="45.190091858092494" lon="8.664765172057358"><ele>99.0</ele><time>2026-05-03T17:50:15.998Z</time></trkpt><trkpt lat="45.19024832432116" lon="8.664760689522083"><ele>99.0</ele><time>2026-05-03T17:50:16.998Z</time></trkpt><trkpt lat="45.19039823119719" lon="8.664756239156961"><ele>99.0</ele><time>2026-05-03T17:50:17.998Z</time></trkpt><trkpt lat="45.190540001733204" lon="8.664750854860603"><ele>99.0</ele><time>2026-05-03T17:50:18.998Z</time></trkpt><trkpt lat="45.19067388376604" lon="8.664748708221142"><ele>99.0</ele><time>2026-05-03T17:50:19.998Z</time></trkpt><trkpt lat="45.19080786294409" lon="8.66474293699112"><ele>99.0</ele><time>2026-05-03T17:50:20.998Z</time></trkpt><trkpt lat="45.19094889125921" lon="8.664734622258521"><ele>99.0</ele><time>2026-05-03T17:50:21.998Z</time></trkpt><trkpt lat="45.191096450769436" lon="8.664728592227526"><ele>99.0</ele><time>2026-05-03T17:50:22.997Z</time></trkpt><trkpt lat="45.191244605600886" lon="8.664724757773003"><ele>99.0</ele><time>2026-05-03T17:50:23.997Z</time></trkpt><trkpt lat="45.191394613482636" lon="8.664720240543966"><ele>99.0</ele><time>2026-05-03T17:50:24.997Z</time></trkpt><trkpt lat="45.19154846622864" lon="8.664714937926382"><ele>99.33333333333334</ele><time>2026-05-03T17:50:25.997Z</time></trkpt><trkpt lat="45.191703958240936" lon="8.66470869471898"><ele>99.66666666666667</ele><time>2026-05-03T17:50:26.997Z</time></trkpt><trkpt lat="45.19186032817193" lon="8.664704895317081"><ele>100.0</ele><time>2026-05-03T17:50:27.997Z</time></trkpt><trkpt lat="45.1920201284346" lon="8.66469860327799"><ele>100.0</ele><time>2026-05-03T17:50:28.997Z</time></trkpt><trkpt lat="45.192182592681796" lon="8.66469635921706"><ele>100.0</ele><time>2026-05-03T17:50:29.997Z</time></trkpt><trkpt lat="45.192343629056744" lon="8.664692450331625"><ele>100.0</ele><time>2026-05-03T17:50:30.997Z</time></trkpt><trkpt lat="45.192502533146154" lon="8.664685175938965"><ele>100.0</ele><time>2026-05-03T17:50:31.997Z</time></trkpt><trkpt lat="45.19265955650771" lon="8.664679341179005"><ele>100.0</ele><time>2026-05-03T17:50:32.997Z</time></trkpt><trkpt lat="45.19281104869507" lon="8.664672436278419"><ele>100.0</ele><time>2026-05-03T17:50:33.997Z</time></trkpt><trkpt lat="45.192953507227266" lon="8.66466944141193"><ele>100.0</ele><time>2026-05-03T17:50:34.997Z</time></trkpt><trkpt lat="45.19309579951192" lon="8.664663846096554"><ele>100.0</ele><time>2026-05-03T17:50:35.997Z</time></trkpt><trkpt lat="45.1932369328206" lon="8.664659298337808"><ele>100.0</ele><time>2026-05-03T17:50:36.997Z</time></trkpt><trkpt lat="45.19337771953154" lon="8.664656508360352"><ele>100.0</ele><time>2026-05-03T17:50:37.997Z</time></trkpt><trkpt lat="45.193521082097035" lon="8.664649538671119"><ele>100.75</ele><time>2026-05-03T17:50:38.997Z</time></trkpt><trkpt lat="45.1936629741233" lon="8.664648408891976"><ele>101.5</ele><time>2026-05-03T17:50:39.997Z</time></trkpt><trkpt lat="45.19380650678071" lon="8.664645213467459"><ele>102.25</ele><time>2026-05-03T17:50:40.997Z</time></trkpt><trkpt lat="45.19395253484438" lon="8.664639254964642"><ele>103.0</ele><time>2026-05-03T17:50:41.997Z</time></trkpt><trkpt lat="45.194098382886814" lon="8.664634608562361"><ele>103.25</ele><time>2026-05-03T17:50:42.997Z</time></trkpt><trkpt lat="45.194243989779544" lon="8.664627213048217"><ele>103.5</ele><time>2026-05-03T17:50:43.997Z</time></trkpt><trkpt lat="45.194389402157704" lon="8.664620170381708"><ele>103.75</ele><time>2026-05-03T17:50:44.997Z</time></trkpt><trkpt lat="45.19453905282821" lon="8.664617436414503"><ele>104.0</ele><time>2026-05-03T17:50:45.997Z</time></trkpt><trkpt lat="45.19468960804451" lon="8.664614117251162"><ele>104.0</ele><time>2026-05-03T17:50:46.997Z</time></trkpt><trkpt lat="45.194837484185264" lon="8.664612184763385"><ele>104.0</ele><time>2026-05-03T17:50:47.997Z</time></trkpt><trkpt lat="45.19498350120486" lon="8.664611418245402"><ele>104.0</ele><time>2026-05-03T17:50:48.997Z</time></trkpt><trkpt lat="45.195122685946835" lon="8.664599181812822"><ele>104.0</ele><time>2026-05-03T17:50:49.997Z</time></trkpt><trkpt lat="45.19525946732768" lon="8.664587009347036"><ele>104.0</ele><time>2026-05-03T17:50:50.997Z</time></trkpt><trkpt lat="45.19539581794987" lon="8.664585909377696"><ele>104.0</ele><time>2026-05-03T17:50:51.997Z</time></trkpt><trkpt lat="45.19552607702983" lon="8.664591600347793"><ele>104.0</ele><time>2026-05-03T17:50:52.997Z</time></trkpt><trkpt lat="45.19565596054258" lon="8.664594525848758"><ele>104.0</ele><time>2026-05-03T17:50:54Z</time></trkpt><trkpt lat="45.19578782063519" lon="8.664609470457586"><ele>104.25</ele><time>2026-05-03T17:50:55Z</time></trkpt><trkpt lat="45.195912547267525" lon="8.664640436507868"><ele>104.5</ele><time>2026-05-03T17:50:56Z</time></trkpt><trkpt lat="45.19602822596209" lon="8.664685606798622"><ele>104.75</ele><time>2026-05-03T17:50:57Z</time></trkpt><trkpt lat="45.196137009133004" lon="8.664749154497606"><ele>105.0</ele><time>2026-05-03T17:50:58Z</time></trkpt><trkpt lat="45.196244499311014" lon="8.66484287052223"><ele>105.0</ele><time>2026-05-03T17:50:59Z</time></trkpt><trkpt lat="45.19634707788826" lon="8.664961063291315"><ele>105.0</ele><time>2026-05-03T17:51:00Z</time></trkpt><trkpt lat="45.19644994715626" lon="8.665089730934879"><ele>105.0</ele><time>2026-05-03T17:51:01Z</time></trkpt><trkpt lat="45.19655735052497" lon="8.66521000523386"><ele>105.0</ele><time>2026-05-03T17:51:02Z</time></trkpt><trkpt lat="45.196661788736805" lon="8.665328783852217"><ele>104.75</ele><time>2026-05-03T17:51:03Z</time></trkpt><trkpt lat="45.19676664152129" lon="8.665457422835331"><ele>104.5</ele><time>2026-05-03T17:51:04Z</time></trkpt><trkpt lat="45.19686792721902" lon="8.665590487221818"><ele>104.25</ele><time>2026-05-03T17:51:05Z</time></trkpt><trkpt lat="45.19696583995666" lon="8.665726719465352"><ele>104.0</ele><time>2026-05-03T17:51:06Z</time></trkpt><trkpt lat="45.19705390674159" lon="8.665852643921735"><ele>104.0</ele><time>2026-05-03T17:51:07Z</time></trkpt><trkpt lat="45.19713276254361" lon="8.665986612932256"><ele>104.0</ele><time>2026-05-03T17:51:08Z</time></trkpt><trkpt lat="45.19720459879286" lon="8.66613689088471"><ele>104.0</ele><time>2026-05-03T17:51:09Z</time></trkpt><trkpt lat="45.19727244800286" lon="8.66629972368957"><ele>104.0</ele><time>2026-05-03T17:51:10Z</time></trkpt><trkpt lat="45.19734021259817" lon="8.666466846893481"><ele>104.25</ele><time>2026-05-03T17:51:11Z</time></trkpt><trkpt lat="45.197406996249775" lon="8.666618667204336"><ele>104.5</ele><time>2026-05-03T17:51:12Z</time></trkpt><trkpt lat="45.19747266430262" lon="8.666758808513555"><ele>104.75</ele><time>2026-05-03T17:51:13Z</time></trkpt><trkpt lat="45.197539196555375" lon="8.666888360998255"><ele>105.0</ele><time>2026-05-03T17:51:14Z</time></trkpt><trkpt lat="45.19760656782407" lon="8.66701050292628"><ele>105.0</ele><time>2026-05-03T17:51:15Z</time></trkpt><trkpt lat="45.19767286007201" lon="8.667124901126046"><ele>105.0</ele><time>2026-05-03T17:51:16Z</time></trkpt><trkpt lat="45.19773993015911" lon="8.667225233868827"><ele>105.0</ele><time>2026-05-03T17:51:17Z</time></trkpt><trkpt lat="45.19780804996949" lon="8.667309480391594"><ele>105.0</ele><time>2026-05-03T17:51:18Z</time></trkpt><trkpt lat="45.19787485397905" lon="8.667387650123384"><ele>105.0</ele><time>2026-05-03T17:51:19Z</time></trkpt><trkpt lat="45.197960504059594" lon="8.667383854462965"><ele>105.0</ele><time>2026-05-03T17:51:20Z</time></trkpt><trkpt lat="45.19804343748597" lon="8.6673622368459"><ele>105.0</ele><time>2026-05-03T17:51:21Z</time></trkpt><trkpt lat="45.19811467437479" lon="8.667320967862203"><ele>105.0</ele><time>2026-05-03T17:51:22Z</time></trkpt><trkpt lat="45.1981883478714" lon="8.667319251341876"><ele>105.0</ele><time>2026-05-03T17:51:23Z</time></trkpt><trkpt lat="45.198258525662624" lon="8.66719467593173"><ele>105.0</ele><time>2026-05-03T17:51:23.999Z</time></trkpt><trkpt lat="45.19834949414754" lon="8.667151328938907"><ele>105.0</ele><time>2026-05-03T17:51:24.999Z</time></trkpt><trkpt lat="45.198441966161326" lon="8.66708758078024"><ele>105.0</ele><time>2026-05-03T17:51:25.999Z</time></trkpt><trkpt lat="45.198543225271706" lon="8.667024386631192"><ele>105.0</ele><time>2026-05-03T17:51:26.999Z</time></trkpt><trkpt lat="45.19865044673228" lon="8.666960357133348"><ele>105.0</ele><time>2026-05-03T17:51:27.999Z</time></trkpt><trkpt lat="45.1987623788409" lon="8.666891645198508"><ele>105.0</ele><time>2026-05-03T17:51:28.999Z</time></trkpt><trkpt lat="45.19887156530748" lon="8.666811404272849"><ele>105.0</ele><time>2026-05-03T17:51:29.999Z</time></trkpt><trkpt lat="45.19898852689048" lon="8.666741965156623"><ele>105.0</ele><time>2026-05-03T17:51:30.999Z</time></trkpt><trkpt lat="45.19909849333494" lon="8.666672842865479"><ele>105.0</ele><time>2026-05-03T17:51:31.999Z</time></trkpt><trkpt lat="45.19920209034011" lon="8.666598730837823"><ele>105.0</ele><time>2026-05-03T17:51:32.999Z</time></trkpt><trkpt lat="45.199298777830265" lon="8.666539792475982"><ele>105.0</ele><time>2026-05-03T17:51:33.999Z</time></trkpt><trkpt lat="45.199398270182954" lon="8.666497572265383"><ele>105.0</ele><time>2026-05-03T17:51:34.999Z</time></trkpt><trkpt lat="45.199505691239715" lon="8.666457689291581"><ele>105.0</ele><time>2026-05-03T17:51:35.999Z</time></trkpt><trkpt lat="45.19961797894835" lon="8.66644320638116"><ele>105.0</ele><time>2026-05-03T17:51:36.999Z</time></trkpt><trkpt lat="45.199736543010424" lon="8.666424776322463"><ele>105.0</ele><time>2026-05-03T17:51:37.999Z</time></trkpt><trkpt lat="45.19986137496913" lon="8.666415717016053"><ele>104.75</ele><time>2026-05-03T17:51:38.999Z</time></trkpt><trkpt lat="45.19999241244056" lon="8.666402057131004"><ele>104.5</ele><time>2026-05-03T17:51:39.999Z</time></trkpt><trkpt lat="45.20012464927638" lon="8.66638984265847"><ele>104.25</ele><time>2026-05-03T17:51:40.999Z</time></trkpt><trkpt lat="45.20025645187737" lon="8.666389380321045"><ele>104.0</ele><time>2026-05-03T17:51:41.999Z</time></trkpt><trkpt lat="45.20038011484314" lon="8.666387452445054"><ele>104.0</ele><time>2026-05-03T17:51:42.999Z</time></trkpt><trkpt lat="45.200504376737904" lon="8.666372397675007"><ele>104.0</ele><time>2026-05-03T17:51:43.999Z</time></trkpt><trkpt lat="45.20063508207947" lon="8.66634143348805"><ele>104.0</ele><time>2026-05-03T17:51:44.999Z</time></trkpt><trkpt lat="45.20076690147066" lon="8.666305288525265"><ele>104.0</ele><time>2026-05-03T17:51:45.999Z</time></trkpt><trkpt lat="45.20089663805047" lon="8.666274766990828"><ele>104.25</ele><time>2026-05-03T17:51:46.999Z</time></trkpt><trkpt lat="45.20102549905372" lon="8.666241444849316"><ele>104.5</ele><time>2026-05-03T17:51:47.999Z</time></trkpt><trkpt lat="45.20115240533145" lon="8.666204731027676"><ele>104.75</ele><time>2026-05-03T17:51:48.999Z</time></trkpt><trkpt lat="45.20128251069674" lon="8.66617128084863"><ele>105.0</ele><time>2026-05-03T17:51:49.999Z</time></trkpt><trkpt lat="45.20141427162204" lon="8.666140269037054"><ele>104.75</ele><time>2026-05-03T17:51:50.999Z</time></trkpt><trkpt lat="45.2015549812603" lon="8.666116678491967"><ele>104.5</ele><time>2026-05-03T17:51:51.999Z</time></trkpt><trkpt lat="45.201699432028974" lon="8.66609650029938"><ele>104.25</ele><time>2026-05-03T17:51:52.999Z</time></trkpt><trkpt lat="45.201843843619734" lon="8.666087502718964"><ele>104.0</ele><time>2026-05-03T17:51:53.999Z</time></trkpt><trkpt lat="45.20198915947774" lon="8.666090881197169"><ele>103.5</ele><time>2026-05-03T17:51:54.999Z</time></trkpt><trkpt lat="45.20213508176299" lon="8.666097362637485"><ele>103.0</ele><time>2026-05-03T17:51:55.999Z</time></trkpt><trkpt lat="45.2022805557235" lon="8.666099744035304"><ele>102.5</ele><time>2026-05-03T17:51:56.999Z</time></trkpt><trkpt lat="45.20242707073441" lon="8.666093537314488"><ele>102.0</ele><time>2026-05-03T17:51:57.998Z</time></trkpt><trkpt lat="45.20257224200845" lon="8.666085047774255"><ele>102.0</ele><time>2026-05-03T17:51:58.998Z</time></trkpt><trkpt lat="45.20271514734314" lon="8.666055537393452"><ele>102.0</ele><time>2026-05-03T17:51:59.998Z</time></trkpt><trkpt lat="45.202845938357" lon="8.666017903241961"><ele>102.0</ele><time>2026-05-03T17:52:00.998Z</time></trkpt><trkpt lat="45.20298354588305" lon="8.665981928093766"><ele>102.0</ele><time>2026-05-03T17:52:01.998Z</time></trkpt><trkpt lat="45.20310908340427" lon="8.665941882571802"><ele>102.25</ele><time>2026-05-03T17:52:02.998Z</time></trkpt><trkpt lat="45.20323795945862" lon="8.665908864942626"><ele>102.5</ele><time>2026-05-03T17:52:03.998Z</time></trkpt><trkpt lat="45.20336779111383" lon="8.665867742057161"><ele>102.75</ele><time>2026-05-03T17:52:04.998Z</time></trkpt><trkpt lat="45.20348773697348" lon="8.665819946137145"><ele>103.0</ele><time>2026-05-03T17:52:05.998Z</time></trkpt><trkpt lat="45.203613566051644" lon="8.665777221546076"><ele>103.0</ele><time>2026-05-03T17:52:06.998Z</time></trkpt><trkpt lat="45.203728564267585" lon="8.665701163399335"><ele>103.0</ele><time>2026-05-03T17:52:07.998Z</time></trkpt><trkpt lat="45.20383965514555" lon="8.6655830194111"><ele>103.0</ele><time>2026-05-03T17:52:08.998Z</time></trkpt><trkpt lat="45.20395801979489" lon="8.665476537108598"><ele>103.0</ele><time>2026-05-03T17:52:09.998Z</time></trkpt><trkpt lat="45.204068381696075" lon="8.665376693224225"><ele>103.0</ele><time>2026-05-03T17:52:10.998Z</time></trkpt><trkpt lat="45.20417180111255" lon="8.665278087080887"><ele>103.0</ele><time>2026-05-03T17:52:11.998Z</time></trkpt><trkpt lat="45.20426121124959" lon="8.66519180951883"><ele>103.0</ele><time>2026-05-03T17:52:12.998Z</time></trkpt><trkpt lat="45.2043277280265" lon="8.665121804279455"><ele>103.0</ele><time>2026-05-03T17:52:13.998Z</time></trkpt><trkpt lat="45.20437652140422" lon="8.665064593022661"><ele>103.0</ele><time>2026-05-03T17:52:14.998Z</time></trkpt><trkpt lat="45.20445656285844" lon="8.664954626808287"><ele>103.0</ele><time>2026-05-03T17:52:16.998Z</time></trkpt><trkpt lat="45.20452808804024" lon="8.664870418388793"><ele>103.0</ele><time>2026-05-03T17:52:17.998Z</time></trkpt><trkpt lat="45.204621174315065" lon="8.66478648534385"><ele>103.0</ele><time>2026-05-03T17:52:18.998Z</time></trkpt><trkpt lat="45.20470902520757" lon="8.664684502152097"><ele>103.0</ele><time>2026-05-03T17:52:19.998Z</time></trkpt><trkpt lat="45.20478529939291" lon="8.664553706402168"><ele>103.0</ele><time>2026-05-03T17:52:20.998Z</time></trkpt><trkpt lat="45.204863374793234" lon="8.664437870633797"><ele>103.0</ele><time>2026-05-03T17:52:21.998Z</time></trkpt><trkpt lat="45.20493347563297" lon="8.664304265702256"><ele>103.0</ele><time>2026-05-03T17:52:22.998Z</time></trkpt><trkpt lat="45.205009153841836" lon="8.664143860388739"><ele>103.0</ele><time>2026-05-03T17:52:23.998Z</time></trkpt><trkpt lat="45.20505943670464" lon="8.663960136887994"><ele>103.0</ele><time>2026-05-03T17:52:24.998Z</time></trkpt><trkpt lat="45.2050892040799" lon="8.6637643938788"><ele>102.25</ele><time>2026-05-03T17:52:25.998Z</time></trkpt><trkpt lat="45.205133677042845" lon="8.663574721706835"><ele>101.5</ele><time>2026-05-03T17:52:26.998Z</time></trkpt><trkpt lat="45.20517098803217" lon="8.663387228272333"><ele>100.75</ele><time>2026-05-03T17:52:27.998Z</time></trkpt><trkpt lat="45.20522060155635" lon="8.663218146770612"><ele>100.0</ele><time>2026-05-03T17:52:28.998Z</time></trkpt><trkpt lat="45.205259435539396" lon="8.663023345087904"><ele>100.0</ele><time>2026-05-03T17:52:29.998Z</time></trkpt><trkpt lat="45.20529763754492" lon="8.662831597483946"><ele>100.0</ele><time>2026-05-03T17:52:30.998Z</time></trkpt><trkpt lat="45.20533235957242" lon="8.662657199262515"><ele>100.0</ele><time>2026-05-03T17:52:31.997Z</time></trkpt><trkpt lat="45.205366626189075" lon="8.662487506650136"><ele>100.0</ele><time>2026-05-03T17:52:32.997Z</time></trkpt><trkpt lat="45.205388879396054" lon="8.662301731598038"><ele>100.0</ele><time>2026-05-03T17:52:33.997Z</time></trkpt><trkpt lat="45.205428665200735" lon="8.662126178165256"><ele>100.0</ele><time>2026-05-03T17:52:34.997Z</time></trkpt><trkpt lat="45.205465631142886" lon="8.661967687434666"><ele>100.0</ele><time>2026-05-03T17:52:35.997Z</time></trkpt><trkpt lat="45.20550763571738" lon="8.661801440741185"><ele>100.0</ele><time>2026-05-03T17:52:36.997Z</time></trkpt><trkpt lat="45.205551373290554" lon="8.661627067507768"><ele>100.0</ele><time>2026-05-03T17:52:37.997Z</time></trkpt><trkpt lat="45.20560524692954" lon="8.661463147428279"><ele>100.0</ele><time>2026-05-03T17:52:38.997Z</time></trkpt><trkpt lat="45.20567945620284" lon="8.661309554335562"><ele>100.0</ele><time>2026-05-03T17:52:39.997Z</time></trkpt><trkpt lat="45.2057193944022" lon="8.66113149122252"><ele>100.0</ele><time>2026-05-03T17:52:40.997Z</time></trkpt><trkpt lat="45.20577608889217" lon="8.660942760599902"><ele>100.25</ele><time>2026-05-03T17:52:41.997Z</time></trkpt><trkpt lat="45.20582917445867" lon="8.660754122952738"><ele>100.5</ele><time>2026-05-03T17:52:42.997Z</time></trkpt><trkpt lat="45.20587713715806" lon="8.660558765301277"><ele>100.75</ele><time>2026-05-03T17:52:43.997Z</time></trkpt><trkpt lat="45.20591426933589" lon="8.66037935082203"><ele>101.0</ele><time>2026-05-03T17:52:44.997Z</time></trkpt><trkpt lat="45.20594812051471" lon="8.660211708017492"><ele>101.0</ele><time>2026-05-03T17:52:45.997Z</time></trkpt><trkpt lat="45.205973782177715" lon="8.66005831443879"><ele>101.0</ele><time>2026-05-03T17:52:46.997Z</time></trkpt><trkpt lat="45.20599864281895" lon="8.659906992488814"><ele>101.0</ele><time>2026-05-03T17:52:47.997Z</time></trkpt><trkpt lat="45.20602346526026" lon="8.659744987983226"><ele>101.0</ele><time>2026-05-03T17:52:48.997Z</time></trkpt><trkpt lat="45.20604991634564" lon="8.659573103863135"><ele>101.0</ele><time>2026-05-03T17:52:49.997Z</time></trkpt><trkpt lat="45.206079468155984" lon="8.659390712961494"><ele>101.0</ele><time>2026-05-03T17:52:50.997Z</time></trkpt><trkpt lat="45.20611223422509" lon="8.659207025115094"><ele>101.0</ele><time>2026-05-03T17:52:51.997Z</time></trkpt><trkpt lat="45.206143614659574" lon="8.659018575045865"><ele>101.0</ele><time>2026-05-03T17:52:52.997Z</time></trkpt><trkpt lat="45.206173200914066" lon="8.658825423699954"><ele>101.0</ele><time>2026-05-03T17:52:53.997Z</time></trkpt><trkpt lat="45.20619650126009" lon="8.658617299273182"><ele>101.0</ele><time>2026-05-03T17:52:54.997Z</time></trkpt><trkpt lat="45.20624724730073" lon="8.658430628088512"><ele>101.0</ele><time>2026-05-03T17:52:55.997Z</time></trkpt><trkpt lat="45.20627684654889" lon="8.658237208114144"><ele>101.0</ele><time>2026-05-03T17:52:56.997Z</time></trkpt><trkpt lat="45.206301469786666" lon="8.65805972936771"><ele>100.99999999999999</ele><time>2026-05-03T17:52:57.997Z</time></trkpt><trkpt lat="45.20632309951589" lon="8.657910547997622"><ele>101.0</ele><time>2026-05-03T17:52:58.997Z</time></trkpt><trkpt lat="45.206345263492835" lon="8.657775816610858"><ele>101.0</ele><time>2026-05-03T17:53:00Z</time></trkpt><trkpt lat="45.20636463294246" lon="8.657672865192485"><ele>101.0</ele><time>2026-05-03T17:53:01Z</time></trkpt><trkpt lat="45.20638198153408" lon="8.657586250914505"><ele>100.99999999999999</ele><time>2026-05-03T17:53:02Z</time></trkpt><trkpt lat="45.20640763108128" lon="8.65744870996867"><ele>101.0</ele><time>2026-05-03T17:53:04Z</time></trkpt><trkpt lat="45.20643828322811" lon="8.657322373266487"><ele>100.99999999999999</ele><time>2026-05-03T17:53:06Z</time></trkpt><trkpt lat="45.20637557410284" lon="8.657344195225965"><ele>101.0</ele><time>2026-05-03T17:53:09Z</time></trkpt><trkpt lat="45.20637838400952" lon="8.657447468153517"><ele>101.0</ele><time>2026-05-03T17:53:11Z</time></trkpt><trkpt lat="45.206387545318734" lon="8.65754093115943"><ele>101.0</ele><time>2026-05-03T17:53:12Z</time></trkpt><trkpt lat="45.20637640245901" lon="8.657630560642753"><ele>100.99999999999999</ele><time>2026-05-03T17:53:13Z</time></trkpt><trkpt lat="45.206389516742746" lon="8.65777339006417"><ele>101.0</ele><time>2026-05-03T17:53:15Z</time></trkpt><trkpt lat="45.2064588067813" lon="8.657864655153466"><ele>102.0</ele><time>2026-05-03T17:53:16Z</time></trkpt><trkpt lat="45.206564345025875" lon="8.657982646804301"><ele>103.0</ele><time>2026-05-03T17:53:17Z</time></trkpt><trkpt lat="45.206693359434226" lon="8.658100765753943"><ele>104.0</ele><time>2026-05-03T17:53:18Z</time></trkpt><trkpt lat="45.206826848146505" lon="8.658227574583865"><ele>105.0</ele><time>2026-05-03T17:53:19Z</time></trkpt><trkpt lat="45.20696035612811" lon="8.658396530685025"><ele>105.0</ele><time>2026-05-03T17:53:20Z</time></trkpt><trkpt lat="45.20708498555275" lon="8.658562629703512"><ele>105.0</ele><time>2026-05-03T17:53:21Z</time></trkpt><trkpt lat="45.2072024984028" lon="8.658697461789563"><ele>105.0</ele><time>2026-05-03T17:53:22Z</time></trkpt><trkpt lat="45.20729057357532" lon="8.658811736466669"><ele>105.0</ele><time>2026-05-03T17:53:23Z</time></trkpt><trkpt lat="45.20736928840546" lon="8.658907754433788"><ele>105.25</ele><time>2026-05-03T17:53:24Z</time></trkpt><trkpt lat="45.207428755323285" lon="8.658983662465001"><ele>105.5</ele><time>2026-05-03T17:53:25Z</time></trkpt><trkpt lat="45.20752636215734" lon="8.65907696251705"><ele>105.75</ele><time>2026-05-03T17:53:27Z</time></trkpt><trkpt lat="45.20765281784315" lon="8.658970614762419"><ele>106.0</ele><time>2026-05-03T17:53:29Z</time></trkpt><trkpt lat="45.20774023270206" lon="8.658819362643646"><ele>106.0</ele><time>2026-05-03T17:53:29.999Z</time></trkpt><trkpt lat="45.207838511563196" lon="8.658655604438342"><ele>106.0</ele><time>2026-05-03T17:53:30.999Z</time></trkpt><trkpt lat="45.20794765217805" lon="8.658481937692754"><ele>106.0</ele><time>2026-05-03T17:53:31.999Z</time></trkpt><trkpt lat="45.20806137696773" lon="8.65830355927378"><ele>105.33333333333334</ele><time>2026-05-03T17:53:32.999Z</time></trkpt><trkpt lat="45.20819385923479" lon="8.658099383520707"><ele>104.66666666666666</ele><time>2026-05-03T17:53:33.999Z</time></trkpt><trkpt lat="45.208325359177465" lon="8.657908099376293"><ele>104.0</ele><time>2026-05-03T17:53:34.999Z</time></trkpt><trkpt lat="45.20843838574694" lon="8.657732166067195"><ele>104.0</ele><time>2026-05-03T17:53:35.999Z</time></trkpt><trkpt lat="45.20855682513457" lon="8.657562033205123"><ele>104.0</ele><time>2026-05-03T17:53:36.999Z</time></trkpt><trkpt lat="45.208673449082404" lon="8.657404189635235"><ele>104.0</ele><time>2026-05-03T17:53:37.999Z</time></trkpt><trkpt lat="45.208787726116796" lon="8.657258263401436"><ele>104.0</ele><time>2026-05-03T17:53:38.999Z</time></trkpt><trkpt lat="45.20889696574401" lon="8.657123870382897"><ele>104.0</ele><time>2026-05-03T17:53:39.999Z</time></trkpt><trkpt lat="45.20899774198494" lon="8.657021332459822"><ele>104.0</ele><time>2026-05-03T17:53:40.999Z</time></trkpt><trkpt lat="45.209086051811816" lon="8.656923848641357"><ele>104.0</ele><time>2026-05-03T17:53:41.999Z</time></trkpt><trkpt lat="45.20915800060242" lon="8.656842405036285"><ele>104.0</ele><time>2026-05-03T17:53:42.999Z</time></trkpt><trkpt lat="45.20920799780296" lon="8.656779687731339"><ele>104.0</ele><time>2026-05-03T17:53:43.999Z</time></trkpt><trkpt lat="45.20930898440924" lon="8.656766646412793"><ele>104.0</ele><time>2026-05-03T17:53:45.999Z</time></trkpt><trkpt lat="45.20937306267759" lon="8.656848347651712"><ele>104.0</ele><time>2026-05-03T17:53:46.999Z</time></trkpt><trkpt lat="45.209442033919885" lon="8.656978439068103"><ele>104.0</ele><time>2026-05-03T17:53:47.999Z</time></trkpt><trkpt lat="45.20949292008782" lon="8.657092210489282"><ele>104.0</ele><time>2026-05-03T17:53:48.999Z</time></trkpt><trkpt lat="45.20954590490253" lon="8.657160505428193"><ele>104.0</ele><time>2026-05-03T17:53:49.999Z</time></trkpt><trkpt lat="45.209653119814206" lon="8.657131713656332"><ele>104.0</ele><time>2026-05-03T17:53:51.999Z</time></trkpt><trkpt lat="45.20972422597576" lon="8.657027502075833"><ele>104.0</ele><time>2026-05-03T17:53:52.999Z</time></trkpt><trkpt lat="45.209798952042924" lon="8.65688372816829"><ele>104.0</ele><time>2026-05-03T17:53:53.999Z</time></trkpt><trkpt lat="45.209889068473096" lon="8.65672764927197"><ele>103.66666666666666</ele><time>2026-05-03T17:53:54.999Z</time></trkpt><trkpt lat="45.209998408217764" lon="8.656564061985636"><ele>103.33333333333334</ele><time>2026-05-03T17:53:55.999Z</time></trkpt><trkpt lat="45.210115258692504" lon="8.656390147911464"><ele>103.0</ele><time>2026-05-03T17:53:56.999Z</time></trkpt><trkpt lat="45.21021034800448" lon="8.6562421946035"><ele>103.25</ele><time>2026-05-03T17:53:57.999Z</time></trkpt><trkpt lat="45.210295918297774" lon="8.65611055278825"><ele>103.5</ele><time>2026-05-03T17:53:58.999Z</time></trkpt><trkpt lat="45.210376266085426" lon="8.655991374627801"><ele>103.75</ele><time>2026-05-03T17:53:59.999Z</time></trkpt><trkpt lat="45.210450826367236" lon="8.655879914519076"><ele>104.0</ele><time>2026-05-03T17:54:00.999Z</time></trkpt><trkpt lat="45.210519588988724" lon="8.655771993040382"><ele>104.0</ele><time>2026-05-03T17:54:01.999Z</time></trkpt><trkpt lat="45.21058419051143" lon="8.655677087183973"><ele>104.0</ele><time>2026-05-03T17:54:02.998Z</time></trkpt><trkpt lat="45.21064959362597" lon="8.655579137846116"><ele>104.0</ele><time>2026-05-03T17:54:03.998Z</time></trkpt><trkpt lat="45.21072226318352" lon="8.655471115648526"><ele>104.0</ele><time>2026-05-03T17:54:04.998Z</time></trkpt><trkpt lat="45.2107901989174" lon="8.655371551626343"><ele>104.0</ele><time>2026-05-03T17:54:05.998Z</time></trkpt><trkpt lat="45.21086470002778" lon="8.655255771403331"><ele>104.5</ele><time>2026-05-03T17:54:06.998Z</time></trkpt><trkpt lat="45.21094067153582" lon="8.655117246243167"><ele>105.0</ele><time>2026-05-03T17:54:07.998Z</time></trkpt><trkpt lat="45.21102889637675" lon="8.65498587905108"><ele>105.5</ele><time>2026-05-03T17:54:08.998Z</time></trkpt><trkpt lat="45.21112912709691" lon="8.654853353728438"><ele>106.0</ele><time>2026-05-03T17:54:09.998Z</time></trkpt><trkpt lat="45.2112200807354" lon="8.654713480302554"><ele>106.0</ele><time>2026-05-03T17:54:10.998Z</time></trkpt><trkpt lat="45.211300053192765" lon="8.654578795272121"><ele>106.0</ele><time>2026-05-03T17:54:11.998Z</time></trkpt><trkpt lat="45.21137690629963" lon="8.65445568462505"><ele>106.0</ele><time>2026-05-03T17:54:12.998Z</time></trkpt><trkpt lat="45.21144194743671" lon="8.654365566396788"><ele>106.0</ele><time>2026-05-03T17:54:13.998Z</time></trkpt><trkpt lat="45.21149320495867" lon="8.654289162179275"><ele>106.0</ele><time>2026-05-03T17:54:14.998Z</time></trkpt><trkpt lat="45.21154778429071" lon="8.654208119506137"><ele>106.25</ele><time>2026-05-03T17:54:16.998Z</time></trkpt><trkpt lat="45.211627655788135" lon="8.654049632300834"><ele>106.5</ele><time>2026-05-03T17:54:18.998Z</time></trkpt><trkpt lat="45.2116839243939" lon="8.653926907352071"><ele>106.75</ele><time>2026-05-03T17:54:19.998Z</time></trkpt><trkpt lat="45.21175205265289" lon="8.65379861417509"><ele>107.0</ele><time>2026-05-03T17:54:20.998Z</time></trkpt><trkpt lat="45.21181523587533" lon="8.653670566144283"><ele>107.19999999999999</ele><time>2026-05-03T17:54:21.998Z</time></trkpt><trkpt lat="45.211880576622434" lon="8.653537216631863"><ele>107.39999999999999</ele><time>2026-05-03T17:54:22.998Z</time></trkpt><trkpt lat="45.211942064907824" lon="8.653412657785132"><ele>107.60000000000001</ele><time>2026-05-03T17:54:23.998Z</time></trkpt><trkpt lat="45.21199565125083" lon="8.6532957913935"><ele>107.80000000000001</ele><time>2026-05-03T17:54:24.998Z</time></trkpt><trkpt lat="45.21204469395291" lon="8.653191905931333"><ele>108.0</ele><time>2026-05-03T17:54:25.998Z</time></trkpt><trkpt lat="45.21209559330784" lon="8.653092934899192"><ele>108.0</ele><time>2026-05-03T17:54:26.998Z</time></trkpt><trkpt lat="45.21214151305268" lon="8.652995822532722"><ele>108.00000000000001</ele><time>2026-05-03T17:54:27.998Z</time></trkpt><trkpt lat="45.2122123544824" lon="8.652879447369981"><ele>108.00000000000001</ele><time>2026-05-03T17:54:29.998Z</time></trkpt><trkpt lat="45.21226662122666" lon="8.652825763979868"><ele>108.0</ele><time>2026-05-03T17:54:31.998Z</time></trkpt><trkpt lat="45.21238957464543" lon="8.65296968707886"><ele>108.0</ele><time>2026-05-03T17:54:37.997Z</time></trkpt><trkpt lat="45.212419004171544" lon="8.653064568277921"><ele>108.16666666666667</ele><time>2026-05-03T17:54:38.997Z</time></trkpt><trkpt lat="45.212459232971014" lon="8.653158090654701"><ele>108.33333333333334</ele><time>2026-05-03T17:54:39.997Z</time></trkpt><trkpt lat="45.2125092030877" lon="8.65324401068611"><ele>108.5</ele><time>2026-05-03T17:54:40.997Z</time></trkpt><trkpt lat="45.212563238680495" lon="8.65333719367034"><ele>108.66666666666667</ele><time>2026-05-03T17:54:41.997Z</time></trkpt><trkpt lat="45.21261269628261" lon="8.653431645086537"><ele>108.83333333333334</ele><time>2026-05-03T17:54:42.997Z</time></trkpt><trkpt lat="45.212670764412564" lon="8.653547583488619"><ele>109.0</ele><time>2026-05-03T17:54:43.997Z</time></trkpt><trkpt lat="45.21275542669759" lon="8.653717613257694"><ele>109.00000000000001</ele><time>2026-05-03T17:54:44.997Z</time></trkpt><trkpt lat="45.21281987361685" lon="8.65384103482103"><ele>109.0</ele><time>2026-05-03T17:54:45.997Z</time></trkpt><trkpt lat="45.2128598033052" lon="8.653922572578999"><ele>109.0</ele><time>2026-05-03T17:54:46.997Z</time></trkpt><trkpt lat="45.212899027986296" lon="8.654001743480958"><ele>109.0</ele><time>2026-05-03T17:54:47.997Z</time></trkpt><trkpt lat="45.21293900512634" lon="8.65408714800671"><ele>109.00000000000001</ele><time>2026-05-03T17:54:48.997Z</time></trkpt><trkpt lat="45.21298236197141" lon="8.654173966223077"><ele>109.0</ele><time>2026-05-03T17:54:49.997Z</time></trkpt><trkpt lat="45.21307644248631" lon="8.654375059548304"><ele>109.0</ele><time>2026-05-03T17:54:51.997Z</time></trkpt><trkpt lat="45.21315956662431" lon="8.654529155905593"><ele>109.0</ele><time>2026-05-03T17:54:52.997Z</time></trkpt><trkpt lat="45.21321337609608" lon="8.654633960585015"><ele>109.0</ele><time>2026-05-03T17:54:53.997Z</time></trkpt><trkpt lat="45.21325008350173" lon="8.654710127149814"><ele>109.0</ele><time>2026-05-03T17:54:54.997Z</time></trkpt><trkpt lat="45.213290619997885" lon="8.654783496960993"><ele>109.0</ele><time>2026-05-03T17:54:55.997Z</time></trkpt><trkpt lat="45.2133510964926" lon="8.65488553525073"><ele>109.00000000000001</ele><time>2026-05-03T17:54:57.997Z</time></trkpt><trkpt lat="45.21340872777488" lon="8.654960728023635"><ele>109.0</ele><time>2026-05-03T17:54:59.997Z</time></trkpt><trkpt lat="45.21347732412965" lon="8.654985548180031"><ele>109.0</ele><time>2026-05-03T17:55:01.997Z</time></trkpt><trkpt lat="45.213518640794035" lon="8.65490952118902"><ele>109.0</ele><time>2026-05-03T17:55:06Z</time></trkpt><trkpt lat="45.213482320063186" lon="8.65478124681724"><ele>109.00000000000001</ele><time>2026-05-03T17:55:10Z</time></trkpt><trkpt lat="45.21339009731947" lon="8.654724134267267"><ele>109.0</ele><time>2026-05-03T17:55:12Z</time></trkpt><trkpt lat="45.21328996519521" lon="8.654699192930797"><ele>109.0</ele><time>2026-05-03T17:55:14Z</time></trkpt><trkpt lat="45.21320683383439" lon="8.654648566500544"><ele>109.0</ele><time>2026-05-03T17:55:16Z</time></trkpt><trkpt lat="45.21313159394898" lon="8.65452095541832"><ele>109.0</ele><time>2026-05-03T17:55:18Z</time></trkpt><trkpt lat="45.21309803235383" lon="8.654441303996078"><ele>109.0</ele><time>2026-05-03T17:55:19Z</time></trkpt><trkpt lat="45.21303746131076" lon="8.65431533531054"><ele>109.0</ele><time>2026-05-03T17:55:21Z</time></trkpt><trkpt lat="45.21298289057174" lon="8.65421227652145"><ele>109.0</ele><time>2026-05-03T17:55:23Z</time></trkpt><trkpt lat="45.2129131271905" lon="8.654065725646355"><ele>109.0</ele><time>2026-05-03T17:55:25Z</time></trkpt><trkpt lat="45.21284071494389" lon="8.653920533352936"><ele>109.0</ele><time>2026-05-03T17:55:26Z</time></trkpt><trkpt lat="45.212781026919004" lon="8.653804327404503"><ele>109.0</ele><time>2026-05-03T17:55:27Z</time></trkpt><trkpt lat="45.212723743875834" lon="8.653693812338974"><ele>109.0</ele><time>2026-05-03T17:55:29Z</time></trkpt><trkpt lat="45.21266885229497" lon="8.653589648783115"><ele>109.2</ele><time>2026-05-03T17:55:31Z</time></trkpt><trkpt lat="45.21260766888426" lon="8.653463410337201"><ele>109.4</ele><time>2026-05-03T17:55:33Z</time></trkpt><trkpt lat="45.21256614127721" lon="8.653381362109199"><ele>109.6</ele><time>2026-05-03T17:55:34Z</time></trkpt><trkpt lat="45.212500018779664" lon="8.653254960038701"><ele>109.8</ele><time>2026-05-03T17:55:34.999Z</time></trkpt><trkpt lat="45.212408021109844" lon="8.653094031010063"><ele>110.0</ele><time>2026-05-03T17:55:35.999Z</time></trkpt><trkpt lat="45.212347809505005" lon="8.65297845250202"><ele>109.66666666666666</ele><time>2026-05-03T17:55:36.999Z</time></trkpt><trkpt lat="45.21229564001226" lon="8.65287403854432"><ele>109.33333333333333</ele><time>2026-05-03T17:55:38.999Z</time></trkpt><trkpt lat="45.21220374930767" lon="8.652905732483429"><ele>109.0</ele><time>2026-05-03T17:55:41.999Z</time></trkpt><trkpt lat="45.21215722663977" lon="8.652996232067704"><ele>108.66666666666666</ele><time>2026-05-03T17:55:42.999Z</time></trkpt><trkpt lat="45.21211400520066" lon="8.653081417882145"><ele>108.33333333333333</ele><time>2026-05-03T17:55:43.999Z</time></trkpt><trkpt lat="45.21207587180083" lon="8.653163052971143"><ele>108.0</ele><time>2026-05-03T17:55:44.999Z</time></trkpt><trkpt lat="45.21199523937003" lon="8.653313150294297"><ele>108.0</ele><time>2026-05-03T17:55:46.999Z</time></trkpt><trkpt lat="45.21195099829893" lon="8.65340227651926"><ele>108.00000000000001</ele><time>2026-05-03T17:55:47.999Z</time></trkpt><trkpt lat="45.21190357598835" lon="8.653510822763883"><ele>108.00000000000001</ele><time>2026-05-03T17:55:48.999Z</time></trkpt><trkpt lat="45.21182764306465" lon="8.653660853663581"><ele>108.0</ele><time>2026-05-03T17:55:49.999Z</time></trkpt><trkpt lat="45.21177153579149" lon="8.653761092445816"><ele>108.0</ele><time>2026-05-03T17:55:50.999Z</time></trkpt><trkpt lat="45.2117025854486" lon="8.653888128826738"><ele>107.80000000000001</ele><time>2026-05-03T17:55:52.999Z</time></trkpt><trkpt lat="45.211639911335936" lon="8.65400709953682"><ele>107.60000000000001</ele><time>2026-05-03T17:55:53.999Z</time></trkpt><trkpt lat="45.21157224039357" lon="8.654151633072331"><ele>107.39999999999999</ele><time>2026-05-03T17:55:54.999Z</time></trkpt><trkpt lat="45.21152873148415" lon="8.654233828851662"><ele>107.19999999999999</ele><time>2026-05-03T17:55:55.999Z</time></trkpt><trkpt lat="45.21147225444327" lon="8.654345541233376"><ele>107.0</ele><time>2026-05-03T17:55:57.999Z</time></trkpt><trkpt lat="45.211413303031186" lon="8.654420358222245"><ele>106.75</ele><time>2026-05-03T17:55:59.999Z</time></trkpt><trkpt lat="45.2112915590784" lon="8.654628218673784"><ele>106.5</ele><time>2026-05-03T17:56:12.998Z</time></trkpt><trkpt lat="45.21125002344996" lon="8.65469753512887"><ele>106.25</ele><time>2026-05-03T17:56:13.998Z</time></trkpt><trkpt lat="45.21118293547238" lon="8.65479925650518"><ele>106.0</ele><time>2026-05-03T17:56:14.998Z</time></trkpt><trkpt lat="45.211111654677254" lon="8.654904458646401"><ele>106.00000000000001</ele><time>2026-05-03T17:56:15.998Z</time></trkpt><trkpt lat="45.21106521575618" lon="8.654966414256336"><ele>106.0</ele><time>2026-05-03T17:56:16.998Z</time></trkpt><trkpt lat="45.211019552945245" lon="8.6550329435988"><ele>106.0</ele><time>2026-05-03T17:56:17.998Z</time></trkpt><trkpt lat="45.210963624013665" lon="8.655097936791515"><ele>106.0</ele><time>2026-05-03T17:56:18.998Z</time></trkpt><trkpt lat="45.21088421986061" lon="8.655207746645429"><ele>106.00000000000001</ele><time>2026-05-03T17:56:19.998Z</time></trkpt><trkpt lat="45.21079723956757" lon="8.6553465389171"><ele>106.0</ele><time>2026-05-03T17:56:20.998Z</time></trkpt><trkpt lat="45.210746640000814" lon="8.655454982853357"><ele>106.33333333333334</ele><time>2026-05-03T17:56:21.998Z</time></trkpt><trkpt lat="45.21069399040105" lon="8.655526434241859"><ele>106.66666666666667</ele><time>2026-05-03T17:56:22.998Z</time></trkpt><trkpt lat="45.210636556601216" lon="8.655608543669914"><ele>107.0</ele><time>2026-05-03T17:56:23.998Z</time></trkpt><trkpt lat="45.210577998964744" lon="8.655687802405161"><ele>107.33333333333334</ele><time>2026-05-03T17:56:24.998Z</time></trkpt><trkpt lat="45.21052494352541" lon="8.655779337682539"><ele>107.66666666666667</ele><time>2026-05-03T17:56:25.998Z</time></trkpt><trkpt lat="45.21046475767121" lon="8.655866440174377"><ele>108.0</ele><time>2026-05-03T17:56:26.998Z</time></trkpt><trkpt lat="45.210396408551524" lon="8.655966155054033"><ele>106.75</ele><time>2026-05-03T17:56:27.998Z</time></trkpt><trkpt lat="45.21029198151703" lon="8.656131125970871"><ele>105.5</ele><time>2026-05-03T17:56:28.998Z</time></trkpt><trkpt lat="45.210175376781265" lon="8.656292280550424"><ele>104.25</ele><time>2026-05-03T17:56:29.998Z</time></trkpt><trkpt lat="45.21009175099063" lon="8.656424983651942"><ele>103.0</ele><time>2026-05-03T17:56:30.998Z</time></trkpt><trkpt lat="45.210005578005756" lon="8.656559407928496"><ele>103.0</ele><time>2026-05-03T17:56:31.998Z</time></trkpt><trkpt lat="45.209925130945706" lon="8.656674032253877"><ele>103.0</ele><time>2026-05-03T17:56:32.998Z</time></trkpt><trkpt lat="45.20985188027205" lon="8.656790552731616"><ele>103.0</ele><time>2026-05-03T17:56:33.998Z</time></trkpt><trkpt lat="45.209782621097254" lon="8.656896942963803"><ele>103.0</ele><time>2026-05-03T17:56:34.998Z</time></trkpt><trkpt lat="45.20971597895736" lon="8.656999203154223"><ele>103.0</ele><time>2026-05-03T17:56:35.998Z</time></trkpt><trkpt lat="45.20965824075745" lon="8.65709650054827"><ele>103.2</ele><time>2026-05-03T17:56:36.998Z</time></trkpt><trkpt lat="45.209605417436414" lon="8.657151015446761"><ele>103.4</ele><time>2026-05-03T17:56:37.998Z</time></trkpt><trkpt lat="45.20949610723396" lon="8.657147101168357"><ele>103.60000000000001</ele><time>2026-05-03T17:56:39.998Z</time></trkpt><trkpt lat="45.209433865091555" lon="8.657060477364377"><ele>103.80000000000001</ele><time>2026-05-03T17:56:40.998Z</time></trkpt><trkpt lat="45.20936350484076" lon="8.656935514374018"><ele>104.0</ele><time>2026-05-03T17:56:41.998Z</time></trkpt><trkpt lat="45.209310079629674" lon="8.65681790069227"><ele>104.0</ele><time>2026-05-03T17:56:42.997Z</time></trkpt><trkpt lat="45.209260393459985" lon="8.656742271904362"><ele>104.0</ele><time>2026-05-03T17:56:43.997Z</time></trkpt><trkpt lat="45.20919366895744" lon="8.656753711138913"><ele>104.0</ele><time>2026-05-03T17:56:45.997Z</time></trkpt><trkpt lat="45.209147393841214" lon="8.656832650742626"><ele>104.0</ele><time>2026-05-03T17:56:46.997Z</time></trkpt><trkpt lat="45.209067602723565" lon="8.656958966175761"><ele>104.0</ele><time>2026-05-03T17:56:47.997Z</time></trkpt><trkpt lat="45.20895248435908" lon="8.657099933854646"><ele>104.0</ele><time>2026-05-03T17:56:48.997Z</time></trkpt><trkpt lat="45.20883216409189" lon="8.657218476193462"><ele>104.0</ele><time>2026-05-03T17:56:49.997Z</time></trkpt><trkpt lat="45.20868783703117" lon="8.657372952529682"><ele>104.0</ele><time>2026-05-03T17:56:50.997Z</time></trkpt><trkpt lat="45.20856198019624" lon="8.657545430389908"><ele>104.0</ele><time>2026-05-03T17:56:51.997Z</time></trkpt><trkpt lat="45.20843707850659" lon="8.657724205420076"><ele>104.0</ele><time>2026-05-03T17:56:52.997Z</time></trkpt><trkpt lat="45.20832234727991" lon="8.657898126865215"><ele>104.0</ele><time>2026-05-03T17:56:53.997Z</time></trkpt><trkpt lat="45.20819237395594" lon="8.65810173578719"><ele>104.0</ele><time>2026-05-03T17:56:54.997Z</time></trkpt><trkpt lat="45.208070330507304" lon="8.658293347977091"><ele>104.0</ele><time>2026-05-03T17:56:55.997Z</time></trkpt><trkpt lat="45.207958732278584" lon="8.65846462259111"><ele>104.0</ele><time>2026-05-03T17:56:56.997Z</time></trkpt><trkpt lat="45.207864471671634" lon="8.658613009100948"><ele>104.4</ele><time>2026-05-03T17:56:57.997Z</time></trkpt><trkpt lat="45.20777323577717" lon="8.658750817002089"><ele>104.80000000000001</ele><time>2026-05-03T17:56:58.997Z</time></trkpt><trkpt lat="45.207692260837725" lon="8.658882785385874"><ele>105.19999999999999</ele><time>2026-05-03T17:56:59.997Z</time></trkpt><trkpt lat="45.20762613619808" lon="8.658997839145936"><ele>105.6</ele><time>2026-05-03T17:57:00.997Z</time></trkpt><trkpt lat="45.207571297190974" lon="8.659062779879443"><ele>106.0</ele><time>2026-05-03T17:57:01.997Z</time></trkpt><trkpt lat="45.2074587291802" lon="8.659066080399175"><ele>106.0</ele><time>2026-05-03T17:57:03.997Z</time></trkpt><trkpt lat="45.20737606815775" lon="8.658994972511215"><ele>106.0</ele><time>2026-05-03T17:57:04.997Z</time></trkpt><trkpt lat="45.20728463176667" lon="8.658857650372456"><ele>106.0</ele><time>2026-05-03T17:57:05.997Z</time></trkpt><trkpt lat="45.2071707516737" lon="8.658697797134998"><ele>106.0</ele><time>2026-05-03T17:57:06.997Z</time></trkpt><trkpt lat="45.20703740836762" lon="8.658548304814751"><ele>105.66666666666667</ele><time>2026-05-03T17:57:07.997Z</time></trkpt><trkpt lat="45.206916011922715" lon="8.65839818667089"><ele>105.33333333333334</ele><time>2026-05-03T17:57:08.997Z</time></trkpt><trkpt lat="45.206803110079285" lon="8.658260104266756"><ele>105.0</ele><time>2026-05-03T17:57:09.997Z</time></trkpt><trkpt lat="45.20669360055562" lon="8.65813014014685"><ele>105.0</ele><time>2026-05-03T17:57:10.997Z</time></trkpt><trkpt lat="45.206583420120424" lon="8.658003325388147"><ele>105.0</ele><time>2026-05-03T17:57:12Z</time></trkpt><trkpt lat="45.20649700443468" lon="8.657905281812187"><ele>105.0</ele><time>2026-05-03T17:57:13Z</time></trkpt><trkpt lat="45.206427813947585" lon="8.65782708926826"><ele>105.0</ele><time>2026-05-03T17:57:14Z</time></trkpt><trkpt lat="45.20635718331463" lon="8.657752181280683"><ele>105.0</ele><time>2026-05-03T17:57:16Z</time></trkpt><trkpt lat="45.20632000837582" lon="8.65786273974632"><ele>104.0</ele><time>2026-05-03T17:57:18Z</time></trkpt><trkpt lat="45.20630054463914" lon="8.658002624278069"><ele>103.0</ele><time>2026-05-03T17:57:19Z</time></trkpt><trkpt lat="45.206273219686686" lon="8.658179830155905"><ele>102.0</ele><time>2026-05-03T17:57:20Z</time></trkpt><trkpt lat="45.20622812250124" lon="8.658389537730326"><ele>101.0</ele><time>2026-05-03T17:57:21Z</time></trkpt><trkpt lat="45.206181315435835" lon="8.658623709024459"><ele>101.0</ele><time>2026-05-03T17:57:22Z</time></trkpt><trkpt lat="45.206146781605376" lon="8.658887117945245"><ele>101.0</ele><time>2026-05-03T17:57:23Z</time></trkpt><trkpt lat="45.206111654104035" lon="8.659110848349336"><ele>101.0</ele><time>2026-05-03T17:57:24Z</time></trkpt><trkpt lat="45.20607875844427" lon="8.659305836441911"><ele>101.0</ele><time>2026-05-03T17:57:25Z</time></trkpt><trkpt lat="45.20604827663176" lon="8.659478798444582"><ele>101.0</ele><time>2026-05-03T17:57:26Z</time></trkpt><trkpt lat="45.206018929513135" lon="8.65964453385689"><ele>101.0</ele><time>2026-05-03T17:57:27Z</time></trkpt><trkpt lat="45.20598791865378" lon="8.65982618168448"><ele>101.0</ele><time>2026-05-03T17:57:28Z</time></trkpt><trkpt lat="45.20595932104082" lon="8.659999860710347"><ele>100.99999999999999</ele><time>2026-05-03T17:57:29Z</time></trkpt><trkpt lat="45.20593249832419" lon="8.660147728552356"><ele>101.0</ele><time>2026-05-03T17:57:30Z</time></trkpt><trkpt lat="45.20591459414205" lon="8.660260796935548"><ele>101.0</ele><time>2026-05-03T17:57:31Z</time></trkpt><trkpt lat="45.20589967396141" lon="8.660349379997644"><ele>101.0</ele><time>2026-05-03T17:57:32Z</time></trkpt><trkpt lat="45.2058757146442" lon="8.660472844619004"><ele>100.99999999999999</ele><time>2026-05-03T17:57:33Z</time></trkpt><trkpt lat="45.205841152733996" lon="8.660609089673185"><ele>101.0</ele><time>2026-05-03T17:57:34Z</time></trkpt><trkpt lat="45.205806297801196" lon="8.660758174179668"><ele>101.19999999999999</ele><time>2026-05-03T17:57:35Z</time></trkpt><trkpt lat="45.205764527816626" lon="8.660921295448285"><ele>101.39999999999999</ele><time>2026-05-03T17:57:36Z</time></trkpt><trkpt lat="45.20571895512319" lon="8.66107326678738"><ele>101.6</ele><time>2026-05-03T17:57:37Z</time></trkpt><trkpt lat="45.20567525253519" lon="8.661205319403448"><ele>101.8</ele><time>2026-05-03T17:57:38Z</time></trkpt><trkpt lat="45.205633056222275" lon="8.661331074484288"><ele>102.0</ele><time>2026-05-03T17:57:39Z</time></trkpt><trkpt lat="45.205591306492934" lon="8.661440784726581"><ele>101.66666666666667</ele><time>2026-05-03T17:57:39.999Z</time></trkpt><trkpt lat="45.20555390004571" lon="8.661548249330924"><ele>101.33333333333334</ele><time>2026-05-03T17:57:40.999Z</time></trkpt><trkpt lat="45.20552505177685" lon="8.661647629820758"><ele>101.0</ele><time>2026-05-03T17:57:41.999Z</time></trkpt><trkpt lat="45.205495081595316" lon="8.661754364808674"><ele>100.66666666666667</ele><time>2026-05-03T17:57:42.999Z</time></trkpt><trkpt lat="45.20546871024152" lon="8.661862333943759"><ele>100.33333333333334</ele><time>2026-05-03T17:57:43.999Z</time></trkpt><trkpt lat="45.205446760087696" lon="8.661964345861655"><ele>100.0</ele><time>2026-05-03T17:57:44.999Z</time></trkpt><trkpt lat="45.205415654075885" lon="8.66213066863169"><ele>100.0</ele><time>2026-05-03T17:57:46.999Z</time></trkpt><trkpt lat="45.20543616099202" lon="8.662236249452253"><ele>100.0</ele><time>2026-05-03T17:57:48.999Z</time></trkpt><trkpt lat="45.20556281815782" lon="8.662304160257262"><ele>100.0</ele><time>2026-05-03T17:57:50.999Z</time></trkpt><trkpt lat="45.205657227652985" lon="8.662332788149982"><ele>100.0</ele><time>2026-05-03T17:57:51.999Z</time></trkpt><trkpt lat="45.205730906982026" lon="8.662409695270549"><ele>100.0</ele><time>2026-05-03T17:57:52.999Z</time></trkpt><trkpt lat="45.205789524965866" lon="8.662498846643159"><ele>100.33333333333334</ele><time>2026-05-03T17:57:53.999Z</time></trkpt><trkpt lat="45.20585920037533" lon="8.662598795944906"><ele>100.66666666666667</ele><time>2026-05-03T17:57:54.999Z</time></trkpt><trkpt lat="45.20593387591246" lon="8.662679826938724"><ele>101.0</ele><time>2026-05-03T17:57:55.999Z</time></trkpt><trkpt lat="45.20600053969194" lon="8.66276025290588"><ele>101.33333333333334</ele><time>2026-05-03T17:57:56.999Z</time></trkpt><trkpt lat="45.2060667815223" lon="8.662837206561443"><ele>101.66666666666667</ele><time>2026-05-03T17:57:57.999Z</time></trkpt><trkpt lat="45.20612868765154" lon="8.662908726447654"><ele>102.0</ele><time>2026-05-03T17:57:58.999Z</time></trkpt><trkpt lat="45.20620300145777" lon="8.662990277176782"><ele>102.0</ele><time>2026-05-03T17:57:59.999Z</time></trkpt><trkpt lat="45.20627846495951" lon="8.663065737852376"><ele>102.0</ele><time>2026-05-03T17:58:00.999Z</time></trkpt><trkpt lat="45.20634555112009" lon="8.66313020301545"><ele>102.0</ele><time>2026-05-03T17:58:01.999Z</time></trkpt><trkpt lat="45.20643056897895" lon="8.66318303057236"><ele>102.0</ele><time>2026-05-03T17:58:02.999Z</time></trkpt><trkpt lat="45.20650779771523" lon="8.663207266514123"><ele>102.0</ele><time>2026-05-03T17:58:03.999Z</time></trkpt><trkpt lat="45.20659490913732" lon="8.663228346700661"><ele>102.0</ele><time>2026-05-03T17:58:05.999Z</time></trkpt><trkpt lat="45.20665994819595" lon="8.663174707278161"><ele>102.25</ele><time>2026-05-03T17:58:07.999Z</time></trkpt><trkpt lat="45.20672525652759" lon="8.663086838917433"><ele>102.5</ele><time>2026-05-03T17:58:08.999Z</time></trkpt><trkpt lat="45.20681725742964" lon="8.662939004654362"><ele>102.75</ele><time>2026-05-03T17:58:09.999Z</time></trkpt><trkpt lat="45.20690981600063" lon="8.662798514303523"><ele>103.0</ele><time>2026-05-03T17:58:10.999Z</time></trkpt><trkpt lat="45.206996180331195" lon="8.662670249324028"><ele>103.0</ele><time>2026-05-03T17:58:11.999Z</time></trkpt><trkpt lat="45.207066256659296" lon="8.662560313749024"><ele>103.0</ele><time>2026-05-03T17:58:12.998Z</time></trkpt><trkpt lat="45.2071102365192" lon="8.662465193097482"><ele>103.0</ele><time>2026-05-03T17:58:13.998Z</time></trkpt><trkpt lat="45.20717538449544" lon="8.662392575717373"><ele>103.0</ele><time>2026-05-03T17:58:14.998Z</time></trkpt><trkpt lat="45.20723660421525" lon="8.6622943589942"><ele>103.0</ele><time>2026-05-03T17:58:15.998Z</time></trkpt><trkpt lat="45.20731183761787" lon="8.662170780623804"><ele>103.2</ele><time>2026-05-03T17:58:16.998Z</time></trkpt><trkpt lat="45.207390433196515" lon="8.66205452988761"><ele>103.4</ele><time>2026-05-03T17:58:17.998Z</time></trkpt><trkpt lat="45.20746307913433" lon="8.661947721019951"><ele>103.60000000000001</ele><time>2026-05-03T17:58:18.998Z</time></trkpt><trkpt lat="45.20753396063213" lon="8.66186555567722"><ele>103.80000000000001</ele><time>2026-05-03T17:58:19.998Z</time></trkpt><trkpt lat="45.207601562835244" lon="8.661771220690841"><ele>104.0</ele><time>2026-05-03T17:58:20.998Z</time></trkpt><trkpt lat="45.20766482658143" lon="8.661624457475178"><ele>104.5</ele><time>2026-05-03T17:58:21.998Z</time></trkpt><trkpt lat="45.20772966840486" lon="8.661427199254208"><ele>105.0</ele><time>2026-05-03T17:58:22.998Z</time></trkpt><trkpt lat="45.20778760736857" lon="8.661240732100518"><ele>105.5</ele><time>2026-05-03T17:58:23.998Z</time></trkpt><trkpt lat="45.20784557017527" lon="8.661090225220825"><ele>106.0</ele><time>2026-05-03T17:58:24.998Z</time></trkpt><trkpt lat="45.207895200879776" lon="8.660956457324115"><ele>106.0</ele><time>2026-05-03T17:58:25.998Z</time></trkpt><trkpt lat="45.20795670036517" lon="8.660837275257656"><ele>106.0</ele><time>2026-05-03T17:58:26.998Z</time></trkpt><trkpt lat="45.20805496815981" lon="8.660693647052396"><ele>106.0</ele><time>2026-05-03T17:58:27.998Z</time></trkpt><trkpt lat="45.20816460492107" lon="8.660530950264604"><ele>106.0</ele><time>2026-05-03T17:58:28.998Z</time></trkpt><trkpt lat="45.20826910331676" lon="8.660374610053791"><ele>105.75</ele><time>2026-05-03T17:58:29.998Z</time></trkpt><trkpt lat="45.20835165400502" lon="8.660246009291125"><ele>105.5</ele><time>2026-05-03T17:58:30.998Z</time></trkpt><trkpt lat="45.208439270947885" lon="8.660121946184496"><ele>105.25</ele><time>2026-05-03T17:58:31.998Z</time></trkpt><trkpt lat="45.20851087684417" lon="8.659991423964886"><ele>105.0</ele><time>2026-05-03T17:58:32.998Z</time></trkpt><trkpt lat="45.20860403235629" lon="8.659861063327524"><ele>105.0</ele><time>2026-05-03T17:58:33.998Z</time></trkpt><trkpt lat="45.20870601343469" lon="8.659738374827239"><ele>105.0</ele><time>2026-05-03T17:58:34.998Z</time></trkpt><trkpt lat="45.20881073138667" lon="8.659635209141333"><ele>105.0</ele><time>2026-05-03T17:58:35.998Z</time></trkpt><trkpt lat="45.208910708955365" lon="8.659508625619651"><ele>105.0</ele><time>2026-05-03T17:58:36.998Z</time></trkpt><trkpt lat="45.20900634811831" lon="8.659381183222484"><ele>104.75</ele><time>2026-05-03T17:58:37.998Z</time></trkpt><trkpt lat="45.20911511281238" lon="8.659259870695411"><ele>104.5</ele><time>2026-05-03T17:58:38.998Z</time></trkpt><trkpt lat="45.20921474933963" lon="8.659142714745888"><ele>104.25</ele><time>2026-05-03T17:58:39.998Z</time></trkpt><trkpt lat="45.20932207053256" lon="8.659031736609466"><ele>104.0</ele><time>2026-05-03T17:58:40.998Z</time></trkpt><trkpt lat="45.209427509577885" lon="8.65892283389443"><ele>104.0</ele><time>2026-05-03T17:58:41.998Z</time></trkpt><trkpt lat="45.20954418908493" lon="8.658807818243256"><ele>104.0</ele><time>2026-05-03T17:58:42.998Z</time></trkpt><trkpt lat="45.20966252992206" lon="8.65867213734511"><ele>104.0</ele><time>2026-05-03T17:58:43.998Z</time></trkpt><trkpt lat="45.20978124812312" lon="8.658512199788731"><ele>104.33333333333333</ele><time>2026-05-03T17:58:44.998Z</time></trkpt><trkpt lat="45.20991324164255" lon="8.658342726251012"><ele>104.66666666666666</ele><time>2026-05-03T17:58:45.998Z</time></trkpt><trkpt lat="45.210053595158186" lon="8.658186751948058"><ele>105.0</ele><time>2026-05-03T17:58:46.997Z</time></trkpt><trkpt lat="45.210187204807546" lon="8.658046431532583"><ele>105.0</ele><time>2026-05-03T17:58:47.997Z</time></trkpt><trkpt lat="45.21030962669551" lon="8.657927039675641"><ele>105.0</ele><time>2026-05-03T17:58:48.997Z</time></trkpt><trkpt lat="45.21043488868174" lon="8.65780462389894"><ele>105.0</ele><time>2026-05-03T17:58:49.997Z</time></trkpt><trkpt lat="45.21055926178301" lon="8.657660485579562"><ele>105.0</ele><time>2026-05-03T17:58:50.997Z</time></trkpt><trkpt lat="45.21068549137408" lon="8.65753188233792"><ele>105.0</ele><time>2026-05-03T17:58:51.997Z</time></trkpt><trkpt lat="45.21080430089971" lon="8.657400783862649"><ele>105.0</ele><time>2026-05-03T17:58:52.997Z</time></trkpt><trkpt lat="45.21092112499932" lon="8.657283415577714"><ele>105.0</ele><time>2026-05-03T17:58:53.997Z</time></trkpt><trkpt lat="45.211044270608284" lon="8.6571718315897"><ele>105.0</ele><time>2026-05-03T17:58:54.997Z</time></trkpt><trkpt lat="45.21116330579751" lon="8.65706582624861"><ele>105.0</ele><time>2026-05-03T17:58:55.997Z</time></trkpt><trkpt lat="45.21126365040736" lon="8.656989366060595"><ele>105.0</ele><time>2026-05-03T17:58:56.997Z</time></trkpt><trkpt lat="45.21137187507589" lon="8.656915520926587"><ele>105.0</ele><time>2026-05-03T17:58:57.997Z</time></trkpt><trkpt lat="45.21146627102038" lon="8.656838568363868"><ele>106.0</ele><time>2026-05-03T17:58:58.997Z</time></trkpt><trkpt lat="45.211552374102574" lon="8.656754386909032"><ele>107.0</ele><time>2026-05-03T17:58:59.997Z</time></trkpt><trkpt lat="45.21162759644073" lon="8.656681145917426"><ele>108.0</ele><time>2026-05-03T17:59:00.997Z</time></trkpt><trkpt lat="45.211718714505444" lon="8.656579944201717"><ele>109.0</ele><time>2026-05-03T17:59:01.997Z</time></trkpt><trkpt lat="45.211784358783454" lon="8.656449881640219"><ele>110.0</ele><time>2026-05-03T17:59:02.997Z</time></trkpt><trkpt lat="45.211871099945625" lon="8.656388660564371"><ele>109.99999999999999</ele><time>2026-05-03T17:59:03.997Z</time></trkpt><trkpt lat="45.211939590186056" lon="8.656311984173842"><ele>110.0</ele><time>2026-05-03T17:59:04.997Z</time></trkpt><trkpt lat="45.2120092448628" lon="8.656246768225667"><ele>110.0</ele><time>2026-05-03T17:59:05.997Z</time></trkpt><trkpt lat="45.21206931868613" lon="8.656177020605963"><ele>110.0</ele><time>2026-05-03T17:59:06.997Z</time></trkpt><trkpt lat="45.212133318783806" lon="8.6561034025256"><ele>109.99999999999999</ele><time>2026-05-03T17:59:07.997Z</time></trkpt><trkpt lat="45.212214208404305" lon="8.656053246789691"><ele>110.0</ele><time>2026-05-03T17:59:08.997Z</time></trkpt><trkpt lat="45.21229360733797" lon="8.65598680934899"><ele>110.2</ele><time>2026-05-03T17:59:09.997Z</time></trkpt><trkpt lat="45.21236964993751" lon="8.655911596132164"><ele>110.4</ele><time>2026-05-03T17:59:10.997Z</time></trkpt><trkpt lat="45.21245239780503" lon="8.655824044744444"><ele>110.6</ele><time>2026-05-03T17:59:11.997Z</time></trkpt><trkpt lat="45.21253857643543" lon="8.65576128759872"><ele>110.8</ele><time>2026-05-03T17:59:12.997Z</time></trkpt><trkpt lat="45.212635766570415" lon="8.655702110998869"><ele>111.0</ele><time>2026-05-03T17:59:13.997Z</time></trkpt><trkpt lat="45.212751133161824" lon="8.65564098551228"><ele>111.0</ele><time>2026-05-03T17:59:14.997Z</time></trkpt><trkpt lat="45.21287648637524" lon="8.655599678680083"><ele>111.0</ele><time>2026-05-03T17:59:15.997Z</time></trkpt><trkpt lat="45.21301036761516" lon="8.655574692696637"><ele>111.0</ele><time>2026-05-03T17:59:16.997Z</time></trkpt><trkpt lat="45.21313732344884" lon="8.6555567506796"><ele>111.0</ele><time>2026-05-03T17:59:18Z</time></trkpt><trkpt lat="45.2132504366588" lon="8.65551859750905"><ele>110.5</ele><time>2026-05-03T17:59:19Z</time></trkpt><trkpt lat="45.213351455088" lon="8.655468006473333"><ele>110.0</ele><time>2026-05-03T17:59:20Z</time></trkpt><trkpt lat="45.213452960889605" lon="8.655380091708398"><ele>109.5</ele><time>2026-05-03T17:59:21Z</time></trkpt><trkpt lat="45.213554491013056" lon="8.655270135734844"><ele>109.0</ele><time>2026-05-03T17:59:22Z</time></trkpt><trkpt lat="45.21366366257648" lon="8.655168535082533"><ele>109.0</ele><time>2026-05-03T17:59:23Z</time></trkpt><trkpt lat="45.2137671586413" lon="8.655067780549778"><ele>109.0</ele><time>2026-05-03T17:59:24Z</time></trkpt><trkpt lat="45.21388790410244" lon="8.65497757717807"><ele>109.0</ele><time>2026-05-03T17:59:25Z</time></trkpt><trkpt lat="45.21402201838998" lon="8.654878000538828"><ele>109.0</ele><time>2026-05-03T17:59:26Z</time></trkpt><trkpt lat="45.214148450815" lon="8.654779221094131"><ele>108.25</ele><time>2026-05-03T17:59:27Z</time></trkpt><trkpt lat="45.21426311525295" lon="8.65469450596989"><ele>107.5</ele><time>2026-05-03T17:59:28Z</time></trkpt><trkpt lat="45.214360376489054" lon="8.654614125204315"><ele>106.75</ele><time>2026-05-03T17:59:29Z</time></trkpt><trkpt lat="45.21445712912223" lon="8.654539445928346"><ele>106.0</ele><time>2026-05-03T17:59:30Z</time></trkpt><trkpt lat="45.21454562896405" lon="8.654475464686074"><ele>105.83333333333334</ele><time>2026-05-03T17:59:31Z</time></trkpt><trkpt lat="45.214625812451075" lon="8.654410119365844"><ele>105.66666666666667</ele><time>2026-05-03T17:59:32Z</time></trkpt><trkpt lat="45.21470067559102" lon="8.654349141157232"><ele>105.5</ele><time>2026-05-03T17:59:33Z</time></trkpt><trkpt lat="45.214767347880475" lon="8.654299226043594"><ele>105.33333333333334</ele><time>2026-05-03T17:59:34Z</time></trkpt><trkpt lat="45.21484782566018" lon="8.654228414756822"><ele>105.16666666666667</ele><time>2026-05-03T17:59:36Z</time></trkpt><trkpt lat="45.21492717574882" lon="8.654219954338048"><ele>105.0</ele><time>2026-05-03T17:59:41Z</time></trkpt><trkpt lat="45.21500718182837" lon="8.654320093824083"><ele>105.0</ele><time>2026-05-03T17:59:44Z</time></trkpt><trkpt lat="45.21504556719567" lon="8.654400968717143"><ele>105.0</ele><time>2026-05-03T17:59:45Z</time></trkpt><trkpt lat="45.21509461219467" lon="8.6545006540608"><ele>105.0</ele><time>2026-05-03T17:59:46Z</time></trkpt><trkpt lat="45.21514922837579" lon="8.654609254338428"><ele>105.0</ele><time>2026-05-03T17:59:46.999Z</time></trkpt><trkpt lat="45.21521130967319" lon="8.654719095994311"><ele>105.0</ele><time>2026-05-03T17:59:47.999Z</time></trkpt><trkpt lat="45.215284751693545" lon="8.654838070019048"><ele>105.0</ele><time>2026-05-03T17:59:48.999Z</time></trkpt><trkpt lat="45.21536168917681" lon="8.654959826113787"><ele>105.0</ele><time>2026-05-03T17:59:49.999Z</time></trkpt><trkpt lat="45.21544327483405" lon="8.65509304609108"><ele>105.0</ele><time>2026-05-03T17:59:50.999Z</time></trkpt><trkpt lat="45.21552390983696" lon="8.655226928848442"><ele>105.0</ele><time>2026-05-03T17:59:51.999Z</time></trkpt><trkpt lat="45.21561057984217" lon="8.655360998083308"><ele>105.25</ele><time>2026-05-03T17:59:52.999Z</time></trkpt><trkpt lat="45.21570090260524" lon="8.655505652553478"><ele>105.5</ele><time>2026-05-03T17:59:53.999Z</time></trkpt><trkpt lat="45.21579141152498" lon="8.655652302415337"><ele>105.75</ele><time>2026-05-03T17:59:54.999Z</time></trkpt><trkpt lat="45.215886060531524" lon="8.655807308906613"><ele>106.0</ele><time>2026-05-03T17:59:55.999Z</time></trkpt><trkpt lat="45.2159980736592" lon="8.655974116269027"><ele>105.66666666666667</ele><time>2026-05-03T17:59:56.999Z</time></trkpt><trkpt lat="45.216113802054494" lon="8.656141463343136"><ele>105.33333333333334</ele><time>2026-05-03T17:59:57.999Z</time></trkpt><trkpt lat="45.21622559959114" lon="8.656313223049596"><ele>105.0</ele><time>2026-05-03T17:59:58.999Z</time></trkpt><trkpt lat="45.216333556278975" lon="8.656482058608951"><ele>105.0</ele><time>2026-05-03T17:59:59.999Z</time></trkpt><trkpt lat="45.21643652063508" lon="8.656643208657778"><ele>105.0</ele><time>2026-05-03T18:00:00.999Z</time></trkpt><trkpt lat="45.21654178532493" lon="8.656806807438"><ele>105.0</ele><time>2026-05-03T18:00:01.999Z</time></trkpt><trkpt lat="45.21663769906816" lon="8.656983566700589"><ele>105.0</ele><time>2026-05-03T18:00:02.999Z</time></trkpt><trkpt lat="45.21674255998898" lon="8.657149919511427"><ele>105.0</ele><time>2026-05-03T18:00:03.999Z</time></trkpt><trkpt lat="45.21685685939133" lon="8.657298256387044"><ele>105.0</ele><time>2026-05-03T18:00:04.999Z</time></trkpt><trkpt lat="45.216956416443516" lon="8.657461392932117"><ele>105.0</ele><time>2026-05-03T18:00:05.999Z</time></trkpt><trkpt lat="45.21705916607794" lon="8.657626107473293"><ele>105.0</ele><time>2026-05-03T18:00:06.999Z</time></trkpt><trkpt lat="45.217162307621216" lon="8.657786533020197"><ele>105.0</ele><time>2026-05-03T18:00:07.999Z</time></trkpt><trkpt lat="45.21726261643499" lon="8.657946973912637"><ele>106.66666666666666</ele><time>2026-05-03T18:00:08.999Z</time></trkpt><trkpt lat="45.21736492977489" lon="8.658107926861723"><ele>108.33333333333333</ele><time>2026-05-03T18:00:09.999Z</time></trkpt><trkpt lat="45.217466944185766" lon="8.658265293527153"><ele>110.0</ele><time>2026-05-03T18:00:10.999Z</time></trkpt><trkpt lat="45.21756818072933" lon="8.658424360184451"><ele>110.0</ele><time>2026-05-03T18:00:11.999Z</time></trkpt><trkpt lat="45.21766324060682" lon="8.658577132708281"><ele>110.0</ele><time>2026-05-03T18:00:12.999Z</time></trkpt><trkpt lat="45.2177600367994" lon="8.658730329498953"><ele>110.0</ele><time>2026-05-03T18:00:13.999Z</time></trkpt><trkpt lat="45.21786158514828" lon="8.65888845053051"><ele>110.0</ele><time>2026-05-03T18:00:14.999Z</time></trkpt><trkpt lat="45.21796137945886" lon="8.65904441672413"><ele>109.66666666666666</ele><time>2026-05-03T18:00:15.999Z</time></trkpt><trkpt lat="45.21806171756857" lon="8.659203958849345"><ele>109.33333333333334</ele><time>2026-05-03T18:00:16.999Z</time></trkpt><trkpt lat="45.218160416572644" lon="8.659366512289338"><ele>109.0</ele><time>2026-05-03T18:00:17.999Z</time></trkpt><trkpt lat="45.218258980583265" lon="8.659530489690443"><ele>109.0</ele><time>2026-05-03T18:00:18.999Z</time></trkpt><trkpt lat="45.21836282599948" lon="8.659695651726162"><ele>109.0</ele><time>2026-05-03T18:00:19.999Z</time></trkpt><trkpt lat="45.21846590242938" lon="8.659860241973675"><ele>109.0</ele><time>2026-05-03T18:00:20.998Z</time></trkpt><trkpt lat="45.218567615033514" lon="8.660019462937463"><ele>109.0</ele><time>2026-05-03T18:00:21.998Z</time></trkpt><trkpt lat="45.218671762247936" lon="8.660184995065357"><ele>109.0</ele><time>2026-05-03T18:00:22.998Z</time></trkpt><trkpt lat="45.21877719141685" lon="8.660349718224762"><ele>109.0</ele><time>2026-05-03T18:00:23.998Z</time></trkpt><trkpt lat="45.218882317576174" lon="8.660511786999932"><ele>108.0</ele><time>2026-05-03T18:00:24.998Z</time></trkpt><trkpt lat="45.21897736811733" lon="8.660667728540426"><ele>107.0</ele><time>2026-05-03T18:00:25.998Z</time></trkpt><trkpt lat="45.219079523617765" lon="8.660831435011174"><ele>106.0</ele><time>2026-05-03T18:00:26.998Z</time></trkpt><trkpt lat="45.21918301562271" lon="8.660993178740508"><ele>106.33333333333334</ele><time>2026-05-03T18:00:27.998Z</time></trkpt><trkpt lat="45.21928448756786" lon="8.66115183154417"><ele>106.66666666666666</ele><time>2026-05-03T18:00:28.998Z</time></trkpt><trkpt lat="45.21938578235572" lon="8.661312979132562"><ele>107.0</ele><time>2026-05-03T18:00:29.998Z</time></trkpt><trkpt lat="45.21948023561139" lon="8.661472540679714"><ele>107.0</ele><time>2026-05-03T18:00:30.998Z</time></trkpt><trkpt lat="45.21957988665598" lon="8.661635750619926"><ele>107.0</ele><time>2026-05-03T18:00:31.998Z</time></trkpt><trkpt lat="45.21968307830169" lon="8.661791609592749"><ele>107.0</ele><time>2026-05-03T18:00:32.998Z</time></trkpt><trkpt lat="45.21978717065574" lon="8.661951858859986"><ele>107.33333333333333</ele><time>2026-05-03T18:00:33.998Z</time></trkpt><trkpt lat="45.21988843116494" lon="8.662114660866617"><ele>107.66666666666666</ele><time>2026-05-03T18:00:34.998Z</time></trkpt><trkpt lat="45.21998688838199" lon="8.662273849369903"><ele>108.0</ele><time>2026-05-03T18:00:35.998Z</time></trkpt><trkpt lat="45.22008359015329" lon="8.662443445236805"><ele>108.0</ele><time>2026-05-03T18:00:36.998Z</time></trkpt><trkpt lat="45.22017246666564" lon="8.662621633599326"><ele>108.0</ele><time>2026-05-03T18:00:37.998Z</time></trkpt><trkpt lat="45.220260591602624" lon="8.662808283845544"><ele>108.0</ele><time>2026-05-03T18:00:38.998Z</time></trkpt><trkpt lat="45.22034305170204" lon="8.662999508119826"><ele>107.66666666666666</ele><time>2026-05-03T18:00:39.998Z</time></trkpt><trkpt lat="45.22042294934426" lon="8.66319107038711"><ele>107.33333333333333</ele><time>2026-05-03T18:00:40.998Z</time></trkpt><trkpt lat="45.22049851288985" lon="8.663380973614776"><ele>107.0</ele><time>2026-05-03T18:00:41.998Z</time></trkpt><trkpt lat="45.22057728420039" lon="8.663566525890282"><ele>106.33333333333333</ele><time>2026-05-03T18:00:42.998Z</time></trkpt><trkpt lat="45.220655465573074" lon="8.663752312022066"><ele>105.66666666666666</ele><time>2026-05-03T18:00:43.998Z</time></trkpt><trkpt lat="45.2207365606493" lon="8.663940268835914"><ele>105.0</ele><time>2026-05-03T18:00:44.998Z</time></trkpt><trkpt lat="45.22081702679835" lon="8.664128556510107"><ele>105.0</ele><time>2026-05-03T18:00:45.998Z</time></trkpt><trkpt lat="45.22089671712948" lon="8.664322829701668"><ele>105.0</ele><time>2026-05-03T18:00:46.998Z</time></trkpt><trkpt lat="45.22097606915129" lon="8.664510780474348"><ele>105.0</ele><time>2026-05-03T18:00:47.998Z</time></trkpt><trkpt lat="45.22105972993921" lon="8.664704677325025"><ele>105.25</ele><time>2026-05-03T18:00:48.998Z</time></trkpt><trkpt lat="45.22114106118447" lon="8.66489665996256"><ele>105.5</ele><time>2026-05-03T18:00:49.998Z</time></trkpt><trkpt lat="45.221215568428185" lon="8.665076501992129"><ele>105.75</ele><time>2026-05-03T18:00:50.998Z</time></trkpt><trkpt lat="45.2212861292376" lon="8.6652473583166"><ele>106.0</ele><time>2026-05-03T18:00:51.998Z</time></trkpt><trkpt lat="45.221361359996536" lon="8.665425272318927"><ele>106.0</ele><time>2026-05-03T18:00:52.998Z</time></trkpt><trkpt lat="45.22143740979591" lon="8.665607005520968"><ele>106.0</ele><time>2026-05-03T18:00:53.998Z</time></trkpt><trkpt lat="45.22151161792849" lon="8.665791252913145"><ele>106.0</ele><time>2026-05-03T18:00:54.997Z</time></trkpt><trkpt lat="45.22158852874107" lon="8.665980736976898"><ele>106.0</ele><time>2026-05-03T18:00:55.997Z</time></trkpt><trkpt lat="45.22166846121965" lon="8.66617380255197"><ele>106.0</ele><time>2026-05-03T18:00:56.997Z</time></trkpt><trkpt lat="45.22175017006403" lon="8.666366666565084"><ele>106.0</ele><time>2026-05-03T18:00:57.997Z</time></trkpt><trkpt lat="45.2218329473727" lon="8.666561952987479"><ele>106.0</ele><time>2026-05-03T18:00:58.997Z</time></trkpt><trkpt lat="45.221914755736115" lon="8.666753866277618"><ele>106.0</ele><time>2026-05-03T18:00:59.997Z</time></trkpt><trkpt lat="45.22199507194416" lon="8.66695037463264"><ele>106.0</ele><time>2026-05-03T18:01:00.997Z</time></trkpt><trkpt lat="45.22207763040139" lon="8.66714558143456"><ele>106.0</ele><time>2026-05-03T18:01:01.997Z</time></trkpt><trkpt lat="45.222159323691834" lon="8.667343741667548"><ele>106.0</ele><time>2026-05-03T18:01:02.997Z</time></trkpt><trkpt lat="45.22224013244214" lon="8.667535672868018"><ele>106.0</ele><time>2026-05-03T18:01:03.997Z</time></trkpt><trkpt lat="45.222322517086994" lon="8.667728285948911"><ele>106.0</ele><time>2026-05-03T18:01:04.997Z</time></trkpt><trkpt lat="45.22240328976736" lon="8.667916816906516"><ele>106.0</ele><time>2026-05-03T18:01:05.997Z</time></trkpt><trkpt lat="45.222484141515906" lon="8.668108126918307"><ele>106.0</ele><time>2026-05-03T18:01:06.997Z</time></trkpt><trkpt lat="45.222562961943375" lon="8.668303658914619"><ele>106.0</ele><time>2026-05-03T18:01:07.997Z</time></trkpt><trkpt lat="45.22264652274507" lon="8.668496417516906"><ele>106.0</ele><time>2026-05-03T18:01:08.997Z</time></trkpt><trkpt lat="45.22273046826701" lon="8.66869318970538"><ele>106.0</ele><time>2026-05-03T18:01:09.997Z</time></trkpt><trkpt lat="45.222814619947485" lon="8.668889676074244"><ele>106.0</ele><time>2026-05-03T18:01:10.997Z</time></trkpt><trkpt lat="45.2228987894173" lon="8.669083406533735"><ele>106.0</ele><time>2026-05-03T18:01:11.997Z</time></trkpt><trkpt lat="45.222983919624234" lon="8.669281740643951"><ele>106.0</ele><time>2026-05-03T18:01:12.997Z</time></trkpt><trkpt lat="45.22306727626083" lon="8.66948014155885"><ele>106.0</ele><time>2026-05-03T18:01:13.997Z</time></trkpt><trkpt lat="45.22314882709518" lon="8.66967494013116"><ele>106.0</ele><time>2026-05-03T18:01:14.997Z</time></trkpt><trkpt lat="45.2232257416521" lon="8.669857610307384"><ele>106.0</ele><time>2026-05-03T18:01:15.997Z</time></trkpt><trkpt lat="45.223306567176245" lon="8.670043484837604"><ele>106.0</ele><time>2026-05-03T18:01:16.997Z</time></trkpt><trkpt lat="45.2233869466622" lon="8.670236176785028"><ele>106.0</ele><time>2026-05-03T18:01:17.997Z</time></trkpt><trkpt lat="45.223465777882176" lon="8.670430596995844"><ele>106.0</ele><time>2026-05-03T18:01:18.997Z</time></trkpt><trkpt lat="45.223543392991516" lon="8.67062519591859"><ele>106.0</ele><time>2026-05-03T18:01:19.997Z</time></trkpt><trkpt lat="45.22362514976898" lon="8.670817153406256"><ele>106.0</ele><time>2026-05-03T18:01:20.997Z</time></trkpt><trkpt lat="45.223706503796954" lon="8.671009168097694"><ele>106.0</ele><time>2026-05-03T18:01:21.997Z</time></trkpt><trkpt lat="45.22378880229887" lon="8.671199125351809"><ele>106.0</ele><time>2026-05-03T18:01:22.997Z</time></trkpt><trkpt lat="45.22386276157886" lon="8.67139176724216"><ele>106.0</ele><time>2026-05-03T18:01:24Z</time></trkpt><trkpt lat="45.22393916573686" lon="8.671580133978845"><ele>106.0</ele><time>2026-05-03T18:01:25Z</time></trkpt><trkpt lat="45.22401808157159" lon="8.671765768881018"><ele>106.33333333333334</ele><time>2026-05-03T18:01:26Z</time></trkpt><trkpt lat="45.22409552393852" lon="8.671949983223808"><ele>106.66666666666666</ele><time>2026-05-03T18:01:27Z</time></trkpt><trkpt lat="45.224177511664465" lon="8.672142810172152"><ele>107.0</ele><time>2026-05-03T18:01:28Z</time></trkpt><trkpt lat="45.22425714873826" lon="8.672335021897547"><ele>107.0</ele><time>2026-05-03T18:01:29Z</time></trkpt><trkpt lat="45.224339434944376" lon="8.672525524342536"><ele>107.0</ele><time>2026-05-03T18:01:30Z</time></trkpt><trkpt lat="45.22441834513565" lon="8.672716972140813"><ele>107.0</ele><time>2026-05-03T18:01:31Z</time></trkpt><trkpt lat="45.224491771748276" lon="8.672907033919236"><ele>107.0</ele><time>2026-05-03T18:01:32Z</time></trkpt><trkpt lat="45.224565624111214" lon="8.67309404367652"><ele>107.0</ele><time>2026-05-03T18:01:33Z</time></trkpt><trkpt lat="45.22464139840764" lon="8.673276636543003"><ele>107.0</ele><time>2026-05-03T18:01:34Z</time></trkpt><trkpt lat="45.22471335442036" lon="8.673460924852035"><ele>107.0</ele><time>2026-05-03T18:01:35Z</time></trkpt><trkpt lat="45.22478679339919" lon="8.673644455743386"><ele>107.0</ele><time>2026-05-03T18:01:36Z</time></trkpt><trkpt lat="45.22486490295265" lon="8.67382270531839"><ele>107.0</ele><time>2026-05-03T18:01:37Z</time></trkpt><trkpt lat="45.22493856246853" lon="8.674004133941406"><ele>107.0</ele><time>2026-05-03T18:01:38Z</time></trkpt><trkpt lat="45.225011838895426" lon="8.674183399357052"><ele>107.0</ele><time>2026-05-03T18:01:39Z</time></trkpt><trkpt lat="45.225090393846116" lon="8.674364068603177"><ele>106.66666666666666</ele><time>2026-05-03T18:01:40Z</time></trkpt><trkpt lat="45.22517222805622" lon="8.67455278047158"><ele>106.33333333333334</ele><time>2026-05-03T18:01:41Z</time></trkpt><trkpt lat="45.22525426061304" lon="8.67474401372388"><ele>106.0</ele><time>2026-05-03T18:01:42Z</time></trkpt><trkpt lat="45.225335487326774" lon="8.674938235859567"><ele>106.0</ele><time>2026-05-03T18:01:43Z</time></trkpt><trkpt lat="45.225411757651415" lon="8.675134739762461"><ele>106.0</ele><time>2026-05-03T18:01:44Z</time></trkpt><trkpt lat="45.22549313644729" lon="8.67532933378115"><ele>106.0</ele><time>2026-05-03T18:01:45Z</time></trkpt><trkpt lat="45.2255748314408" lon="8.67552499865164"><ele>106.25</ele><time>2026-05-03T18:01:46Z</time></trkpt><trkpt lat="45.22565410743176" lon="8.675716262491692"><ele>106.5</ele><time>2026-05-03T18:01:47Z</time></trkpt><trkpt lat="45.225731953660826" lon="8.675899643445412"><ele>106.75</ele><time>2026-05-03T18:01:48Z</time></trkpt><trkpt lat="45.22580050445051" lon="8.676067004005894"><ele>107.0</ele><time>2026-05-03T18:01:48.999Z</time></trkpt><trkpt lat="45.22586686395951" lon="8.676221539394783"><ele>107.0</ele><time>2026-05-03T18:01:49.999Z</time></trkpt><trkpt lat="45.225929714119985" lon="8.676368175438947"><ele>106.99999999999999</ele><time>2026-05-03T18:01:50.999Z</time></trkpt><trkpt lat="45.22598671427846" lon="8.676505819890483"><ele>106.99999999999999</ele><time>2026-05-03T18:01:51.999Z</time></trkpt><trkpt lat="45.22604070767118" lon="8.676638762694962"><ele>107.0</ele><time>2026-05-03T18:01:52.999Z</time></trkpt><trkpt lat="45.22609216771356" lon="8.676761164705567"><ele>107.0</ele><time>2026-05-03T18:01:53.999Z</time></trkpt><trkpt lat="45.226144609061386" lon="8.676875820940587"><ele>106.83333333333333</ele><time>2026-05-03T18:01:54.999Z</time></trkpt><trkpt lat="45.22618457210981" lon="8.676985181654455"><ele>106.66666666666666</ele><time>2026-05-03T18:01:55.999Z</time></trkpt><trkpt lat="45.22621131255126" lon="8.677114119434783"><ele>106.5</ele><time>2026-05-03T18:01:56.999Z</time></trkpt><trkpt lat="45.22621385791739" lon="8.67724050164354"><ele>106.33333333333334</ele><time>2026-05-03T18:01:57.999Z</time></trkpt><trkpt lat="45.22622418859391" lon="8.677356204009072"><ele>106.16666666666667</ele><time>2026-05-03T18:01:58.999Z</time></trkpt><trkpt lat="45.22626195807609" lon="8.677452445434335"><ele>106.0</ele><time>2026-05-03T18:01:59.999Z</time></trkpt><trkpt lat="45.22632423037384" lon="8.677521442055472"><ele>106.0</ele><time>2026-05-03T18:02:00.999Z</time></trkpt><trkpt lat="45.22640273695788" lon="8.677566103054609"><ele>106.0</ele><time>2026-05-03T18:02:01.999Z</time></trkpt><trkpt lat="45.226496075401826" lon="8.677556796617038"><ele>106.0</ele><time>2026-05-03T18:02:02.999Z</time></trkpt><trkpt lat="45.22659303691991" lon="8.677654496673355"><ele>106.0</ele><time>2026-05-03T18:02:03.999Z</time></trkpt><trkpt lat="45.22666402981368" lon="8.677764818158192"><ele>106.0</ele><time>2026-05-03T18:02:04.999Z</time></trkpt><trkpt lat="45.22675628507894" lon="8.677856333279424"><ele>106.0</ele><time>2026-05-03T18:02:05.999Z</time></trkpt><trkpt lat="45.22683918168868" lon="8.677964069307937"><ele>106.0</ele><time>2026-05-03T18:02:06.999Z</time></trkpt><trkpt lat="45.226935545147214" lon="8.678076722479014"><ele>106.0</ele><time>2026-05-03T18:02:07.999Z</time></trkpt><trkpt lat="45.227036618763066" lon="8.678200007953007"><ele>106.0</ele><time>2026-05-03T18:02:08.999Z</time></trkpt><trkpt lat="45.227140918166434" lon="8.678319835395996"><ele>106.0</ele><time>2026-05-03T18:02:09.999Z</time></trkpt><trkpt lat="45.227245881567875" lon="8.678440741734107"><ele>106.0</ele><time>2026-05-03T18:02:10.999Z</time></trkpt><trkpt lat="45.22735356260433" lon="8.678566280188324"><ele>106.0</ele><time>2026-05-03T18:02:11.999Z</time></trkpt><trkpt lat="45.22746399003244" lon="8.678690452207507"><ele>106.0</ele><time>2026-05-03T18:02:12.999Z</time></trkpt><trkpt lat="45.22757724557663" lon="8.678812853272015"><ele>105.75</ele><time>2026-05-03T18:02:13.999Z</time></trkpt><trkpt lat="45.227694582236055" lon="8.678933162038096"><ele>105.5</ele><time>2026-05-03T18:02:14.999Z</time></trkpt><trkpt lat="45.227812745432615" lon="8.67905468172969"><ele>105.25</ele><time>2026-05-03T18:02:15.999Z</time></trkpt><trkpt lat="45.22793053928597" lon="8.679177673369587"><ele>105.0</ele><time>2026-05-03T18:02:16.999Z</time></trkpt><trkpt lat="45.22804457696317" lon="8.679301349960488"><ele>105.0</ele><time>2026-05-03T18:02:17.999Z</time></trkpt><trkpt lat="45.22816107474378" lon="8.67942501860752"><ele>105.0</ele><time>2026-05-03T18:02:18.998Z</time></trkpt><trkpt lat="45.22827711617321" lon="8.679546993015943"><ele>105.0</ele><time>2026-05-03T18:02:19.998Z</time></trkpt><trkpt lat="45.22839133520394" lon="8.679666253264383"><ele>105.0</ele><time>2026-05-03T18:02:20.998Z</time></trkpt><trkpt lat="45.228504885269295" lon="8.67978452869418"><ele>105.0</ele><time>2026-05-03T18:02:21.998Z</time></trkpt><trkpt lat="45.22861779729317" lon="8.679903911959904"><ele>105.0</ele><time>2026-05-03T18:02:22.998Z</time></trkpt><trkpt lat="45.22872877551817" lon="8.680022743862978"><ele>105.0</ele><time>2026-05-03T18:02:23.998Z</time></trkpt><trkpt lat="45.228841786308635" lon="8.680138714742423"><ele>105.0</ele><time>2026-05-03T18:02:24.998Z</time></trkpt><trkpt lat="45.228948484136666" lon="8.68025534241963"><ele>105.0</ele><time>2026-05-03T18:02:25.998Z</time></trkpt><trkpt lat="45.229052887384896" lon="8.680371997025947"><ele>105.0</ele><time>2026-05-03T18:02:26.998Z</time></trkpt><trkpt lat="45.22915924194574" lon="8.680485691996964"><ele>105.0</ele><time>2026-05-03T18:02:27.998Z</time></trkpt><trkpt lat="45.22926531457983" lon="8.680594145417505"><ele>105.0</ele><time>2026-05-03T18:02:28.998Z</time></trkpt><trkpt lat="45.22936773913925" lon="8.68070574937178"><ele>105.0</ele><time>2026-05-03T18:02:29.998Z</time></trkpt><trkpt lat="45.229467193076644" lon="8.680823063071326"><ele>105.0</ele><time>2026-05-03T18:02:30.998Z</time></trkpt><trkpt lat="45.2295592066471" lon="8.68094709831686"><ele>105.0</ele><time>2026-05-03T18:02:31.998Z</time></trkpt><trkpt lat="45.22965015720141" lon="8.681084603205251"><ele>105.0</ele><time>2026-05-03T18:02:32.998Z</time></trkpt><trkpt lat="45.22973718795683" lon="8.681231113801989"><ele>104.5</ele><time>2026-05-03T18:02:33.998Z</time></trkpt><trkpt lat="45.22982133680686" lon="8.681385227717431"><ele>104.0</ele><time>2026-05-03T18:02:34.998Z</time></trkpt><trkpt lat="45.229905355464844" lon="8.681544010956728"><ele>103.5</ele><time>2026-05-03T18:02:35.998Z</time></trkpt><trkpt lat="45.22998904632299" lon="8.681704360478212"><ele>103.0</ele><time>2026-05-03T18:02:36.998Z</time></trkpt><trkpt lat="45.23006689819465" lon="8.681865374923566"><ele>103.25</ele><time>2026-05-03T18:02:37.998Z</time></trkpt><trkpt lat="45.23014357075655" lon="8.68203004977948"><ele>103.5</ele><time>2026-05-03T18:02:38.998Z</time></trkpt><trkpt lat="45.230221799734736" lon="8.682196211001955"><ele>103.75</ele><time>2026-05-03T18:02:39.998Z</time></trkpt><trkpt lat="45.230302135805886" lon="8.682355666888638"><ele>104.0</ele><time>2026-05-03T18:02:40.998Z</time></trkpt><trkpt lat="45.23038285628911" lon="8.682517241718461"><ele>104.0</ele><time>2026-05-03T18:02:41.998Z</time></trkpt><trkpt lat="45.23046078692225" lon="8.682674429057828"><ele>104.0</ele><time>2026-05-03T18:02:42.998Z</time></trkpt><trkpt lat="45.23053655652886" lon="8.682830849201721"><ele>104.0</ele><time>2026-05-03T18:02:43.998Z</time></trkpt><trkpt lat="45.230617919953545" lon="8.682986592162177"><ele>104.0</ele><time>2026-05-03T18:02:44.998Z</time></trkpt><trkpt lat="45.230691813872504" lon="8.683141341846163"><ele>104.25</ele><time>2026-05-03T18:02:45.998Z</time></trkpt><trkpt lat="45.23076346676723" lon="8.683293550563024"><ele>104.5</ele><time>2026-05-03T18:02:46.998Z</time></trkpt><trkpt lat="45.23083350251572" lon="8.683441876166562"><ele>104.75</ele><time>2026-05-03T18:02:47.998Z</time></trkpt><trkpt lat="45.230904622810264" lon="8.683587450272823"><ele>105.0</ele><time>2026-05-03T18:02:48.998Z</time></trkpt><trkpt lat="45.23097186895712" lon="8.683733204301767"><ele>104.5</ele><time>2026-05-03T18:02:49.998Z</time></trkpt><trkpt lat="45.23103932689115" lon="8.683874670840511"><ele>104.0</ele><time>2026-05-03T18:02:50.998Z</time></trkpt><trkpt lat="45.23110759038485" lon="8.684012849994879"><ele>103.5</ele><time>2026-05-03T18:02:51.998Z</time></trkpt><trkpt lat="45.23117493244745" lon="8.684152536579008"><ele>103.0</ele><time>2026-05-03T18:02:52.997Z</time></trkpt><trkpt lat="45.2312459100561" lon="8.684288556235316"><ele>103.0</ele><time>2026-05-03T18:02:53.997Z</time></trkpt><trkpt lat="45.23131285772101" lon="8.68442365019926"><ele>103.0</ele><time>2026-05-03T18:02:54.997Z</time></trkpt><trkpt lat="45.23138097047399" lon="8.684555083630459"><ele>103.0</ele><time>2026-05-03T18:02:55.997Z</time></trkpt><trkpt lat="45.23146446471713" lon="8.684717899886461"><ele>103.0</ele><time>2026-05-03T18:02:56.997Z</time></trkpt><trkpt lat="45.23155044278894" lon="8.684893753405383"><ele>103.5</ele><time>2026-05-03T18:02:57.997Z</time></trkpt><trkpt lat="45.23163426658773" lon="8.685061901471425"><ele>104.0</ele><time>2026-05-03T18:02:58.997Z</time></trkpt><trkpt lat="45.23171406868236" lon="8.685226911941596"><ele>104.5</ele><time>2026-05-03T18:02:59.997Z</time></trkpt><trkpt lat="45.23179604969188" lon="8.685395847522996"><ele>105.0</ele><time>2026-05-03T18:03:00.997Z</time></trkpt><trkpt lat="45.231878420012414" lon="8.685566982876276"><ele>105.0</ele><time>2026-05-03T18:03:01.997Z</time></trkpt><trkpt lat="45.231964296436054" lon="8.685739348262647"><ele>105.0</ele><time>2026-05-03T18:03:02.997Z</time></trkpt><trkpt lat="45.232049408395845" lon="8.68591533918691"><ele>105.0</ele><time>2026-05-03T18:03:03.997Z</time></trkpt><trkpt lat="45.23213376447681" lon="8.686089276391876"><ele>105.0</ele><time>2026-05-03T18:03:04.997Z</time></trkpt><trkpt lat="45.2322188960209" lon="8.68626167644857"><ele>105.25</ele><time>2026-05-03T18:03:05.997Z</time></trkpt><trkpt lat="45.23230220728967" lon="8.686429224652972"><ele>105.5</ele><time>2026-05-03T18:03:06.997Z</time></trkpt><trkpt lat="45.232382660796496" lon="8.68659595993287"><ele>105.75</ele><time>2026-05-03T18:03:07.997Z</time></trkpt><trkpt lat="45.232462921701924" lon="8.68676100559836"><ele>106.0</ele><time>2026-05-03T18:03:08.997Z</time></trkpt><trkpt lat="45.23254271317117" lon="8.686921775932749"><ele>106.0</ele><time>2026-05-03T18:03:09.997Z</time></trkpt><trkpt lat="45.2326237665197" lon="8.687080537157584"><ele>106.0</ele><time>2026-05-03T18:03:10.997Z</time></trkpt><trkpt lat="45.23270327607911" lon="8.687244429701046"><ele>106.0</ele><time>2026-05-03T18:03:11.997Z</time></trkpt><trkpt lat="45.23277953867646" lon="8.687410029343921"><ele>106.0</ele><time>2026-05-03T18:03:12.997Z</time></trkpt><trkpt lat="45.23285941654887" lon="8.687573173179635"><ele>106.0</ele><time>2026-05-03T18:03:13.997Z</time></trkpt><trkpt lat="45.23293837769393" lon="8.687734004403247"><ele>106.0</ele><time>2026-05-03T18:03:14.997Z</time></trkpt><trkpt lat="45.2330172648744" lon="8.687895433796951"><ele>106.0</ele><time>2026-05-03T18:03:15.997Z</time></trkpt><trkpt lat="45.23309741834056" lon="8.688050888584486"><ele>106.0</ele><time>2026-05-03T18:03:16.997Z</time></trkpt><trkpt lat="45.23317679348829" lon="8.688207573370818"><ele>106.25</ele><time>2026-05-03T18:03:17.997Z</time></trkpt><trkpt lat="45.23325544068016" lon="8.688363973155193"><ele>106.5</ele><time>2026-05-03T18:03:18.997Z</time></trkpt><trkpt lat="45.23333349846326" lon="8.688519272654302"><ele>106.75</ele><time>2026-05-03T18:03:19.997Z</time></trkpt><trkpt lat="45.233410544070075" lon="8.688672786885531"><ele>107.0</ele><time>2026-05-03T18:03:20.997Z</time></trkpt><trkpt lat="45.233486450973714" lon="8.688828129098567"><ele>107.0</ele><time>2026-05-03T18:03:21.997Z</time></trkpt><trkpt lat="45.23356117492039" lon="8.688983908507687"><ele>107.0</ele><time>2026-05-03T18:03:22.997Z</time></trkpt><trkpt lat="45.233638706451025" lon="8.6891353108127"><ele>107.0</ele><time>2026-05-03T18:03:23.997Z</time></trkpt><trkpt lat="45.233713361077655" lon="8.689280906141269"><ele>107.0</ele><time>2026-05-03T18:03:24.997Z</time></trkpt><trkpt lat="45.23377533176939" lon="8.689415490202935"><ele>107.19999999999999</ele><time>2026-05-03T18:03:25.996Z</time></trkpt><trkpt lat="45.23384038136486" lon="8.689538043462711"><ele>107.39999999999999</ele><time>2026-05-03T18:03:26.996Z</time></trkpt><trkpt lat="45.23390277296215" lon="8.689661048182622"><ele>107.60000000000001</ele><time>2026-05-03T18:03:27.996Z</time></trkpt><trkpt lat="45.233969881602334" lon="8.689776507937319"><ele>107.80000000000001</ele><time>2026-05-03T18:03:28.996Z</time></trkpt><trkpt lat="45.23403389544337" lon="8.689887871627612"><ele>108.0</ele><time>2026-05-03T18:03:30Z</time></trkpt><trkpt lat="45.234113080807404" lon="8.690008124483485"><ele>108.0</ele><time>2026-05-03T18:03:31Z</time></trkpt><trkpt lat="45.23418730182678" lon="8.69012668005176"><ele>108.0</ele><time>2026-05-03T18:03:32Z</time></trkpt><trkpt lat="45.23425407614281" lon="8.690279508235031"><ele>108.0</ele><time>2026-05-03T18:03:33Z</time></trkpt><trkpt lat="45.234346764603764" lon="8.690428871588413"><ele>108.0</ele><time>2026-05-03T18:03:34Z</time></trkpt><trkpt lat="45.234422358924384" lon="8.690598478759123"><ele>108.5</ele><time>2026-05-03T18:03:35Z</time></trkpt><trkpt lat="45.23450305707937" lon="8.690771012863136"><ele>109.0</ele><time>2026-05-03T18:03:36Z</time></trkpt><trkpt lat="45.23458961169881" lon="8.690935648995245"><ele>109.5</ele><time>2026-05-03T18:03:37Z</time></trkpt><trkpt lat="45.23469203492221" lon="8.691088016945235"><ele>110.0</ele><time>2026-05-03T18:03:38Z</time></trkpt><trkpt lat="45.23480180558728" lon="8.691237928802547"><ele>109.25</ele><time>2026-05-03T18:03:39Z</time></trkpt><trkpt lat="45.23491093337448" lon="8.69138126631856"><ele>108.5</ele><time>2026-05-03T18:03:40Z</time></trkpt><trkpt lat="45.2350247387781" lon="8.691516575077005"><ele>107.75</ele><time>2026-05-03T18:03:41Z</time></trkpt><trkpt lat="45.235130405748954" lon="8.69165441906496"><ele>107.0</ele><time>2026-05-03T18:03:42Z</time></trkpt><trkpt lat="45.235231978326404" lon="8.691789828733086"><ele>107.0</ele><time>2026-05-03T18:03:43Z</time></trkpt><trkpt lat="45.23534066310076" lon="8.69191734869982"><ele>107.0</ele><time>2026-05-03T18:03:44Z</time></trkpt><trkpt lat="45.235443768648516" lon="8.692043776196952"><ele>107.0</ele><time>2026-05-03T18:03:45Z</time></trkpt><trkpt lat="45.23554888856167" lon="8.692170481069024"><ele>107.0</ele><time>2026-05-03T18:03:46Z</time></trkpt><trkpt lat="45.23565314442894" lon="8.692293613414396"><ele>107.0</ele><time>2026-05-03T18:03:47Z</time></trkpt><trkpt lat="45.2357586308754" lon="8.692417021377858"><ele>107.0</ele><time>2026-05-03T18:03:48Z</time></trkpt><trkpt lat="45.23585918651656" lon="8.692541838051175"><ele>107.0</ele><time>2026-05-03T18:03:49Z</time></trkpt><trkpt lat="45.23596053667586" lon="8.692667398946833"><ele>107.0</ele><time>2026-05-03T18:03:50Z</time></trkpt><trkpt lat="45.236065011049156" lon="8.692794742843486"><ele>107.0</ele><time>2026-05-03T18:03:51Z</time></trkpt><trkpt lat="45.23617373917915" lon="8.69292377201879"><ele>107.0</ele><time>2026-05-03T18:03:52Z</time></trkpt><trkpt lat="45.236281307666374" lon="8.693052162753863"><ele>107.0</ele><time>2026-05-03T18:03:53Z</time></trkpt><trkpt lat="45.23638880620788" lon="8.69317740258793"><ele>107.0</ele><time>2026-05-03T18:03:54Z</time></trkpt><trkpt lat="45.23649653849925" lon="8.693305954523408"><ele>107.25</ele><time>2026-05-03T18:03:55Z</time></trkpt><trkpt lat="45.236601359931974" lon="8.693440810840436"><ele>107.5</ele><time>2026-05-03T18:03:56Z</time></trkpt><trkpt lat="45.23670621956909" lon="8.693579288111307"><ele>107.75</ele><time>2026-05-03T18:03:57Z</time></trkpt><trkpt lat="45.23681250180457" lon="8.693716585610849"><ele>108.0</ele><time>2026-05-03T18:03:58Z</time></trkpt><trkpt lat="45.23692759046593" lon="8.693846148717492"><ele>108.0</ele><time>2026-05-03T18:03:58.999Z</time></trkpt><trkpt lat="45.237039035338746" lon="8.69397848876965"><ele>108.0</ele><time>2026-05-03T18:03:59.999Z</time></trkpt><trkpt lat="45.23714723469746" lon="8.694112365586053"><ele>108.0</ele><time>2026-05-03T18:04:00.999Z</time></trkpt><trkpt lat="45.23725107206214" lon="8.69424807153832"><ele>108.0</ele><time>2026-05-03T18:04:01.999Z</time></trkpt><trkpt lat="45.23735539442125" lon="8.694380406680075"><ele>107.5</ele><time>2026-05-03T18:04:02.999Z</time></trkpt><trkpt lat="45.237456891235425" lon="8.694511585622802"><ele>107.0</ele><time>2026-05-03T18:04:03.999Z</time></trkpt><trkpt lat="45.237560689251836" lon="8.694639171516725"><ele>106.5</ele><time>2026-05-03T18:04:04.999Z</time></trkpt><trkpt lat="45.23765653706194" lon="8.694768107958417"><ele>106.0</ele><time>2026-05-03T18:04:05.999Z</time></trkpt><trkpt lat="45.2377556690462" lon="8.694888822415862"><ele>106.0</ele><time>2026-05-03T18:04:06.999Z</time></trkpt><trkpt lat="45.23785438663984" lon="8.695010065250619"><ele>106.0</ele><time>2026-05-03T18:04:07.999Z</time></trkpt><trkpt lat="45.237951323211185" lon="8.695132471628513"><ele>106.0</ele><time>2026-05-03T18:04:08.999Z</time></trkpt><trkpt lat="45.23805109490103" lon="8.695254101440794"><ele>106.0</ele><time>2026-05-03T18:04:09.999Z</time></trkpt><trkpt lat="45.23814938464506" lon="8.695377128362365"><ele>106.25</ele><time>2026-05-03T18:04:10.999Z</time></trkpt><trkpt lat="45.23824992205292" lon="8.695499851543614"><ele>106.5</ele><time>2026-05-03T18:04:11.999Z</time></trkpt><trkpt lat="45.23834786468564" lon="8.695622666276932"><ele>106.75</ele><time>2026-05-03T18:04:12.999Z</time></trkpt><trkpt lat="45.23844744758631" lon="8.695749316681152"><ele>107.0</ele><time>2026-05-03T18:04:13.999Z</time></trkpt><trkpt lat="45.238547214020784" lon="8.695864566832382"><ele>107.0</ele><time>2026-05-03T18:04:14.999Z</time></trkpt><trkpt lat="45.238649668184806" lon="8.695987478404986"><ele>107.0</ele><time>2026-05-03T18:04:15.999Z</time></trkpt><trkpt lat="45.23874794662444" lon="8.696115744763858"><ele>107.0</ele><time>2026-05-03T18:04:16.999Z</time></trkpt><trkpt lat="45.23884931553518" lon="8.696240735685773"><ele>107.0</ele><time>2026-05-03T18:04:17.999Z</time></trkpt><trkpt lat="45.23895124050053" lon="8.6963635234756"><ele>107.5</ele><time>2026-05-03T18:04:18.999Z</time></trkpt><trkpt lat="45.23905055704829" lon="8.696493324687518"><ele>108.0</ele><time>2026-05-03T18:04:19.999Z</time></trkpt><trkpt lat="45.23915227460669" lon="8.696620210491217"><ele>108.5</ele><time>2026-05-03T18:04:20.999Z</time></trkpt><trkpt lat="45.239253350118574" lon="8.696748987581849"><ele>109.0</ele><time>2026-05-03T18:04:21.999Z</time></trkpt><trkpt lat="45.23935212567515" lon="8.696878846345147"><ele>108.5</ele><time>2026-05-03T18:04:22.999Z</time></trkpt><trkpt lat="45.23945282231592" lon="8.697010347697413"><ele>108.0</ele><time>2026-05-03T18:04:23.999Z</time></trkpt><trkpt lat="45.23955713116613" lon="8.69713504484353"><ele>107.5</ele><time>2026-05-03T18:04:24.999Z</time></trkpt><trkpt lat="45.23966347236762" lon="8.697261077839421"><ele>107.0</ele><time>2026-05-03T18:04:25.999Z</time></trkpt><trkpt lat="45.23976845001393" lon="8.697388931784975"><ele>107.0</ele><time>2026-05-03T18:04:26.999Z</time></trkpt><trkpt lat="45.23987050708731" lon="8.697520654120684"><ele>107.0</ele><time>2026-05-03T18:04:27.999Z</time></trkpt><trkpt lat="45.23997221912221" lon="8.697651924144358"><ele>107.0</ele><time>2026-05-03T18:04:28.999Z</time></trkpt><trkpt lat="45.24007753128112" lon="8.69778385252386"><ele>107.0</ele><time>2026-05-03T18:04:29.999Z</time></trkpt><trkpt lat="45.24018531557923" lon="8.697916761354787"><ele>107.0</ele><time>2026-05-03T18:04:30.999Z</time></trkpt><trkpt lat="45.240294378970084" lon="8.698050060739655"><ele>107.0</ele><time>2026-05-03T18:04:31.999Z</time></trkpt><trkpt lat="45.24040321626668" lon="8.69818533322522"><ele>107.0</ele><time>2026-05-03T18:04:32.999Z</time></trkpt><trkpt lat="45.240512182154745" lon="8.69831910135693"><ele>107.0</ele><time>2026-05-03T18:04:33.998Z</time></trkpt><trkpt lat="45.24062431002519" lon="8.698454142598884"><ele>107.0</ele><time>2026-05-03T18:04:34.998Z</time></trkpt><trkpt lat="45.240735307376056" lon="8.6985922616493"><ele>107.0</ele><time>2026-05-03T18:04:35.998Z</time></trkpt><trkpt lat="45.24084654876656" lon="8.698730951758332"><ele>107.0</ele><time>2026-05-03T18:04:36.998Z</time></trkpt><trkpt lat="45.24095990083192" lon="8.698869904500087"><ele>107.0</ele><time>2026-05-03T18:04:37.998Z</time></trkpt><trkpt lat="45.241071525280475" lon="8.699013872013364"><ele>107.0</ele><time>2026-05-03T18:04:38.998Z</time></trkpt><trkpt lat="45.24118535111282" lon="8.699153807722483"><ele>107.0</ele><time>2026-05-03T18:04:39.998Z</time></trkpt><trkpt lat="45.24130044002225" lon="8.699291794818809"><ele>107.0</ele><time>2026-05-03T18:04:40.998Z</time></trkpt><trkpt lat="45.241415261495725" lon="8.6994319664802"><ele>106.66666666666666</ele><time>2026-05-03T18:04:41.998Z</time></trkpt><trkpt lat="45.241529395040565" lon="8.699572881440602"><ele>106.33333333333334</ele><time>2026-05-03T18:04:42.998Z</time></trkpt><trkpt lat="45.24163790289061" lon="8.699723101061636"><ele>106.0</ele><time>2026-05-03T18:04:43.998Z</time></trkpt><trkpt lat="45.24175060718744" lon="8.699864816099867"><ele>106.0</ele><time>2026-05-03T18:04:44.998Z</time></trkpt><trkpt lat="45.2418690418295" lon="8.700008609786009"><ele>106.0</ele><time>2026-05-03T18:04:45.998Z</time></trkpt><trkpt lat="45.24198417171388" lon="8.70014917062745"><ele>106.0</ele><time>2026-05-03T18:04:46.998Z</time></trkpt><trkpt lat="45.24208659069582" lon="8.700276703907436"><ele>106.0</ele><time>2026-05-03T18:04:47.998Z</time></trkpt><trkpt lat="45.24218015242809" lon="8.700399124076029"><ele>105.75</ele><time>2026-05-03T18:04:48.998Z</time></trkpt><trkpt lat="45.24227086424985" lon="8.700515840359643"><ele>105.5</ele><time>2026-05-03T18:04:49.998Z</time></trkpt><trkpt lat="45.242357768812695" lon="8.700629187393723"><ele>105.25</ele><time>2026-05-03T18:04:50.998Z</time></trkpt><trkpt lat="45.24244756040584" lon="8.700755520929608"><ele>105.0</ele><time>2026-05-03T18:04:51.998Z</time></trkpt><trkpt lat="45.242539995345815" lon="8.700894560851896"><ele>105.0</ele><time>2026-05-03T18:04:52.998Z</time></trkpt><trkpt lat="45.242617710575914" lon="8.701053503469856"><ele>105.0</ele><time>2026-05-03T18:04:53.998Z</time></trkpt><trkpt lat="45.24268634235753" lon="8.701223471913833"><ele>105.0</ele><time>2026-05-03T18:04:54.998Z</time></trkpt><trkpt lat="45.242749374433174" lon="8.701402271056253"><ele>105.0</ele><time>2026-05-03T18:04:55.998Z</time></trkpt><trkpt lat="45.24281525377155" lon="8.701581295512858"><ele>105.0</ele><time>2026-05-03T18:04:56.998Z</time></trkpt><trkpt lat="45.242880553339255" lon="8.701762525626549"><ele>105.0</ele><time>2026-05-03T18:04:57.998Z</time></trkpt><trkpt lat="45.242944555901346" lon="8.701948083454159"><ele>105.0</ele><time>2026-05-03T18:04:58.998Z</time></trkpt><trkpt lat="45.24301277751713" lon="8.702129825308154"><ele>105.0</ele><time>2026-05-03T18:04:59.998Z</time></trkpt><trkpt lat="45.24308679935915" lon="8.702311172030571"><ele>104.75</ele><time>2026-05-03T18:05:00.998Z</time></trkpt><trkpt lat="45.24316635972999" lon="8.702487938775409"><ele>104.5</ele><time>2026-05-03T18:05:01.998Z</time></trkpt><trkpt lat="45.24325079443033" lon="8.702658119171625"><ele>104.25</ele><time>2026-05-03T18:05:02.998Z</time></trkpt><trkpt lat="45.24333735460632" lon="8.702830639132822"><ele>104.0</ele><time>2026-05-03T18:05:03.998Z</time></trkpt><trkpt lat="45.24341609054916" lon="8.703007239434479"><ele>104.0</ele><time>2026-05-03T18:05:04.998Z</time></trkpt><trkpt lat="45.24349594100982" lon="8.70318295625437"><ele>104.0</ele><time>2026-05-03T18:05:05.998Z</time></trkpt><trkpt lat="45.24357573559718" lon="8.703354220200245"><ele>104.0</ele><time>2026-05-03T18:05:06.998Z</time></trkpt><trkpt lat="45.2436565371229" lon="8.703526122157845"><ele>104.0</ele><time>2026-05-03T18:05:07.997Z</time></trkpt><trkpt lat="45.24373603513426" lon="8.703697031709495"><ele>104.25</ele><time>2026-05-03T18:05:08.997Z</time></trkpt><trkpt lat="45.24381758099335" lon="8.703865923202892"><ele>104.5</ele><time>2026-05-03T18:05:09.997Z</time></trkpt><trkpt lat="45.24389853600261" lon="8.704032334462767"><ele>104.75</ele><time>2026-05-03T18:05:10.997Z</time></trkpt><trkpt lat="45.24397650101103" lon="8.704198641355223"><ele>105.0</ele><time>2026-05-03T18:05:11.997Z</time></trkpt><trkpt lat="45.24405583862206" lon="8.704353826224262"><ele>105.25</ele><time>2026-05-03T18:05:12.997Z</time></trkpt><trkpt lat="45.24413155216919" lon="8.704512326905295"><ele>105.5</ele><time>2026-05-03T18:05:13.997Z</time></trkpt><trkpt lat="45.24420587837395" lon="8.704670412486193"><ele>105.75</ele><time>2026-05-03T18:05:14.997Z</time></trkpt><trkpt lat="45.24428259609221" lon="8.704829391090342"><ele>106.0</ele><time>2026-05-03T18:05:15.997Z</time></trkpt><trkpt lat="45.24436242181222" lon="8.70499290851823"><ele>106.0</ele><time>2026-05-03T18:05:16.997Z</time></trkpt><trkpt lat="45.24444001888945" lon="8.705159954943788"><ele>106.0</ele><time>2026-05-03T18:05:17.997Z</time></trkpt><trkpt lat="45.244522238743514" lon="8.705325419035734"><ele>106.0</ele><time>2026-05-03T18:05:18.997Z</time></trkpt><trkpt lat="45.244604306130654" lon="8.705493860039331"><ele>106.0</ele><time>2026-05-03T18:05:19.997Z</time></trkpt><trkpt lat="45.24468657983877" lon="8.705661066176553"><ele>106.0</ele><time>2026-05-03T18:05:20.997Z</time></trkpt><trkpt lat="45.2447704176989" lon="8.705828914953067"><ele>106.0</ele><time>2026-05-03T18:05:21.997Z</time></trkpt><trkpt lat="45.24485074707983" lon="8.706001667040738"><ele>106.0</ele><time>2026-05-03T18:05:22.997Z</time></trkpt><trkpt lat="45.244934638801844" lon="8.706170995698043"><ele>106.0</ele><time>2026-05-03T18:05:23.997Z</time></trkpt><trkpt lat="45.245019198845455" lon="8.706343323760889"><ele>106.75</ele><time>2026-05-03T18:05:24.997Z</time></trkpt><trkpt lat="45.24510314338059" lon="8.706514830123519"><ele>107.5</ele><time>2026-05-03T18:05:25.997Z</time></trkpt><trkpt lat="45.24518460961949" lon="8.706688548612526"><ele>108.25</ele><time>2026-05-03T18:05:26.997Z</time></trkpt><trkpt lat="45.24526812659386" lon="8.706858679417337"><ele>109.0</ele><time>2026-05-03T18:05:27.997Z</time></trkpt><trkpt lat="45.245354632215864" lon="8.707028860027675"><ele>109.0</ele><time>2026-05-03T18:05:28.997Z</time></trkpt><trkpt lat="45.24543863195872" lon="8.707199859064373"><ele>109.0</ele><time>2026-05-03T18:05:29.997Z</time></trkpt><trkpt lat="45.2455246141942" lon="8.70737700356854"><ele>109.0</ele><time>2026-05-03T18:05:30.997Z</time></trkpt><trkpt lat="45.245613572949864" lon="8.707559207519443"><ele>109.0</ele><time>2026-05-03T18:05:31.997Z</time></trkpt><trkpt lat="45.24571229552002" lon="8.707748205784169"><ele>109.0</ele><time>2026-05-03T18:05:32.997Z</time></trkpt><trkpt lat="45.245802231485804" lon="8.707948342001917"><ele>109.0</ele><time>2026-05-03T18:05:33.997Z</time></trkpt><trkpt lat="45.2458979748537" lon="8.708151224908315"><ele>109.0</ele><time>2026-05-03T18:05:34.997Z</time></trkpt><trkpt lat="45.24599568449298" lon="8.708356750391019"><ele>109.0</ele><time>2026-05-03T18:05:36Z</time></trkpt><trkpt lat="45.24609291577641" lon="8.708563488421463"><ele>109.0</ele><time>2026-05-03T18:05:37Z</time></trkpt><trkpt lat="45.24619083849941" lon="8.708769544346536"><ele>108.33333333333334</ele><time>2026-05-03T18:05:38Z</time></trkpt><trkpt lat="45.24628961177488" lon="8.708980087168309"><ele>107.66666666666666</ele><time>2026-05-03T18:05:39Z</time></trkpt><trkpt lat="45.246392771580446" lon="8.709186657088006"><ele>107.0</ele><time>2026-05-03T18:05:40Z</time></trkpt><trkpt lat="45.246492867865456" lon="8.709396686385867"><ele>106.33333333333333</ele><time>2026-05-03T18:05:41Z</time></trkpt><trkpt lat="45.246592458477" lon="8.709610733024903"><ele>105.66666666666666</ele><time>2026-05-03T18:05:42Z</time></trkpt><trkpt lat="45.24669923188338" lon="8.709828733396732"><ele>105.0</ele><time>2026-05-03T18:05:43Z</time></trkpt><trkpt lat="45.246806254943884" lon="8.710048946813968"><ele>105.33333333333334</ele><time>2026-05-03T18:05:44Z</time></trkpt><trkpt lat="45.24692090348919" lon="8.710275487421622"><ele>105.66666666666667</ele><time>2026-05-03T18:05:45Z</time></trkpt><trkpt lat="45.24703521795997" lon="8.71051490245458"><ele>106.0</ele><time>2026-05-03T18:05:46Z</time></trkpt><trkpt lat="45.24714844949919" lon="8.710758644986058"><ele>106.0</ele><time>2026-05-03T18:05:47Z</time></trkpt><trkpt lat="45.24726919077064" lon="8.711002234064603"><ele>106.0</ele><time>2026-05-03T18:05:48Z</time></trkpt><trkpt lat="45.2473823196831" lon="8.711246149465506"><ele>106.0</ele><time>2026-05-03T18:05:49Z</time></trkpt><trkpt lat="45.247508800455705" lon="8.711485128156715"><ele>106.33333333333334</ele><time>2026-05-03T18:05:50Z</time></trkpt><trkpt lat="45.247619393032714" lon="8.711711005908173"><ele>106.66666666666666</ele><time>2026-05-03T18:05:51Z</time></trkpt><trkpt lat="45.247723613179495" lon="8.711914818588975"><ele>107.0</ele><time>2026-05-03T18:05:52Z</time></trkpt><trkpt lat="45.24781688223864" lon="8.712116863844251"><ele>107.0</ele><time>2026-05-03T18:05:53Z</time></trkpt><trkpt lat="45.2479057458314" lon="8.712302445450918"><ele>107.0</ele><time>2026-05-03T18:05:54Z</time></trkpt><trkpt lat="45.24799319588701" lon="8.712488735924442"><ele>107.0</ele><time>2026-05-03T18:05:55Z</time></trkpt><trkpt lat="45.24807241025581" lon="8.71265896002663"><ele>108.25</ele><time>2026-05-03T18:05:56Z</time></trkpt><trkpt lat="45.24814055262439" lon="8.712827893750784"><ele>109.5</ele><time>2026-05-03T18:05:57Z</time></trkpt><trkpt lat="45.24820372963543" lon="8.713017434519596"><ele>110.75</ele><time>2026-05-03T18:05:58Z</time></trkpt><trkpt lat="45.24824608635333" lon="8.71321243141153"><ele>112.0</ele><time>2026-05-03T18:05:59Z</time></trkpt><trkpt lat="45.24828363082221" lon="8.71339185363354"><ele>112.0</ele><time>2026-05-03T18:06:00Z</time></trkpt><trkpt lat="45.2483094522809" lon="8.713560351621288"><ele>111.99999999999999</ele><time>2026-05-03T18:06:01Z</time></trkpt><trkpt lat="45.24832185634815" lon="8.713711132951214"><ele>111.99999999999999</ele><time>2026-05-03T18:06:02Z</time></trkpt><trkpt lat="45.24831080583085" lon="8.713843868295085"><ele>112.0</ele><time>2026-05-03T18:06:03Z</time></trkpt><trkpt lat="45.24827197377244" lon="8.713965754674662"><ele>112.0</ele><time>2026-05-03T18:06:04Z</time></trkpt><trkpt lat="45.24822050233368" lon="8.714089333831279"><ele>111.39999999999999</ele><time>2026-05-03T18:06:05Z</time></trkpt><trkpt lat="45.24817106735536" lon="8.714208844398472"><ele>110.79999999999998</ele><time>2026-05-03T18:06:06Z</time></trkpt><trkpt lat="45.24814818240832" lon="8.714333847856738"><ele>110.2</ele><time>2026-05-03T18:06:06.999Z</time></trkpt><trkpt lat="45.24815057113266" lon="8.71446498129272"><ele>109.6</ele><time>2026-05-03T18:06:07.999Z</time></trkpt><trkpt lat="45.24818088450023" lon="8.714587544812764"><ele>109.0</ele><time>2026-05-03T18:06:08.999Z</time></trkpt><trkpt lat="45.24823770722581" lon="8.714697507662644"><ele>108.80000000000001</ele><time>2026-05-03T18:06:09.999Z</time></trkpt><trkpt lat="45.24830754711731" lon="8.71479683585584"><ele>108.60000000000001</ele><time>2026-05-03T18:06:10.999Z</time></trkpt><trkpt lat="45.248396408778234" lon="8.714878844806286"><ele>108.4</ele><time>2026-05-03T18:06:11.999Z</time></trkpt><trkpt lat="45.24848705903035" lon="8.714950945148281"><ele>108.2</ele><time>2026-05-03T18:06:12.999Z</time></trkpt><trkpt lat="45.248569883992054" lon="8.715039502240344"><ele>108.0</ele><time>2026-05-03T18:06:13.999Z</time></trkpt><trkpt lat="45.24863270807888" lon="8.715164218351475"><ele>107.33333333333334</ele><time>2026-05-03T18:06:14.999Z</time></trkpt><trkpt lat="45.24865499789912" lon="8.715351361055662"><ele>106.66666666666667</ele><time>2026-05-03T18:06:15.999Z</time></trkpt><trkpt lat="45.248710428732714" lon="8.715558889619334"><ele>106.0</ele><time>2026-05-03T18:06:16.999Z</time></trkpt><trkpt lat="45.24874854892389" lon="8.715794716256765"><ele>106.0</ele><time>2026-05-03T18:06:17.999Z</time></trkpt><trkpt lat="45.24879212130407" lon="8.716047547653915"><ele>106.0</ele><time>2026-05-03T18:06:18.999Z</time></trkpt><trkpt lat="45.24883698172522" lon="8.716298137131293"><ele>106.0</ele><time>2026-05-03T18:06:19.999Z</time></trkpt><trkpt lat="45.248883168080525" lon="8.716555254988771"><ele>106.33333333333334</ele><time>2026-05-03T18:06:20.999Z</time></trkpt><trkpt lat="45.248931631208954" lon="8.71680882489785"><ele>106.66666666666666</ele><time>2026-05-03T18:06:21.999Z</time></trkpt><trkpt lat="45.24898254448222" lon="8.717064104469188"><ele>107.0</ele><time>2026-05-03T18:06:22.999Z</time></trkpt><trkpt lat="45.2490315260596" lon="8.717314100838475"><ele>107.0</ele><time>2026-05-03T18:06:23.999Z</time></trkpt><trkpt lat="45.24908066355909" lon="8.71756301726585"><ele>107.0</ele><time>2026-05-03T18:06:24.999Z</time></trkpt><trkpt lat="45.24912744809557" lon="8.717801134652547"><ele>107.0</ele><time>2026-05-03T18:06:25.999Z</time></trkpt><trkpt lat="45.24916964194376" lon="8.718029022799456"><ele>107.0</ele><time>2026-05-03T18:06:26.999Z</time></trkpt><trkpt lat="45.24920998279033" lon="8.718246007225074"><ele>107.0</ele><time>2026-05-03T18:06:27.999Z</time></trkpt><trkpt lat="45.249249254821265" lon="8.718448535215005"><ele>107.0</ele><time>2026-05-03T18:06:28.999Z</time></trkpt><trkpt lat="45.24928378998626" lon="8.718636302741734"><ele>107.0</ele><time>2026-05-03T18:06:29.999Z</time></trkpt><trkpt lat="45.249320547184944" lon="8.718803798146842"><ele>107.0</ele><time>2026-05-03T18:06:30.999Z</time></trkpt><trkpt lat="45.24934203137155" lon="8.718956641136845"><ele>106.99999999999999</ele><time>2026-05-03T18:06:31.999Z</time></trkpt><trkpt lat="45.249353270010914" lon="8.719096034991965"><ele>106.99999999999999</ele><time>2026-05-03T18:06:32.999Z</time></trkpt><trkpt lat="45.249348395905635" lon="8.719240741874756"><ele>107.0</ele><time>2026-05-03T18:06:33.999Z</time></trkpt><trkpt lat="45.24933139964035" lon="8.71938280362739"><ele>107.0</ele><time>2026-05-03T18:06:34.999Z</time></trkpt><trkpt lat="45.24932333190543" lon="8.719509981569953"><ele>107.16666666666666</ele><time>2026-05-03T18:06:35.999Z</time></trkpt><trkpt lat="45.249337196790506" lon="8.719622166078048"><ele>107.33333333333333</ele><time>2026-05-03T18:06:36.999Z</time></trkpt><trkpt lat="45.249377649796244" lon="8.71971553871188"><ele>107.5</ele><time>2026-05-03T18:06:37.999Z</time></trkpt><trkpt lat="45.249444347594064" lon="8.719797284238995"><ele>107.66666666666666</ele><time>2026-05-03T18:06:38.999Z</time></trkpt><trkpt lat="45.24951775665484" lon="8.719848782377216"><ele>107.83333333333333</ele><time>2026-05-03T18:06:39.999Z</time></trkpt><trkpt lat="45.2495864800793" lon="8.719898090233649"><ele>108.0</ele><time>2026-05-03T18:06:40.998Z</time></trkpt><trkpt lat="45.249652714900165" lon="8.719984874108105"><ele>108.0</ele><time>2026-05-03T18:06:41.998Z</time></trkpt><trkpt lat="45.24970752152178" lon="8.72010575310508"><ele>108.0</ele><time>2026-05-03T18:06:42.998Z</time></trkpt><trkpt lat="45.2497265938522" lon="8.720267849327703"><ele>108.0</ele><time>2026-05-03T18:06:43.998Z</time></trkpt><trkpt lat="45.24976670855682" lon="8.720429927439"><ele>108.0</ele><time>2026-05-03T18:06:44.998Z</time></trkpt><trkpt lat="45.249806265483926" lon="8.720588240605728"><ele>108.25</ele><time>2026-05-03T18:06:45.998Z</time></trkpt><trkpt lat="45.24986005371024" lon="8.720733055442668"><ele>108.5</ele><time>2026-05-03T18:06:46.998Z</time></trkpt><trkpt lat="45.249892575097306" lon="8.720880734963496"><ele>108.75</ele><time>2026-05-03T18:06:47.998Z</time></trkpt><trkpt lat="45.249929365707594" lon="8.721036720819427"><ele>109.0</ele><time>2026-05-03T18:06:48.998Z</time></trkpt><trkpt lat="45.24996788324415" lon="8.721192324010236"><ele>109.0</ele><time>2026-05-03T18:06:49.998Z</time></trkpt><trkpt lat="45.250004382707324" lon="8.721347947253578"><ele>109.0</ele><time>2026-05-03T18:06:50.998Z</time></trkpt><trkpt lat="45.25003599566123" lon="8.721504832559923"><ele>109.0</ele><time>2026-05-03T18:06:51.998Z</time></trkpt><trkpt lat="45.25006068347102" lon="8.72166432018318"><ele>109.0</ele><time>2026-05-03T18:06:52.998Z</time></trkpt><trkpt lat="45.250080816221306" lon="8.721832561067592"><ele>109.25</ele><time>2026-05-03T18:06:53.998Z</time></trkpt><trkpt lat="45.250098838647844" lon="8.72199457402628"><ele>109.5</ele><time>2026-05-03T18:06:54.998Z</time></trkpt><trkpt lat="45.25011570046435" lon="8.722159760308253"><ele>109.75</ele><time>2026-05-03T18:06:55.998Z</time></trkpt><trkpt lat="45.25013014069029" lon="8.722325027761984"><ele>110.0</ele><time>2026-05-03T18:06:56.998Z</time></trkpt><trkpt lat="45.25014339457959" lon="8.722473580850117"><ele>109.99999999999999</ele><time>2026-05-03T18:06:57.998Z</time></trkpt><trkpt lat="45.25015508282569" lon="8.722609616579618"><ele>110.0</ele><time>2026-05-03T18:06:58.998Z</time></trkpt><trkpt lat="45.25016483702983" lon="8.722735075538944"><ele>110.0</ele><time>2026-05-03T18:06:59.998Z</time></trkpt><trkpt lat="45.25017038300899" lon="8.722851490753849"><ele>110.0</ele><time>2026-05-03T18:07:00.998Z</time></trkpt><trkpt lat="45.25018220601012" lon="8.72296030550449"><ele>109.99999999999999</ele><time>2026-05-03T18:07:01.998Z</time></trkpt><trkpt lat="45.25019038283669" lon="8.723063200033005"><ele>110.0</ele><time>2026-05-03T18:07:02.998Z</time></trkpt><trkpt lat="45.250199356799186" lon="8.72317088764876"><ele>109.99999999999999</ele><time>2026-05-03T18:07:03.998Z</time></trkpt><trkpt lat="45.25020616385598" lon="8.723284872186923"><ele>110.0</ele><time>2026-05-03T18:07:04.998Z</time></trkpt><trkpt lat="45.25021641499951" lon="8.723386352306987"><ele>110.0</ele><time>2026-05-03T18:07:05.998Z</time></trkpt><trkpt lat="45.25022553675159" lon="8.723497334201673"><ele>110.0</ele><time>2026-05-03T18:07:06.998Z</time></trkpt><trkpt lat="45.250236425545246" lon="8.72362391025799"><ele>109.99999999999999</ele><time>2026-05-03T18:07:07.998Z</time></trkpt><trkpt lat="45.25024926954747" lon="8.723757969839463"><ele>110.0</ele><time>2026-05-03T18:07:08.998Z</time></trkpt><trkpt lat="45.25024519038808" lon="8.723892653926343"><ele>109.8</ele><time>2026-05-03T18:07:09.998Z</time></trkpt><trkpt lat="45.25025699012765" lon="8.724031829319953"><ele>109.6</ele><time>2026-05-03T18:07:10.998Z</time></trkpt><trkpt lat="45.25026874371277" lon="8.724170459105503"><ele>109.4</ele><time>2026-05-03T18:07:11.998Z</time></trkpt><trkpt lat="45.250279041689296" lon="8.724297957886185"><ele>109.2</ele><time>2026-05-03T18:07:12.998Z</time></trkpt><trkpt lat="45.25028901523059" lon="8.72441956059507"><ele>109.0</ele><time>2026-05-03T18:07:13.998Z</time></trkpt><trkpt lat="45.25029833367299" lon="8.724533176032383"><ele>109.0</ele><time>2026-05-03T18:07:14.997Z</time></trkpt><trkpt lat="45.250306994728945" lon="8.724638776209684"><ele>109.0</ele><time>2026-05-03T18:07:15.997Z</time></trkpt><trkpt lat="45.25031498100849" lon="8.724736149294664"><ele>109.0</ele><time>2026-05-03T18:07:16.997Z</time></trkpt><trkpt lat="45.250325968313916" lon="8.72487011238809"><ele>109.0</ele><time>2026-05-03T18:07:18.997Z</time></trkpt><trkpt lat="45.25052794986267" lon="8.724864789380163"><ele>109.0</ele><time>2026-05-03T18:07:20.997Z</time></trkpt><trkpt lat="45.25061115164833" lon="8.724832400492978"><ele>108.6</ele><time>2026-05-03T18:07:21.997Z</time></trkpt><trkpt lat="45.250700884607426" lon="8.724832817381179"><ele>108.2</ele><time>2026-05-03T18:07:22.997Z</time></trkpt><trkpt lat="45.250797710721315" lon="8.724818378896307"><ele>107.79999999999998</ele><time>2026-05-03T18:07:23.997Z</time></trkpt><trkpt lat="45.250896387635294" lon="8.724803664443355"><ele>107.39999999999999</ele><time>2026-05-03T18:07:24.997Z</time></trkpt><trkpt lat="45.250999435717276" lon="8.724788394504552"><ele>107.0</ele><time>2026-05-03T18:07:25.997Z</time></trkpt><trkpt lat="45.25109913982093" lon="8.724772552675068"><ele>107.0</ele><time>2026-05-03T18:07:26.997Z</time></trkpt><trkpt lat="45.2512013295503" lon="8.724751353438634"><ele>106.99999999999999</ele><time>2026-05-03T18:07:27.997Z</time></trkpt><trkpt lat="45.25130390807077" lon="8.724741442284142"><ele>106.99999999999999</ele><time>2026-05-03T18:07:28.997Z</time></trkpt><trkpt lat="45.25139742228745" lon="8.724719318606198"><ele>107.0</ele><time>2026-05-03T18:07:29.997Z</time></trkpt><trkpt lat="45.25147962367802" lon="8.724699936761999"><ele>107.0</ele><time>2026-05-03T18:07:30.997Z</time></trkpt><trkpt lat="45.251549853445276" lon="8.724686690192298"><ele>107.6</ele><time>2026-05-03T18:07:31.997Z</time></trkpt><trkpt lat="45.25166128144192" lon="8.724680493399072"><ele>108.19999999999999</ele><time>2026-05-03T18:07:33.997Z</time></trkpt><trkpt lat="45.25169686595967" lon="8.724843573414919"><ele>108.8</ele><time>2026-05-03T18:07:36.997Z</time></trkpt><trkpt lat="45.25170545619885" lon="8.724964779543194"><ele>109.4</ele><time>2026-05-03T18:07:37.997Z</time></trkpt><trkpt lat="45.25172728652127" lon="8.72509407573697"><ele>110.0</ele><time>2026-05-03T18:07:38.997Z</time></trkpt><trkpt lat="45.25173414851284" lon="8.725239955672274"><ele>110.0</ele><time>2026-05-03T18:07:39.997Z</time></trkpt><trkpt lat="45.25175036441602" lon="8.72540127477546"><ele>110.0</ele><time>2026-05-03T18:07:40.997Z</time></trkpt><trkpt lat="45.25174838489522" lon="8.725566702739401"><ele>110.0</ele><time>2026-05-03T18:07:42Z</time></trkpt><trkpt lat="45.25177557546897" lon="8.725710435905405"><ele>110.0</ele><time>2026-05-03T18:07:43Z</time></trkpt><trkpt lat="45.25177611476184" lon="8.725842132649907"><ele>110.0</ele><time>2026-05-03T18:07:44Z</time></trkpt><trkpt lat="45.251780299180155" lon="8.725962716678865"><ele>109.8</ele><time>2026-05-03T18:07:45Z</time></trkpt><trkpt lat="45.25178605185557" lon="8.726073557882035"><ele>109.6</ele><time>2026-05-03T18:07:46Z</time></trkpt><trkpt lat="45.25179194706024" lon="8.726171955479975"><ele>109.4</ele><time>2026-05-03T18:07:47Z</time></trkpt><trkpt lat="45.251801295721236" lon="8.726325785371376"><ele>109.2</ele><time>2026-05-03T18:07:49Z</time></trkpt><trkpt lat="45.25181281905709" lon="8.726433101457339"><ele>109.0</ele><time>2026-05-03T18:07:52Z</time></trkpt><trkpt lat="45.251929605902134" lon="8.726521266181201"><ele>109.0</ele><time>2026-05-03T18:07:54Z</time></trkpt><trkpt lat="45.25200644602191" lon="8.726546120943398"><ele>109.0</ele><time>2026-05-03T18:07:55Z</time></trkpt><trkpt lat="45.25209037461856" lon="8.726569283422238"><ele>109.0</ele><time>2026-05-03T18:07:56Z</time></trkpt><trkpt lat="45.25218801141498" lon="8.726587480823706"><ele>109.0</ele><time>2026-05-03T18:07:57Z</time></trkpt><trkpt lat="45.252292340731344" lon="8.726601020896089"><ele>109.0</ele><time>2026-05-03T18:07:58Z</time></trkpt><trkpt lat="45.2524066878729" lon="8.726619684979552"><ele>109.2</ele><time>2026-05-03T18:07:59Z</time></trkpt><trkpt lat="45.252495419386726" lon="8.726653122281089"><ele>109.4</ele><time>2026-05-03T18:08:00Z</time></trkpt><trkpt lat="45.25260166092703" lon="8.72667493253084"><ele>109.6</ele><time>2026-05-03T18:08:01Z</time></trkpt><trkpt lat="45.25271802995011" lon="8.726670687210003"><ele>109.8</ele><time>2026-05-03T18:08:02Z</time></trkpt><trkpt lat="45.25283706401589" lon="8.7266707132182"><ele>110.0</ele><time>2026-05-03T18:08:03Z</time></trkpt><trkpt lat="45.25296308164129" lon="8.726683249862198"><ele>110.0</ele><time>2026-05-03T18:08:04Z</time></trkpt><trkpt lat="45.253089747760995" lon="8.726692124833193"><ele>110.0</ele><time>2026-05-03T18:08:05Z</time></trkpt><trkpt lat="45.25321678342387" lon="8.726687800779905"><ele>110.0</ele><time>2026-05-03T18:08:06Z</time></trkpt><trkpt lat="45.253343548099785" lon="8.7266723701158"><ele>110.0</ele><time>2026-05-03T18:08:07Z</time></trkpt><trkpt lat="45.2534721518115" lon="8.726654241311769"><ele>109.5</ele><time>2026-05-03T18:08:08Z</time></trkpt><trkpt lat="45.25360658877059" lon="8.726639413903774"><ele>109.0</ele><time>2026-05-03T18:08:09Z</time></trkpt><trkpt lat="45.25374127792711" lon="8.726626745479042"><ele>108.5</ele><time>2026-05-03T18:08:10Z</time></trkpt><trkpt lat="45.253871060428295" lon="8.726606924093035"><ele>108.0</ele><time>2026-05-03T18:08:11Z</time></trkpt><trkpt lat="45.25400085888692" lon="8.726591011110203"><ele>107.5</ele><time>2026-05-03T18:08:11.999Z</time></trkpt><trkpt lat="45.25412489501803" lon="8.726566898857056"><ele>107.0</ele><time>2026-05-03T18:08:12.999Z</time></trkpt><trkpt lat="45.254242097339755" lon="8.726544339867496"><ele>106.5</ele><time>2026-05-03T18:08:13.999Z</time></trkpt><trkpt lat="45.25435999447706" lon="8.726519993975119"><ele>106.0</ele><time>2026-05-03T18:08:14.999Z</time></trkpt><trkpt lat="45.25447553198667" lon="8.726490076303461"><ele>106.0</ele><time>2026-05-03T18:08:15.999Z</time></trkpt><trkpt lat="45.25457887469332" lon="8.726452989615638"><ele>106.0</ele><time>2026-05-03T18:08:16.999Z</time></trkpt><trkpt lat="45.25467782945208" lon="8.726413937848585"><ele>106.0</ele><time>2026-05-03T18:08:17.999Z</time></trkpt><trkpt lat="45.25477242515794" lon="8.72637967528885"><ele>106.0</ele><time>2026-05-03T18:08:18.999Z</time></trkpt><trkpt lat="45.254861431740814" lon="8.72634706769065"><ele>106.0</ele><time>2026-05-03T18:08:19.999Z</time></trkpt><trkpt lat="45.25494059603693" lon="8.726315178098933"><ele>106.0</ele><time>2026-05-03T18:08:20.999Z</time></trkpt><trkpt lat="45.2550140798158" lon="8.72628356054074"><ele>106.0</ele><time>2026-05-03T18:08:21.999Z</time></trkpt><trkpt lat="45.25507698806886" lon="8.726248682831145"><ele>106.0</ele><time>2026-05-03T18:08:22.999Z</time></trkpt><trkpt lat="45.25516164307345" lon="8.726101184264884"><ele>106.0</ele><time>2026-05-03T18:08:24.999Z</time></trkpt><trkpt lat="45.25518305843069" lon="8.725983856750696"><ele>106.0</ele><time>2026-05-03T18:08:25.999Z</time></trkpt><trkpt lat="45.255194493616806" lon="8.72585901488093"><ele>106.0</ele><time>2026-05-03T18:08:26.999Z</time></trkpt><trkpt lat="45.25522988735539" lon="8.725726258557016"><ele>106.0</ele><time>2026-05-03T18:08:27.999Z</time></trkpt><trkpt lat="45.25525152472792" lon="8.725592116763861"><ele>106.0</ele><time>2026-05-03T18:08:28.999Z</time></trkpt><trkpt lat="45.25528348732014" lon="8.725436491914039"><ele>106.0</ele><time>2026-05-03T18:08:29.999Z</time></trkpt><trkpt lat="45.2553404373715" lon="8.725286907273977"><ele>106.0</ele><time>2026-05-03T18:08:30.999Z</time></trkpt><trkpt lat="45.25539733812846" lon="8.72513985437382"><ele>106.0</ele><time>2026-05-03T18:08:31.999Z</time></trkpt><trkpt lat="45.255460657932446" lon="8.724993264342576"><ele>106.0</ele><time>2026-05-03T18:08:32.999Z</time></trkpt><trkpt lat="45.25552327910628" lon="8.724828589666606"><ele>106.0</ele><time>2026-05-03T18:08:33.999Z</time></trkpt><trkpt lat="45.25561345190067" lon="8.724655360964189"><ele>106.0</ele><time>2026-05-03T18:08:34.999Z</time></trkpt><trkpt lat="45.25569058718476" lon="8.724458244881596"><ele>106.0</ele><time>2026-05-03T18:08:35.999Z</time></trkpt><trkpt lat="45.255748403067464" lon="8.724269942125265"><ele>106.0</ele><time>2026-05-03T18:08:36.999Z</time></trkpt><trkpt lat="45.2557888817424" lon="8.724058582383691"><ele>106.0</ele><time>2026-05-03T18:08:37.999Z</time></trkpt><trkpt lat="45.25582176802658" lon="8.723806570972311"><ele>106.0</ele><time>2026-05-03T18:08:38.999Z</time></trkpt><trkpt lat="45.25584807875435" lon="8.723604900152965"><ele>106.0</ele><time>2026-05-03T18:08:39.999Z</time></trkpt><trkpt lat="45.255892258570654" lon="8.723414537990978"><ele>106.0</ele><time>2026-05-03T18:08:40.999Z</time></trkpt><trkpt lat="45.255959337146884" lon="8.723222860525576"><ele>106.0</ele><time>2026-05-03T18:08:41.999Z</time></trkpt><trkpt lat="45.256028336922505" lon="8.723033240492763"><ele>106.25</ele><time>2026-05-03T18:08:42.999Z</time></trkpt><trkpt lat="45.256103201502064" lon="8.722837305462788"><ele>106.5</ele><time>2026-05-03T18:08:43.999Z</time></trkpt><trkpt lat="45.25616841673489" lon="8.722661789615051"><ele>106.75</ele><time>2026-05-03T18:08:44.999Z</time></trkpt><trkpt lat="45.256217918129856" lon="8.722462312467162"><ele>107.0</ele><time>2026-05-03T18:08:45.998Z</time></trkpt><trkpt lat="45.2562541492379" lon="8.722224416851342"><ele>107.33333333333333</ele><time>2026-05-03T18:08:46.998Z</time></trkpt><trkpt lat="45.25627298319929" lon="8.721956951379012"><ele>107.66666666666666</ele><time>2026-05-03T18:08:47.998Z</time></trkpt><trkpt lat="45.25628955520662" lon="8.721723246549857"><ele>108.0</ele><time>2026-05-03T18:08:48.998Z</time></trkpt><trkpt lat="45.25631579815795" lon="8.721515866642333"><ele>108.25</ele><time>2026-05-03T18:08:49.998Z</time></trkpt><trkpt lat="45.256361696985124" lon="8.721304661014523"><ele>108.5</ele><time>2026-05-03T18:08:50.998Z</time></trkpt><trkpt lat="45.25641164040011" lon="8.721119975609668"><ele>108.75</ele><time>2026-05-03T18:08:51.998Z</time></trkpt><trkpt lat="45.25646317286779" lon="8.72093374578953"><ele>109.0</ele><time>2026-05-03T18:08:52.998Z</time></trkpt><trkpt lat="45.256526043326694" lon="8.720759741914627"><ele>108.5</ele><time>2026-05-03T18:08:53.998Z</time></trkpt><trkpt lat="45.25659152995845" lon="8.720603514782866"><ele>108.0</ele><time>2026-05-03T18:08:54.998Z</time></trkpt><trkpt lat="45.256671608349215" lon="8.720449148560384"><ele>107.5</ele><time>2026-05-03T18:08:55.998Z</time></trkpt><trkpt lat="45.2567465978846" lon="8.720284751134807"><ele>107.0</ele><time>2026-05-03T18:08:56.998Z</time></trkpt><trkpt lat="45.256829563018314" lon="8.72011120586614"><ele>107.0</ele><time>2026-05-03T18:08:57.998Z</time></trkpt><trkpt lat="45.25691626532571" lon="8.719937957204566"><ele>107.0</ele><time>2026-05-03T18:08:58.998Z</time></trkpt><trkpt lat="45.25698524690294" lon="8.719761360752681"><ele>107.0</ele><time>2026-05-03T18:08:59.998Z</time></trkpt><trkpt lat="45.25705083478067" lon="8.719580129179517"><ele>107.0</ele><time>2026-05-03T18:09:00.998Z</time></trkpt><trkpt lat="45.257120251607375" lon="8.719383174708145"><ele>107.75</ele><time>2026-05-03T18:09:01.998Z</time></trkpt><trkpt lat="45.25719458322358" lon="8.71920906217034"><ele>108.5</ele><time>2026-05-03T18:09:02.998Z</time></trkpt><trkpt lat="45.257259272790215" lon="8.719039364033081"><ele>109.25</ele><time>2026-05-03T18:09:03.998Z</time></trkpt><trkpt lat="45.25731375073645" lon="8.71885337980993"><ele>110.0</ele><time>2026-05-03T18:09:04.998Z</time></trkpt><trkpt lat="45.25735242195365" lon="8.718657377644972"><ele>109.75</ele><time>2026-05-03T18:09:05.998Z</time></trkpt><trkpt lat="45.257398337109834" lon="8.71847067396713"><ele>109.5</ele><time>2026-05-03T18:09:06.998Z</time></trkpt><trkpt lat="45.25747079273418" lon="8.718299513639115"><ele>109.25</ele><time>2026-05-03T18:09:07.998Z</time></trkpt><trkpt lat="45.257549402342626" lon="8.718130303336318"><ele>109.0</ele><time>2026-05-03T18:09:08.998Z</time></trkpt><trkpt lat="45.25762213129263" lon="8.717949863206535"><ele>109.0</ele><time>2026-05-03T18:09:09.998Z</time></trkpt><trkpt lat="45.25770514310998" lon="8.717755844550847"><ele>109.0</ele><time>2026-05-03T18:09:10.998Z</time></trkpt><trkpt lat="45.257780310109396" lon="8.717580447925869"><ele>109.0</ele><time>2026-05-03T18:09:11.998Z</time></trkpt><trkpt lat="45.257847519249815" lon="8.717421183827586"><ele>109.0</ele><time>2026-05-03T18:09:12.998Z</time></trkpt><trkpt lat="45.257909815562414" lon="8.717258913806983"><ele>109.0</ele><time>2026-05-03T18:09:13.998Z</time></trkpt><trkpt lat="45.257978778417545" lon="8.717108237854708"><ele>109.0</ele><time>2026-05-03T18:09:14.998Z</time></trkpt><trkpt lat="45.25803988503074" lon="8.716973195463556"><ele>109.0</ele><time>2026-05-03T18:09:15.998Z</time></trkpt><trkpt lat="45.25809428686474" lon="8.716838459298701"><ele>109.0</ele><time>2026-05-03T18:09:16.998Z</time></trkpt><trkpt lat="45.258148496527454" lon="8.716705990484758"><ele>108.4</ele><time>2026-05-03T18:09:17.998Z</time></trkpt><trkpt lat="45.25820920232953" lon="8.716558700346232"><ele>107.80000000000001</ele><time>2026-05-03T18:09:18.998Z</time></trkpt><trkpt lat="45.258265468785474" lon="8.716420393730646"><ele>107.19999999999999</ele><time>2026-05-03T18:09:19.997Z</time></trkpt><trkpt lat="45.2583160062367" lon="8.716296833964375"><ele>106.6</ele><time>2026-05-03T18:09:20.997Z</time></trkpt><trkpt lat="45.25836146180094" lon="8.716183081407502"><ele>106.0</ele><time>2026-05-03T18:09:21.997Z</time></trkpt><trkpt lat="45.25839272726933" lon="8.716090702327135"><ele>106.6</ele><time>2026-05-03T18:09:22.997Z</time></trkpt><trkpt lat="45.25842781616877" lon="8.715941892358126"><ele>107.19999999999999</ele><time>2026-05-03T18:09:24.997Z</time></trkpt><trkpt lat="45.25846765255839" lon="8.715826577925025"><ele>107.80000000000001</ele><time>2026-05-03T18:09:26.997Z</time></trkpt><trkpt lat="45.25852739002867" lon="8.71568416375986"><ele>108.4</ele><time>2026-05-03T18:09:28.997Z</time></trkpt><trkpt lat="45.25855148101963" lon="8.715521706186943"><ele>109.0</ele><time>2026-05-03T18:09:30.997Z</time></trkpt><trkpt lat="45.25857102602818" lon="8.715338985581969"><ele>109.0</ele><time>2026-05-03T18:09:32.997Z</time></trkpt><trkpt lat="45.258602619726055" lon="8.715223888609462"><ele>109.0</ele><time>2026-05-03T18:09:33.997Z</time></trkpt><trkpt lat="45.25863885897347" lon="8.71509569123614"><ele>109.0</ele><time>2026-05-03T18:09:34.997Z</time></trkpt><trkpt lat="45.25867024183117" lon="8.714956061999784"><ele>109.0</ele><time>2026-05-03T18:09:35.997Z</time></trkpt><trkpt lat="45.25871194533621" lon="8.71478893446286"><ele>109.0</ele><time>2026-05-03T18:09:36.997Z</time></trkpt><trkpt lat="45.25875328880691" lon="8.714619629348162"><ele>109.0</ele><time>2026-05-03T18:09:37.997Z</time></trkpt><trkpt lat="45.258800599645234" lon="8.714440850776493"><ele>109.0</ele><time>2026-05-03T18:09:38.997Z</time></trkpt><trkpt lat="45.2588452788782" lon="8.714254814069907"><ele>109.0</ele><time>2026-05-03T18:09:39.997Z</time></trkpt><trkpt lat="45.25889269377683" lon="8.714072099893587"><ele>109.0</ele><time>2026-05-03T18:09:40.997Z</time></trkpt><trkpt lat="45.258937544654316" lon="8.713886703358305"><ele>108.75</ele><time>2026-05-03T18:09:41.997Z</time></trkpt><trkpt lat="45.258982985469494" lon="8.713705045520033"><ele>108.5</ele><time>2026-05-03T18:09:42.997Z</time></trkpt><trkpt lat="45.259028837445406" lon="8.713516025446156"><ele>108.25</ele><time>2026-05-03T18:09:43.997Z</time></trkpt><trkpt lat="45.25907368583186" lon="8.713321841879763"><ele>108.0</ele><time>2026-05-03T18:09:44.997Z</time></trkpt><trkpt lat="45.25912122616978" lon="8.713119476678472"><ele>108.0</ele><time>2026-05-03T18:09:45.997Z</time></trkpt><trkpt lat="45.25917603123674" lon="8.71291091239705"><ele>108.0</ele><time>2026-05-03T18:09:46.997Z</time></trkpt><trkpt lat="45.259234045896065" lon="8.71270222653737"><ele>108.0</ele><time>2026-05-03T18:09:48Z</time></trkpt><trkpt lat="45.25928874129641" lon="8.712501372775904"><ele>108.0</ele><time>2026-05-03T18:09:49Z</time></trkpt><trkpt lat="45.259339039036995" lon="8.712304876692109"><ele>108.0</ele><time>2026-05-03T18:09:50Z</time></trkpt><trkpt lat="45.25938477481805" lon="8.712121455263024"><ele>108.0</ele><time>2026-05-03T18:09:51Z</time></trkpt><trkpt lat="45.25943345268968" lon="8.711937682879038"><ele>108.0</ele><time>2026-05-03T18:09:52Z</time></trkpt><trkpt lat="45.259495773121095" lon="8.711754174980788"><ele>108.0</ele><time>2026-05-03T18:09:53Z</time></trkpt><trkpt lat="45.259572328415196" lon="8.711582132515291"><ele>108.0</ele><time>2026-05-03T18:09:54Z</time></trkpt><trkpt lat="45.25965461832" lon="8.71141612511052"><ele>108.0</ele><time>2026-05-03T18:09:55Z</time></trkpt><trkpt lat="45.25972423198383" lon="8.711235419764611"><ele>108.0</ele><time>2026-05-03T18:09:56Z</time></trkpt><trkpt lat="45.259779165056784" lon="8.711030234806849"><ele>108.66666666666666</ele><time>2026-05-03T18:09:57Z</time></trkpt><trkpt lat="45.25983193667829" lon="8.710822386907285"><ele>109.33333333333333</ele><time>2026-05-03T18:09:58Z</time></trkpt><trkpt lat="45.25988027015023" lon="8.710613284988135"><ele>110.0</ele><time>2026-05-03T18:09:59Z</time></trkpt><trkpt lat="45.25992972367947" lon="8.710405049863429"><ele>109.5</ele><time>2026-05-03T18:10:00Z</time></trkpt><trkpt lat="45.25997433239831" lon="8.710201386708182"><ele>109.0</ele><time>2026-05-03T18:10:01Z</time></trkpt><trkpt lat="45.26001667353354" lon="8.709995172730697"><ele>108.5</ele><time>2026-05-03T18:10:02Z</time></trkpt><trkpt lat="45.26005123158793" lon="8.70980946044151"><ele>108.0</ele><time>2026-05-03T18:10:03Z</time></trkpt><trkpt lat="45.26008568464364" lon="8.709638576997053"><ele>108.0</ele><time>2026-05-03T18:10:04Z</time></trkpt><trkpt lat="45.26011563770949" lon="8.70948471295098"><ele>108.00000000000001</ele><time>2026-05-03T18:10:05Z</time></trkpt><trkpt lat="45.260142619227906" lon="8.709344981230075"><ele>108.00000000000001</ele><time>2026-05-03T18:10:06Z</time></trkpt><trkpt lat="45.260165796337176" lon="8.70921783152158"><ele>108.0</ele><time>2026-05-03T18:10:07Z</time></trkpt><trkpt lat="45.26018889501765" lon="8.709109362260088"><ele>108.0</ele><time>2026-05-03T18:10:08Z</time></trkpt><trkpt lat="45.260217836317985" lon="8.709007254463454"><ele>107.75</ele><time>2026-05-03T18:10:09Z</time></trkpt><trkpt lat="45.26025339725203" lon="8.70892987010348"><ele>107.5</ele><time>2026-05-03T18:10:10Z</time></trkpt><trkpt lat="45.26038714780419" lon="8.708923318465894"><ele>107.25</ele><time>2026-05-03T18:10:12Z</time></trkpt><trkpt lat="45.260495360462215" lon="8.709014406462673"><ele>107.0</ele><time>2026-05-03T18:10:13Z</time></trkpt><trkpt lat="45.26062339376313" lon="8.709144013308606"><ele>107.66666666666666</ele><time>2026-05-03T18:10:14Z</time></trkpt><trkpt lat="45.26078113893027" lon="8.709250707977409"><ele>108.33333333333334</ele><time>2026-05-03T18:10:15Z</time></trkpt><trkpt lat="45.26094943717749" lon="8.709351454724173"><ele>109.0</ele><time>2026-05-03T18:10:16Z</time></trkpt><trkpt lat="45.26111117334179" lon="8.709458938419417"><ele>109.0</ele><time>2026-05-03T18:10:17Z</time></trkpt><trkpt lat="45.26125281427122" lon="8.709555864101498"><ele>109.0</ele><time>2026-05-03T18:10:17.999Z</time></trkpt><trkpt lat="45.26138781414016" lon="8.709655364612388"><ele>109.0</ele><time>2026-05-03T18:10:18.999Z</time></trkpt><trkpt lat="45.261523632148055" lon="8.709747237908571"><ele>109.0</ele><time>2026-05-03T18:10:19.999Z</time></trkpt><trkpt lat="45.26165770356313" lon="8.70983489837556"><ele>109.0</ele><time>2026-05-03T18:10:20.999Z</time></trkpt><trkpt lat="45.26177962525412" lon="8.709936306560367"><ele>109.0</ele><time>2026-05-03T18:10:21.999Z</time></trkpt><trkpt lat="45.26190483817339" lon="8.710050858697961"><ele>109.0</ele><time>2026-05-03T18:10:22.999Z</time></trkpt><trkpt lat="45.262020628042116" lon="8.71016179989034"><ele>108.75</ele><time>2026-05-03T18:10:23.999Z</time></trkpt><trkpt lat="45.26212620834639" lon="8.710284761567566"><ele>108.5</ele><time>2026-05-03T18:10:24.999Z</time></trkpt><trkpt lat="45.26223049406897" lon="8.710431815778376"><ele>108.25</ele><time>2026-05-03T18:10:25.999Z</time></trkpt><trkpt lat="45.26232134644475" lon="8.710593512081687"><ele>108.0</ele><time>2026-05-03T18:10:26.999Z</time></trkpt><trkpt lat="45.26241545727339" lon="8.710781152034885"><ele>108.0</ele><time>2026-05-03T18:10:27.999Z</time></trkpt><trkpt lat="45.26249295441929" lon="8.710968683143978"><ele>108.0</ele><time>2026-05-03T18:10:28.999Z</time></trkpt><trkpt lat="45.26256939293226" lon="8.711153802679343"><ele>108.0</ele><time>2026-05-03T18:10:29.999Z</time></trkpt><trkpt lat="45.26265042674039" lon="8.711324578363323"><ele>108.0</ele><time>2026-05-03T18:10:30.999Z</time></trkpt><trkpt lat="45.26273589801457" lon="8.711497179600727"><ele>108.0</ele><time>2026-05-03T18:10:31.999Z</time></trkpt><trkpt lat="45.26282182850196" lon="8.711655073209661"><ele>108.0</ele><time>2026-05-03T18:10:32.999Z</time></trkpt><trkpt lat="45.2629019949647" lon="8.711800553203224"><ele>108.0</ele><time>2026-05-03T18:10:33.999Z</time></trkpt><trkpt lat="45.262990920331745" lon="8.711937720551914"><ele>108.0</ele><time>2026-05-03T18:10:34.999Z</time></trkpt><trkpt lat="45.263083067165375" lon="8.71206048475137"><ele>108.4</ele><time>2026-05-03T18:10:35.999Z</time></trkpt><trkpt lat="45.26316823901733" lon="8.712187708570244"><ele>108.80000000000001</ele><time>2026-05-03T18:10:36.999Z</time></trkpt><trkpt lat="45.26323272626307" lon="8.712321507540368"><ele>109.2</ele><time>2026-05-03T18:10:37.999Z</time></trkpt><trkpt lat="45.263294122171466" lon="8.712423249046633"><ele>109.6</ele><time>2026-05-03T18:10:38.999Z</time></trkpt><trkpt lat="45.26335343778931" lon="8.712487773376743"><ele>110.0</ele><time>2026-05-03T18:10:39.999Z</time></trkpt><trkpt lat="45.26345191778413" lon="8.71255395451104"><ele>110.0</ele><time>2026-05-03T18:10:41.999Z</time></trkpt><trkpt lat="45.26352061142994" lon="8.712507830589136"><ele>110.0</ele><time>2026-05-03T18:10:42.999Z</time></trkpt><trkpt lat="45.26360728783967" lon="8.712411073059183"><ele>110.0</ele><time>2026-05-03T18:10:43.999Z</time></trkpt><trkpt lat="45.263735083449866" lon="8.712302723673735"><ele>110.0</ele><time>2026-05-03T18:10:44.999Z</time></trkpt><trkpt lat="45.263878695284966" lon="8.71219750631416"><ele>110.25</ele><time>2026-05-03T18:10:45.999Z</time></trkpt><trkpt lat="45.26401848208598" lon="8.712091061598246"><ele>110.5</ele><time>2026-05-03T18:10:46.999Z</time></trkpt><trkpt lat="45.264124190290815" lon="8.712009626035071"><ele>110.75</ele><time>2026-05-03T18:10:47.999Z</time></trkpt><trkpt lat="45.26421294404866" lon="8.711940953271919"><ele>111.0</ele><time>2026-05-03T18:10:48.999Z</time></trkpt><trkpt lat="45.26429801581238" lon="8.71187608689259"><ele>110.6</ele><time>2026-05-03T18:10:49.999Z</time></trkpt><trkpt lat="45.264369973689696" lon="8.711829916088735"><ele>110.19999999999999</ele><time>2026-05-03T18:10:50.998Z</time></trkpt><trkpt lat="45.264434206816915" lon="8.711807607795098"><ele>109.80000000000001</ele><time>2026-05-03T18:10:51.998Z</time></trkpt><trkpt lat="45.26454535374845" lon="8.711832366145828"><ele>109.4</ele><time>2026-05-03T18:10:53.998Z</time></trkpt><trkpt lat="45.26467283728343" lon="8.711814450312083"><ele>109.0</ele><time>2026-05-03T18:10:55.998Z</time></trkpt><trkpt lat="45.26475441564488" lon="8.711721138483648"><ele>109.4</ele><time>2026-05-03T18:10:56.998Z</time></trkpt><trkpt lat="45.26483490551558" lon="8.711581626372755"><ele>109.80000000000001</ele><time>2026-05-03T18:10:57.998Z</time></trkpt><trkpt lat="45.264901842351286" lon="8.7114586661584"><ele>110.19999999999999</ele><time>2026-05-03T18:10:58.998Z</time></trkpt><trkpt lat="45.26497723900245" lon="8.711371719478787"><ele>110.6</ele><time>2026-05-03T18:10:59.998Z</time></trkpt><trkpt lat="45.26506200817157" lon="8.711324208479903"><ele>111.0</ele><time>2026-05-03T18:11:00.998Z</time></trkpt><trkpt lat="45.26513766352656" lon="8.711286854252585"><ele>111.0</ele><time>2026-05-03T18:11:01.998Z</time></trkpt><trkpt lat="45.26519665885742" lon="8.711240927818105"><ele>111.0</ele><time>2026-05-03T18:11:02.998Z</time></trkpt><trkpt lat="45.26529154169693" lon="8.711223201502955"><ele>111.0</ele><time>2026-05-03T18:11:04.998Z</time></trkpt><trkpt lat="45.265356560367366" lon="8.7113370466863"><ele>111.0</ele><time>2026-05-03T18:11:06.998Z</time></trkpt><trkpt lat="45.265370034791275" lon="8.711435639998765"><ele>111.0</ele><time>2026-05-03T18:11:07.998Z</time></trkpt><trkpt lat="45.265372259594145" lon="8.711544635981118"><ele>111.0</ele><time>2026-05-03T18:11:08.998Z</time></trkpt><trkpt lat="45.265376278560325" lon="8.711655276320373"><ele>111.0</ele><time>2026-05-03T18:11:09.998Z</time></trkpt><trkpt lat="45.2653878911532" lon="8.711777009720738"><ele>111.0</ele><time>2026-05-03T18:11:10.998Z</time></trkpt><trkpt lat="45.26539941365636" lon="8.711892487593673"><ele>111.0</ele><time>2026-05-03T18:11:11.998Z</time></trkpt><trkpt lat="45.26540346814463" lon="8.712016428307509"><ele>111.0</ele><time>2026-05-03T18:11:12.998Z</time></trkpt><trkpt lat="45.265413359963716" lon="8.712158619880494"><ele>111.0</ele><time>2026-05-03T18:11:13.998Z</time></trkpt><trkpt lat="45.26540377723375" lon="8.71230758283677"><ele>111.0</ele><time>2026-05-03T18:11:14.998Z</time></trkpt><trkpt lat="45.265410528919446" lon="8.712463851250583"><ele>111.0</ele><time>2026-05-03T18:11:15.998Z</time></trkpt><trkpt lat="45.26541714755327" lon="8.712617040156607"><ele>111.0</ele><time>2026-05-03T18:11:16.998Z</time></trkpt><trkpt lat="45.265423547440676" lon="8.712767137432035"><ele>111.0</ele><time>2026-05-03T18:11:17.998Z</time></trkpt><trkpt lat="45.26544627043916" lon="8.712929010379515"><ele>111.0</ele><time>2026-05-03T18:11:18.998Z</time></trkpt><trkpt lat="45.26545216265094" lon="8.713098533206693"><ele>111.0</ele><time>2026-05-03T18:11:19.998Z</time></trkpt><trkpt lat="45.26545059870117" lon="8.71326905737913"><ele>111.0</ele><time>2026-05-03T18:11:20.998Z</time></trkpt><trkpt lat="45.26544429086942" lon="8.713453384276038"><ele>111.0</ele><time>2026-05-03T18:11:21.998Z</time></trkpt><trkpt lat="45.26544056215684" lon="8.713650317897415"><ele>111.0</ele><time>2026-05-03T18:11:22.998Z</time></trkpt><trkpt lat="45.26543873235819" lon="8.713854276801007"><ele>111.0</ele><time>2026-05-03T18:11:23.998Z</time></trkpt><trkpt lat="45.26542120772078" lon="8.714059284103836"><ele>111.0</ele><time>2026-05-03T18:11:24.997Z</time></trkpt><trkpt lat="45.26542220348003" lon="8.714250533439941"><ele>111.0</ele><time>2026-05-03T18:11:25.997Z</time></trkpt><trkpt lat="45.265423142783725" lon="8.71443093984618"><ele>111.0</ele><time>2026-05-03T18:11:26.997Z</time></trkpt><trkpt lat="45.26542402096123" lon="8.714599606216096"><ele>110.6</ele><time>2026-05-03T18:11:27.997Z</time></trkpt><trkpt lat="45.26542485651983" lon="8.7147600869642"><ele>110.19999999999999</ele><time>2026-05-03T18:11:28.997Z</time></trkpt><trkpt lat="45.26542566928334" lon="8.714916189472019"><ele>109.80000000000001</ele><time>2026-05-03T18:11:29.997Z</time></trkpt><trkpt lat="45.26542933674577" lon="8.71505763070607"><ele>109.4</ele><time>2026-05-03T18:11:30.997Z</time></trkpt><trkpt lat="45.265437667963816" lon="8.715204536570312"><ele>109.0</ele><time>2026-05-03T18:11:31.997Z</time></trkpt><trkpt lat="45.26545634610505" lon="8.715338287902803"><ele>109.0</ele><time>2026-05-03T18:11:32.997Z</time></trkpt><trkpt lat="45.26549472814981" lon="8.715457998650477"><ele>109.0</ele><time>2026-05-03T18:11:33.997Z</time></trkpt><trkpt lat="45.26550574176582" lon="8.71558865082365"><ele>109.0</ele><time>2026-05-03T18:11:34.997Z</time></trkpt><trkpt lat="45.26553505698897" lon="8.715741862783815"><ele>109.0</ele><time>2026-05-03T18:11:35.997Z</time></trkpt><trkpt lat="45.26555627238958" lon="8.715903440726372"><ele>109.0</ele><time>2026-05-03T18:11:36.997Z</time></trkpt><trkpt lat="45.26557689353155" lon="8.716048500657848"><ele>109.33333333333334</ele><time>2026-05-03T18:11:37.997Z</time></trkpt><trkpt lat="45.26560133886873" lon="8.71618642858678"><ele>109.66666666666667</ele><time>2026-05-03T18:11:38.997Z</time></trkpt><trkpt lat="45.265638199743336" lon="8.716313870670202"><ele>110.0</ele><time>2026-05-03T18:11:39.997Z</time></trkpt><trkpt lat="45.265658194347125" lon="8.71643609225106"><ele>110.33333333333334</ele><time>2026-05-03T18:11:40.997Z</time></trkpt><trkpt lat="45.265677185373" lon="8.71654835275592"><ele>110.66666666666667</ele><time>2026-05-03T18:11:41.997Z</time></trkpt><trkpt lat="45.265693935398005" lon="8.716645498284912"><ele>111.0</ele><time>2026-05-03T18:11:42.997Z</time></trkpt><trkpt lat="45.26570455744522" lon="8.716747587421043"><ele>111.0</ele><time>2026-05-03T18:11:44.997Z</time></trkpt><trkpt lat="45.26566291718413" lon="8.716863862524791"><ele>111.0</ele><time>2026-05-03T18:11:46.997Z</time></trkpt><trkpt lat="45.26559793964699" lon="8.716934329449458"><ele>111.0</ele><time>2026-05-03T18:11:47.997Z</time></trkpt><trkpt lat="45.26554514146165" lon="8.71699669376798"><ele>111.0</ele><time>2026-05-03T18:11:48.997Z</time></trkpt><trkpt lat="45.26547581689359" lon="8.71707967807618"><ele>111.0</ele><time>2026-05-03T18:11:49.997Z</time></trkpt><trkpt lat="45.26540366300194" lon="8.717156822802059"><ele>111.0</ele><time>2026-05-03T18:11:50.997Z</time></trkpt><trkpt lat="45.26531966830149" lon="8.717224478539515"><ele>110.8</ele><time>2026-05-03T18:11:51.997Z</time></trkpt><trkpt lat="45.26522840276383" lon="8.717275003929053"><ele>110.6</ele><time>2026-05-03T18:11:52.997Z</time></trkpt><trkpt lat="45.265137971602" lon="8.71732984065157"><ele>110.4</ele><time>2026-05-03T18:11:54Z</time></trkpt><trkpt lat="45.265043440071466" lon="8.717388383659017"><ele>110.2</ele><time>2026-05-03T18:11:55Z</time></trkpt><trkpt lat="45.26495029782924" lon="8.717444101292564"><ele>110.0</ele><time>2026-05-03T18:11:56Z</time></trkpt><trkpt lat="45.26486362465138" lon="8.717479110897754"><ele>109.99999999999999</ele><time>2026-05-03T18:11:57Z</time></trkpt><trkpt lat="45.26479832647875" lon="8.717515932013393"><ele>110.0</ele><time>2026-05-03T18:11:58Z</time></trkpt><trkpt lat="45.26469924682162" lon="8.717571786919281"><ele>110.0</ele><time>2026-05-03T18:12:00Z</time></trkpt><trkpt lat="45.26464158629774" lon="8.717622174918214"><ele>110.0</ele><time>2026-05-03T18:12:03Z</time></trkpt><trkpt lat="45.26456986187388" lon="8.717505204973811"><ele>109.99999999999999</ele><time>2026-05-03T18:12:10Z</time></trkpt><trkpt lat="45.26455850770835" lon="8.717408781329533"><ele>110.0</ele><time>2026-05-03T18:12:11Z</time></trkpt><trkpt lat="45.26452750021955" lon="8.717254845625524"><ele>110.0</ele><time>2026-05-03T18:12:13Z</time></trkpt><trkpt lat="45.26450361519712" lon="8.717154178778593"><ele>110.0</ele><time>2026-05-03T18:12:15Z</time></trkpt><trkpt lat="45.264525328240225" lon="8.717064643210948"><ele>110.0</ele><time>2026-05-03T18:12:34.999Z</time></trkpt><trkpt lat="45.2645842959678" lon="8.717016555298127"><ele>110.0</ele><time>2026-05-03T18:12:37.999Z</time></trkpt><trkpt lat="45.26466569713542" lon="8.716987644578397"><ele>110.0</ele><time>2026-05-03T18:12:41.999Z</time></trkpt><trkpt lat="45.264736464567086" lon="8.716917745082283"><ele>110.0</ele><time>2026-05-03T18:16:06Z</time></trkpt><trkpt lat="45.26470017663835" lon="8.716991314998404"><ele>110.0</ele><time>2026-05-03T18:18:50.999Z</time></trkpt></trkseg></trk></gpx>